[[{"header":{"parameterUnit":"m.s-1","parameterCategory":1,"la1":30.6,"la2":29.2853,"lo1":-89.7004,"lo2":-87.6739,"dy":0.0162,"dx":0.0183,"nx":112,"ny":82,"refTime":"2024-05-14T12:00:00:Z","depth":0,"parameterNumber":2,"parameterNumberName":"U-component_of_WINDS"},"data":[0.0,0.0,0.0,0.0,0.0,0.0,0.0,0.0,0.0,0.0,0.0,0.0,0.0,0.0,0.0,0.0,0.0,0.0,0.0,0.0,0.0,0.0,0.0,0.0,0.0,0.0,0.0,0.0,0.0,0.0,0.0,0.0,0.0,0.0,0.0,0.0,0.0,0.0,0.0,0.0,0.0,0.0,0.0,0.0,0.0,0.0,0.0,0.0,0.0,0.0,0.0,0.0,0.0,0.0,0.0,0.0,0.0,0.0,0.0,0.0,0.0,0.0,0.0,0.0,0.0,0.0,0.0,0.0,0.0,0.0,0.0,0.0,0.0,0.0,0.0,0.0,0.0,0.0,0.0,0.0,0.0,0.0,0.0,0.0,0.0,0.0,0.0,0.0,0.0,0.0,-8.1441,-8.2406,-8.5707,-8.8002,-8.8273,-8.8737,-8.7035,-8.2393,0.0,0.0,0.0,0.0,0.0,0.0,0.0,0.0,0.0,0.0,0.0,0.0,0.0,0.0,0.0,0.0,0.0,0.0,0.0,0.0,0.0,0.0,0.0,0.0,0.0,0.0,0.0,0.0,0.0,0.0,0.0,0.0,0.0,0.0,0.0,0.0,0.0,0.0,0.0,0.0,0.0,0.0,0.0,0.0,0.0,0.0,0.0,0.0,0.0,0.0,0.0,0.0,0.0,0.0,0.0,0.0,0.0,0.0,0.0,0.0,0.0,0.0,0.0,0.0,0.0,0.0,0.0,0.0,0.0,0.0,0.0,0.0,0.0,0.0,0.0,0.0,0.0,0.0,0.0,0.0,0.0,0.0,0.0,0.0,0.0,0.0,0.0,0.0,0.0,0.0,0.0,0.0,0.0,0.0,0.0,0.0,0.0,0.0,0.0,0.0,0.0,0.0,0.0,0.0,-8.2844,-8.6519,-8.7486,-8.8466,-8.9898,-8.8853,-8.7151,-8.4869,0.0,0.0,0.0,0.0,0.0,0.0,0.0,0.0,0.0,0.0,0.0,0.0,0.0,0.0,0.0,0.0,0.0,0.0,0.0,0.0,0.0,0.0,0.0,0.0,0.0,0.0,0.0,0.0,0.0,0.0,0.0,0.0,0.0,0.0,0.0,0.0,0.0,0.0,0.0,0.0,0.0,0.0,0.0,0.0,0.0,0.0,0.0,0.0,0.0,0.0,0.0,0.0,0.0,0.0,0.0,0.0,0.0,0.0,0.0,0.0,0.0,0.0,0.0,0.0,0.0,0.0,0.0,0.0,0.0,0.0,0.0,0.0,0.0,0.0,0.0,0.0,0.0,0.0,0.0,0.0,0.0,0.0,0.0,0.0,0.0,0.0,0.0,0.0,0.0,0.0,0.0,0.0,0.0,0.0,0.0,0.0,0.0,0.0,0.0,0.0,0.0,0.0,0.0,-8.0937,-8.2973,-8.6803,-8.7615,-8.8234,-8.8969,-8.835,-8.6958,-8.4792,-8.3051,0.0,0.0,0.0,0.0,0.0,0.0,0.0,0.0,0.0,0.0,0.0,0.0,0.0,0.0,0.0,0.0,0.0,0.0,0.0,0.0,0.0,0.0,0.0,0.0,0.0,0.0,0.0,0.0,0.0,0.0,0.0,0.0,0.0,0.0,0.0,0.0,0.0,0.0,0.0,0.0,0.0,0.0,0.0,0.0,0.0,0.0,0.0,0.0,0.0,0.0,0.0,0.0,0.0,0.0,0.0,0.0,0.0,0.0,0.0,0.0,0.0,0.0,0.0,0.0,0.0,0.0,0.0,0.0,0.0,0.0,0.0,0.0,0.0,0.0,0.0,0.0,0.0,0.0,0.0,0.0,0.0,0.0,0.0,0.0,0.0,0.0,0.0,0.0,0.0,0.0,0.0,0.0,0.0,0.0,0.0,0.0,0.0,0.0,0.0,0.0,0.0,0.0,-8.2239,-8.3283,-8.63,-8.719,-8.7693,-8.7873,-8.7538,-8.6455,-8.4521,-8.2393,0.0,0.0,0.0,0.0,0.0,0.0,0.0,0.0,0.0,0.0,0.0,0.0,0.0,0.0,0.0,0.0,0.0,0.0,0.0,0.0,0.0,0.0,0.0,0.0,0.0,0.0,0.0,0.0,0.0,0.0,0.0,0.0,0.0,0.0,0.0,0.0,0.0,0.0,0.0,0.0,0.0,0.0,0.0,0.0,0.0,0.0,0.0,0.0,0.0,0.0,0.0,0.0,0.0,0.0,0.0,0.0,0.0,0.0,0.0,0.0,0.0,0.0,0.0,0.0,0.0,0.0,0.0,0.0,0.0,0.0,0.0,0.0,0.0,0.0,0.0,0.0,0.0,0.0,0.0,0.0,0.0,0.0,0.0,0.0,0.0,0.0,0.0,0.0,0.0,0.0,0.0,0.0,0.0,0.0,0.0,0.0,0.0,0.0,0.0,0.0,0.0,0.0,-8.2973,-8.4598,-8.6416,-8.6648,-8.7035,-8.7847,-8.6416,-8.541,-8.5217,-8.2122,0.0,0.0,0.0,0.0,0.0,0.0,0.0,0.0,0.0,0.0,0.0,0.0,0.0,0.0,0.0,0.0,0.0,0.0,0.0,0.0,0.0,0.0,0.0,0.0,0.0,0.0,0.0,0.0,0.0,0.0,0.0,0.0,0.0,0.0,0.0,0.0,0.0,0.0,0.0,0.0,0.0,0.0,0.0,0.0,0.0,0.0,0.0,0.0,0.0,0.0,0.0,0.0,0.0,0.0,0.0,0.0,0.0,0.0,0.0,0.0,0.0,0.0,0.0,0.0,0.0,0.0,0.0,0.0,0.0,0.0,0.0,0.0,0.0,0.0,0.0,0.0,0.0,0.0,0.0,0.0,0.0,0.0,0.0,0.0,0.0,0.0,0.0,0.0,0.0,0.0,0.0,0.0,0.0,0.0,0.0,0.0,0.0,0.0,0.0,0.0,0.0,0.0,-8.2986,-8.4753,-8.6416,-8.7112,-8.7538,-8.7873,-8.7306,-8.6261,-8.4637,0.0,0.0,0.0,0.0,0.0,0.0,0.0,0.0,0.0,0.0,0.0,0.0,0.0,0.0,0.0,0.0,0.0,0.0,0.0,0.0,0.0,0.0,0.0,0.0,0.0,0.0,0.0,0.0,0.0,0.0,0.0,0.0,0.0,0.0,0.0,0.0,0.0,0.0,0.0,0.0,0.0,0.0,0.0,0.0,0.0,0.0,0.0,0.0,0.0,0.0,0.0,0.0,0.0,0.0,0.0,0.0,0.0,0.0,0.0,0.0,0.0,0.0,0.0,0.0,0.0,0.0,0.0,0.0,0.0,0.0,0.0,0.0,0.0,0.0,0.0,0.0,0.0,0.0,0.0,0.0,0.0,0.0,0.0,0.0,0.0,0.0,0.0,0.0,0.0,0.0,0.0,0.0,0.0,0.0,0.0,0.0,0.0,0.0,0.0,0.0,0.0,0.0,-8.1247,-8.3218,-8.5024,-8.6455,-8.7151,-8.7499,-8.7499,-8.7228,-8.6107,-8.3824,0.0,0.0,0.0,0.0,0.0,0.0,0.0,0.0,0.0,0.0,0.0,0.0,0.0,0.0,0.0,0.0,0.0,0.0,0.0,0.0,0.0,0.0,0.0,0.0,0.0,0.0,0.0,0.0,0.0,0.0,0.0,0.0,0.0,0.0,0.0,0.0,0.0,0.0,0.0,0.0,0.0,0.0,0.0,0.0,0.0,0.0,0.0,0.0,0.0,0.0,0.0,0.0,0.0,0.0,0.0,0.0,0.0,0.0,0.0,0.0,0.0,0.0,0.0,0.0,0.0,0.0,0.0,0.0,0.0,0.0,0.0,0.0,0.0,0.0,0.0,0.0,0.0,0.0,0.0,0.0,0.0,0.0,0.0,0.0,0.0,0.0,0.0,0.0,0.0,0.0,0.0,0.0,0.0,0.0,0.0,0.0,0.0,0.0,0.0,0.0,0.0,0.0,-8.1387,-8.3747,-8.5643,-8.6532,-8.661,-8.661,-8.661,-8.5797,-8.4598,0.0,0.0,0.0,0.0,0.0,0.0,0.0,0.0,0.0,0.0,0.0,0.0,0.0,0.0,0.0,0.0,0.0,0.0,0.0,0.0,0.0,0.0,0.0,0.0,0.0,0.0,0.0,0.0,0.0,0.0,0.0,0.0,0.0,0.0,0.0,0.0,0.0,0.0,0.0,0.0,0.0,0.0,0.0,0.0,0.0,0.0,0.0,0.0,0.0,0.0,0.0,0.0,0.0,0.0,0.0,0.0,0.0,0.0,0.0,0.0,0.0,0.0,0.0,0.0,0.0,0.0,0.0,0.0,0.0,0.0,0.0,0.0,0.0,0.0,0.0,0.0,0.0,0.0,0.0,0.0,0.0,0.0,0.0,0.0,0.0,0.0,0.0,0.0,0.0,0.0,0.0,0.0,0.0,0.0,0.0,0.0,0.0,0.0,0.0,0.0,0.0,0.0,0.0,-8.1465,-8.425,-8.6339,-8.6571,-8.661,-8.661,-8.661,-8.5797,-8.4327,-8.2045,0.0,0.0,0.0,0.0,0.0,0.0,0.0,0.0,0.0,0.0,0.0,0.0,0.0,0.0,0.0,0.0,0.0,0.0,0.0,0.0,0.0,0.0,0.0,0.0,0.0,0.0,0.0,0.0,0.0,0.0,0.0,0.0,0.0,0.0,0.0,0.0,0.0,0.0,0.0,0.0,0.0,0.0,0.0,0.0,0.0,0.0,0.0,0.0,0.0,0.0,0.0,0.0,0.0,0.0,0.0,0.0,0.0,0.0,0.0,0.0,0.0,0.0,0.0,0.0,0.0,0.0,0.0,0.0,0.0,0.0,0.0,0.0,0.0,0.0,0.0,0.0,0.0,0.0,0.0,0.0,0.0,0.0,0.0,0.0,0.0,0.0,0.0,0.0,0.0,0.0,0.0,0.0,0.0,0.0,0.0,0.0,0.0,0.0,0.0,0.0,0.0,0.0,-8.1465,-8.4173,-8.6223,-8.6571,-8.661,-8.661,-8.661,-8.5797,-8.4366,-8.2161,0.0,0.0,0.0,0.0,0.0,0.0,0.0,0.0,0.0,0.0,0.0,0.0,0.0,0.0,0.0,0.0,0.0,0.0,0.0,0.0,0.0,0.0,0.0,0.0,0.0,0.0,0.0,0.0,0.0,0.0,0.0,0.0,0.0,0.0,0.0,0.0,0.0,0.0,0.0,0.0,0.0,0.0,0.0,0.0,0.0,0.0,0.0,0.0,0.0,0.0,0.0,0.0,0.0,0.0,0.0,0.0,0.0,0.0,0.0,0.0,0.0,0.0,0.0,0.0,0.0,0.0,0.0,0.0,0.0,0.0,0.0,0.0,0.0,0.0,0.0,0.0,0.0,0.0,0.0,0.0,0.0,0.0,0.0,0.0,0.0,0.0,0.0,0.0,0.0,0.0,0.0,0.0,0.0,0.0,0.0,0.0,0.0,0.0,0.0,0.0,0.0,0.0,-8.1387,-8.367,-8.5565,-8.6494,-8.6532,-8.6532,-8.661,-8.572,-8.4521,-8.2896,0.0,0.0,0.0,0.0,0.0,0.0,0.0,0.0,0.0,0.0,0.0,0.0,0.0,0.0,0.0,0.0,0.0,0.0,0.0,0.0,0.0,0.0,0.0,0.0,0.0,0.0,0.0,0.0,0.0,0.0,0.0,0.0,0.0,0.0,0.0,0.0,0.0,0.0,0.0,0.0,0.0,0.0,0.0,0.0,0.0,0.0,0.0,0.0,0.0,0.0,0.0,0.0,0.0,0.0,0.0,0.0,0.0,0.0,0.0,0.0,-7.6726,-7.6366,0.0,0.0,0.0,0.0,0.0,0.0,0.0,0.0,0.0,0.0,0.0,0.0,0.0,0.0,0.0,0.0,0.0,0.0,0.0,0.0,0.0,0.0,0.0,0.0,0.0,0.0,0.0,0.0,0.0,0.0,0.0,0.0,0.0,0.0,0.0,0.0,0.0,0.0,0.0,0.0,-8.1387,-8.3167,-8.4946,-8.6455,-8.5991,-8.5836,-8.6532,-8.5217,-8.3902,-8.2857,-8.1155,0.0,0.0,0.0,0.0,0.0,0.0,0.0,0.0,0.0,0.0,0.0,0.0,0.0,0.0,0.0,0.0,0.0,0.0,0.0,0.0,0.0,0.0,0.0,0.0,0.0,0.0,0.0,0.0,0.0,0.0,0.0,0.0,0.0,0.0,0.0,0.0,0.0,0.0,0.0,0.0,0.0,0.0,0.0,0.0,0.0,0.0,0.0,0.0,0.0,0.0,0.0,0.0,0.0,0.0,0.0,0.0,0.0,0.0,0.0,-7.7932,-7.8139,0.0,0.0,0.0,0.0,0.0,0.0,0.0,0.0,0.0,0.0,0.0,0.0,0.0,0.0,0.0,0.0,0.0,0.0,0.0,0.0,0.0,0.0,0.0,0.0,0.0,0.0,0.0,0.0,0.0,0.0,0.0,0.0,0.0,0.0,0.0,0.0,0.0,0.0,0.0,0.0,-8.0769,-8.2393,-8.3979,-8.5256,-8.4985,-8.4908,-8.5372,-8.4211,-8.3283,-8.2819,-8.0807,0.0,0.0,0.0,0.0,0.0,0.0,0.0,0.0,0.0,0.0,0.0,0.0,0.0,0.0,0.0,0.0,0.0,0.0,0.0,0.0,0.0,0.0,0.0,0.0,0.0,0.0,0.0,0.0,0.0,0.0,0.0,0.0,0.0,0.0,0.0,0.0,0.0,0.0,0.0,0.0,0.0,0.0,0.0,0.0,0.0,0.0,0.0,0.0,0.0,0.0,0.0,0.0,0.0,-7.7946,-7.802,-7.7449,-7.8142,-7.8729,-7.9184,-7.9456,-8.0165,-8.1069,-7.9759,0.0,0.0,0.0,0.0,0.0,0.0,0.0,0.0,0.0,0.0,0.0,0.0,0.0,0.0,0.0,0.0,0.0,0.0,0.0,0.0,0.0,0.0,-8.0885,-8.0885,-8.2084,-8.2741,-8.1039,0.0,0.0,0.0,0.0,0.0,0.0,0.0,0.0,0.0,0.0,0.0,-8.0304,-8.1697,-8.2973,-8.3979,-8.394,-8.394,-8.4095,-8.3283,-8.278,-8.278,-8.0536,-7.9144,0.0,0.0,0.0,0.0,0.0,0.0,0.0,0.0,0.0,0.0,0.0,0.0,0.0,0.0,0.0,0.0,0.0,0.0,0.0,0.0,0.0,0.0,0.0,0.0,0.0,0.0,0.0,0.0,0.0,0.0,0.0,0.0,-7.369,-7.3574,0.0,0.0,0.0,0.0,0.0,0.0,0.0,0.0,0.0,0.0,0.0,0.0,0.0,-7.6683,-7.7576,-7.8348,-7.9352,-8.0635,-8.1374,-8.207,-8.2609,-8.2724,-8.2416,-8.1823,-8.2624,0.0,-8.1147,-8.1608,0.0,0.0,0.0,0.0,0.0,0.0,0.0,0.0,0.0,0.0,0.0,0.0,0.0,0.0,0.0,0.0,0.0,0.0,0.0,0.0,0.0,0.0,-8.3592,-8.3592,-8.4289,-8.4521,-8.2819,-8.1194,-7.9995,-7.9879,-7.9299,-7.8564,0.0,0.0,0.0,0.0,0.0,0.0,-8.1117,-8.1542,-8.2316,-8.394,-8.3399,-8.3283,-8.4018,-8.3283,-8.278,-8.278,-8.1078,-7.9724,-7.9028,-7.8177,0.0,0.0,0.0,0.0,0.0,0.0,0.0,0.0,0.0,0.0,0.0,0.0,0.0,0.0,0.0,0.0,0.0,0.0,0.0,0.0,0.0,0.0,0.0,0.0,0.0,0.0,0.0,0.0,0.0,-7.1485,-7.1717,-7.1717,-7.0711,-6.9976,0.0,0.0,0.0,0.0,0.0,0.0,0.0,0.0,0.0,-7.7792,-7.8244,-7.9095,-8.0406,-8.1214,-8.1928,-8.2586,-8.2941,-8.3256,-8.3593,-8.3593,-8.3401,-8.3054,-8.3439,-8.317,-8.2477,-8.2362,-8.1939,-8.1246,0.0,0.0,0.0,0.0,-7.9939,-8.0131,-8.1362,-8.1516,-8.1054,-8.0208,0.0,0.0,0.0,0.0,0.0,0.0,0.0,-7.9941,-8.2146,-8.3346,-8.4004,-8.4082,-8.4714,-8.4985,-8.3786,-8.2548,-8.1387,-8.0382,-7.9569,-7.8718,-7.7829,-7.8099,0.0,0.0,0.0,-7.9956,-8.0691,-8.1194,-8.1813,-8.2548,-8.2316,-8.2238,-8.2625,-8.2277,-8.1852,-8.1387,-8.0188,-7.9144,-7.8293,-7.7442,-7.6591,0.0,0.0,0.0,0.0,0.0,0.0,0.0,0.0,0.0,0.0,0.0,0.0,0.0,0.0,0.0,0.0,0.0,0.0,0.0,0.0,0.0,0.0,0.0,0.0,0.0,0.0,0.0,0.0,-7.0556,-7.0982,-7.0982,-7.1175,-7.1126,0.0,0.0,0.0,0.0,0.0,0.0,-7.7302,-7.7573,-7.845,-8.0151,-8.0769,-8.1642,-8.2883,-8.3441,-8.3803,-8.3971,-8.3955,-8.4016,-8.4247,-8.4247,-8.4132,-8.3939,-8.3939,-8.3824,-8.3555,-8.3131,-8.3093,-8.317,-8.2131,-8.1477,-8.1131,-8.1593,-8.1747,-8.19,-8.2901,-8.3131,-8.2824,-8.2016,-8.1439,-8.09,-7.9785,0.0,0.0,0.0,0.0,-8.0959,-8.2767,-8.3572,-8.3859,-8.3759,-8.4327,-8.4649,-8.3644,-8.2922,-8.2161,-8.1078,-8.0188,-7.9376,-7.8486,-7.8873,0.0,-7.8448,-7.9415,-8.0266,-8.0498,-8.1117,-8.1491,-8.1491,-8.1491,-8.1491,-8.1491,-8.131,-8.0885,-8.0227,-7.9221,-7.837,-7.7713,-7.6862,-7.6281,-7.6049,0.0,0.0,0.0,0.0,0.0,0.0,0.0,0.0,0.0,0.0,0.0,0.0,0.0,0.0,0.0,0.0,0.0,0.0,0.0,0.0,0.0,0.0,0.0,0.0,0.0,0.0,0.0,0.0,0.0,-7.369,-7.4386,0.0,0.0,0.0,0.0,-7.603,-7.6996,-7.8233,-7.9816,-8.0705,-8.1873,-8.3387,-8.3577,-8.3616,-8.3641,-8.368,-8.4104,-8.4936,-8.4856,-8.5247,-8.5978,-8.5978,-8.5555,-8.4824,-8.4824,-8.4362,-8.367,-8.4439,-8.3824,-8.2439,-8.317,-8.2477,-8.1285,-8.2901,-8.3478,-8.3708,-8.5324,-8.5401,-8.4632,-8.3747,-8.2401,-8.1246,-8.19,-8.1593,0.0,0.0,-8.2909,-8.2693,-8.4503,-8.4378,-8.3606,-8.2849,-8.333,-8.3539,-8.1903,-8.153,-8.1774,-8.2509,-8.1968,-8.1117,-8.0227,0.0,-8.0111,-8.0072,-8.015,-8.0498,-8.1349,-8.1452,-8.1491,-8.1491,-8.1491,-8.1491,-8.1491,-8.073,-8.0266,-8.0188,-7.868,-7.7751,-7.7713,-7.6862,-7.6011,-7.5187,-7.5148,0.0,0.0,0.0,0.0,0.0,0.0,0.0,0.0,0.0,0.0,0.0,0.0,0.0,0.0,0.0,0.0,0.0,0.0,0.0,0.0,0.0,0.0,0.0,0.0,0.0,0.0,0.0,0.0,-7.3715,-7.4989,0.0,-7.6262,-7.6945,-7.7756,-7.8696,-8.0047,-8.1294,-8.24,-8.2786,-8.3196,-8.3755,-8.4304,-8.4543,-8.4528,-8.5004,-8.5411,-8.5703,-8.5687,-8.5824,-8.6094,-8.6094,-8.594,-8.567,-8.567,-8.5209,-8.4478,-8.4786,-8.4516,-8.4016,-8.4324,-8.4401,-8.4401,-8.4978,-8.5209,-8.5286,-8.5901,-8.5901,-8.5555,-8.4709,-8.3632,-8.2747,-8.3054,-8.2939,-8.2955,-8.4125,-8.3833,-8.3464,-8.4712,-8.4381,-8.3548,-8.2782,-8.2849,-8.2761,-8.1603,-8.1387,-8.1543,-8.1826,-8.1234,-8.0575,-8.0266,-8.0691,-8.0846,-8.0266,-8.0691,-8.1155,-8.1465,-8.1491,-8.1491,-8.1491,-8.1491,-8.1491,-8.1491,-8.122,-8.0575,-7.9492,-7.8873,-7.8022,-7.69,-7.6552,-7.6243,-7.5933,-7.5933,-7.5276,0.0,0.0,0.0,0.0,0.0,0.0,0.0,0.0,0.0,0.0,0.0,0.0,0.0,0.0,0.0,0.0,0.0,0.0,0.0,0.0,0.0,0.0,0.0,0.0,0.0,-7.0951,-7.2945,-7.4372,-7.6289,-7.7743,-7.8309,-7.9607,-8.0674,-8.128,-8.2357,-8.3331,-8.4179,-8.4218,-8.4319,-8.4558,-8.509,-8.5366,-8.5366,-8.5841,-8.6094,-8.6094,-8.6094,-8.6094,-8.6094,-8.6094,-8.6094,-8.6094,-8.6094,-8.5632,-8.4901,-8.4901,-8.4747,-8.4478,-8.4478,-8.4786,-8.5247,-8.5247,-8.5247,-8.5247,-8.5247,-8.5247,-8.517,-8.4632,-8.4055,-8.3593,-8.3593,-8.3593,-8.3708,-8.4286,-8.4055,-8.3686,-8.4019,-8.3634,-8.3033,-8.2284,-8.2121,-8.1981,-8.1403,-8.1305,-8.136,-8.1387,-8.0989,-8.0653,-8.0653,-8.1117,-8.1117,-7.9956,-8.0769,-8.131,-8.073,-8.1155,-8.1491,-8.1491,-8.1491,-8.1491,-8.1491,-8.073,-7.9879,-7.9067,-7.8177,-7.7287,-7.6436,-7.6127,-7.5972,-7.5972,-7.5972,-7.5392,-7.4309,0.0,0.0,0.0,0.0,0.0,0.0,0.0,0.0,0.0,0.0,0.0,0.0,0.0,0.0,0.0,0.0,0.0,0.0,0.0,0.0,0.0,0.0,0.0,-6.9962,-7.1402,-7.3446,-7.6018,-7.8567,-8.0715,-8.2293,-8.3278,-8.3794,-8.3719,-8.3757,-8.4142,-8.4974,-8.5013,-8.5366,-8.6094,-8.6094,-8.6094,-8.6094,-8.6094,-8.6094,-8.6094,-8.6094,-8.6094,-8.6094,-8.6094,-8.6094,-8.6094,-8.6094,-8.567,-8.4939,-8.4901,-8.4401,-8.3593,-8.3593,-8.3593,-8.3593,-8.3593,-8.3593,-8.3593,-8.3593,-8.3593,-8.3593,-8.3593,-8.3593,-8.3593,-8.3593,-8.3593,-8.3593,-8.3593,-8.3555,-8.3362,-8.2516,-8.2285,-8.2054,-8.1285,-8.1154,-8.1214,-8.1214,-8.1234,-8.1305,-8.1374,-8.1453,-8.1491,-8.1491,-8.1491,-8.0962,-7.9337,-8.0459,0.0,-7.9299,-8.0498,-8.1491,-8.1414,-8.1414,-8.1414,-8.1414,-7.9144,-7.8099,-7.895,-7.663,-7.5585,-7.6359,-7.5585,-7.516,-7.516,-7.5109,-7.5109,-7.5109,0.0,0.0,0.0,0.0,0.0,0.0,0.0,0.0,0.0,0.0,0.0,0.0,0.0,0.0,0.0,0.0,0.0,0.0,0.0,0.0,0.0,-7.0105,-7.1093,-7.1491,-7.3532,-7.5957,-7.8498,-7.9991,-8.1508,-8.3179,-8.3534,-8.3942,-8.4589,-8.4581,-8.4933,-8.5742,-8.5819,-8.5879,-8.6094,-8.6094,-8.6094,-8.6094,-8.6094,-8.6094,-8.6094,-8.6094,-8.6094,-8.6094,-8.6094,-8.6094,-8.6094,-8.6094,-8.5978,-8.5709,-8.5132,-8.4401,-8.3593,-8.3593,-8.3593,-8.3593,-8.3593,-8.3593,-8.3593,-8.3593,-8.3593,-8.3593,-8.3593,-8.3593,-8.3593,-8.3593,-8.3593,-8.3593,-8.3593,-8.3131,-8.2593,-8.2362,-8.1862,-8.1362,-8.1131,-8.1108,-8.1124,-8.1124,-8.1229,-8.1291,-8.1319,-8.1414,-8.1491,-8.1491,-8.1491,-8.1349,-8.0885,-8.1194,0.0,-8.0885,-8.1233,-8.1039,-7.984,-7.9685,-7.9685,-7.9685,-7.9067,-7.8757,-7.8989,-7.8332,-7.7481,-7.6436,-7.6165,-7.6049,-7.6049,-7.543,-7.5109,0.0,0.0,0.0,0.0,0.0,0.0,0.0,0.0,0.0,0.0,0.0,0.0,0.0,0.0,0.0,0.0,0.0,0.0,0.0,0.0,0.0,0.0,-7.1734,-7.2937,-7.4168,-7.5592,-7.7476,-8.0054,-8.1431,-8.2848,-8.4542,-8.4696,-8.4889,-8.5427,-8.5417,-8.5632,-8.6094,-8.6094,-8.6094,-8.6094,-8.6094,-8.6094,-8.6094,-8.6094,-8.6094,-8.6094,-8.6094,-8.6094,-8.6094,-8.6094,-8.6094,-8.6094,-8.6094,-8.6094,-8.6055,-8.5593,-8.467,-8.3555,0.0,0.0,0.0,0.0,-8.2554,-8.2554,-8.2554,-8.2554,-8.2554,-8.2554,-8.2554,-8.2554,-8.2554,-8.2554,-8.2554,-8.2554,-8.217,-8.1785,-8.1785,-8.1439,-8.1093,-8.1093,-8.1093,-8.1093,-8.1093,-8.1169,-8.1205,-8.1277,-8.136,0.0,-8.1491,-8.1491,-8.1271,-8.0575,-8.1039,-8.1271,-8.0536,-8.1078,-8.1117,-8.015,-8.0034,-8.0034,-8.0034,-7.9415,0.0,0.0,0.0,-7.7287,-7.5895,-7.5856,0.0,0.0,0.0,-7.5276,-7.5624,-7.5198,0.0,0.0,-7.543,-7.5546,0.0,0.0,0.0,0.0,0.0,0.0,0.0,0.0,0.0,0.0,0.0,0.0,0.0,0.0,0.0,0.0,-7.3822,-7.5438,-7.7169,-7.7669,-7.8707,-8.0977,-8.2771,-8.4442,-8.594,-8.6159,-8.6175,-8.6094,-8.6094,-8.6094,-8.6094,-8.6094,0.0,0.0,0.0,-8.6094,-8.6094,-8.6094,-8.6094,-8.6094,-8.6094,-8.6094,-8.6094,-8.6094,-8.6094,-8.6094,-8.6094,-8.6055,-8.5978,-8.5978,-8.4978,-8.3362,-8.2516,-8.1747,-8.1093,-8.1093,-8.1093,-8.1093,-8.1093,0.0,0.0,-8.1093,-8.1093,-8.1093,-8.1093,-8.1093,-8.1093,-8.1093,-8.1093,-8.1093,-8.1093,-8.1093,-8.1093,-8.1093,-8.1093,-8.1093,-8.1093,-8.1093,-8.1154,-8.1287,-8.1291,-8.1347,-8.1466,-8.1491,-8.1001,-7.9492,-8.0536,-8.0962,-7.9453,-8.0575,-8.1414,-8.1233,-8.1233,0.0,-8.1233,-7.984,-7.9028,-7.9144,-7.7519,-7.6165,-7.5276,-7.5237,-7.5237,-7.5237,-7.5237,-7.5624,-7.6397,-7.6397,-7.6397,-7.6359,-7.4889,-7.4579,0.0,0.0,0.0,0.0,0.0,0.0,0.0,0.0,0.0,0.0,0.0,0.0,0.0,0.0,0.0,-7.3822,-7.5091,-7.6322,-7.8015,-8.0054,-8.1516,-8.2016,-8.3609,-8.5033,-8.6017,-8.611,-8.611,-8.6094,-8.6094,-8.6094,-8.6094,-8.6094,-8.6094,-8.6094,-8.6094,-8.6094,-8.6094,-8.6094,-8.6094,-8.6094,-8.6094,0.0,-8.6094,-8.6094,-8.6094,-8.6094,-8.6094,-8.5747,-8.5132,-8.5132,-8.4093,-8.2477,-8.1631,-8.1246,-8.1093,-8.1093,-8.1093,-8.1093,-8.1093,-8.1093,-8.1093,-8.1093,-8.1093,-8.1093,-8.1093,-8.1093,0.0,-8.1093,-8.1093,-8.1093,-8.1093,-8.1093,-8.1093,-8.1093,-8.1093,-8.1093,-8.1093,-8.1139,-8.1199,-8.1229,-8.1291,-8.1387,-8.1414,-8.1466,-8.1387,-8.1078,-8.1298,-8.1387,-8.1078,-8.131,-8.1001,-7.9647,-7.9492,-7.9492,-7.9492,-7.9183,-7.9299,-7.9918,-7.837,-7.7055,-7.6165,-7.6165,-7.6165,-7.6165,-7.6165,-7.6243,-7.6397,-7.6397,-7.6397,-7.6397,-7.6049,-7.6011,0.0,0.0,0.0,0.0,0.0,0.0,0.0,0.0,0.0,0.0,0.0,-6.959,-7.1283,0.0,-7.363,-7.6207,-7.6976,-7.7977,-8.0092,-8.1477,-8.2285,-8.2285,-8.4209,-8.567,-8.6055,-8.6094,-8.6094,-8.6094,-8.6094,-8.6094,-8.6094,-8.6094,-8.6094,-8.6094,-8.6094,-8.6094,-8.6094,-8.6094,-8.6094,-8.6094,-8.6094,-8.6094,-8.6094,-8.6094,-8.6094,-8.6094,-8.6094,-8.5632,-8.4824,-8.3978,-8.3093,-8.2208,-8.14,-8.1093,-8.1093,-8.1093,-8.1093,-8.1093,-8.1093,-8.1093,-8.1093,-8.1093,-8.1093,-8.1093,-8.1093,-8.1093,-8.1093,-8.1093,-8.1093,-8.1093,-8.1093,-8.1093,-8.1093,-8.1093,-8.1093,-8.1093,-8.1093,-8.1124,-8.1169,-8.1199,-8.1234,-8.1305,-8.1333,-8.14,-8.1453,-8.1491,-8.1491,-8.1491,-8.1491,-8.1491,-8.1194,-8.0343,-8.0266,-8.0266,-8.0266,-7.984,-7.9608,-7.9608,-7.8409,-7.7287,-7.6436,-7.6397,-7.6397,-7.6397,-7.6397,-7.6397,-7.6397,-7.6397,-7.6397,-7.6397,-7.6397,-7.6397,0.0,0.0,0.0,0.0,0.0,0.0,0.0,-6.8167,-6.8359,-7.0283,-7.0552,-7.1168,-7.3553,-7.4399,-7.5515,-7.8092,-7.8477,-7.9323,-8.1747,-8.2362,-8.2631,-8.2785,-8.4747,-8.6094,-8.6094,-8.6094,-8.6094,-8.6094,-8.6094,-8.6094,-8.6094,-8.6094,-8.6094,-8.6094,-8.6094,-8.6094,-8.6094,-8.6094,-8.6094,-8.6094,-8.6094,-8.6094,-8.6094,-8.6094,-8.6094,-8.6094,-8.5747,-8.517,-8.4286,-8.2708,-8.2054,-8.2016,-8.1362,-8.1093,-8.1093,-8.1093,-8.1093,-8.1093,-8.1093,-8.1093,-8.1093,-8.1093,-8.1093,-8.1093,-8.1093,-8.1093,-8.1093,-8.1093,-8.1093,-8.1093,-8.1093,-8.1093,-8.1093,-8.1093,-8.1093,-8.1093,-8.1093,-8.1093,-8.1108,-8.1184,-8.1199,-8.1229,-8.1249,-8.1333,-8.1414,-8.1466,-8.1491,-8.1491,-8.1491,-8.1491,-8.1491,-8.1491,-8.1491,-8.1491,-8.1491,-8.0846,-8.0111,-7.9299,-7.8409,-7.7558,-7.6668,-7.6475,-7.6475,-7.663,-7.663,-7.663,-7.663,-7.663,-7.6552,-7.6397,-7.6397,-7.6397,-6.5974,-6.6898,-6.859,-6.936,-6.9552,-7.0321,0.0,-7.2091,-7.1168,-7.363,-7.3591,-7.363,-7.5399,-7.5168,-7.5515,-7.8092,-7.8477,-7.9131,-8.0977,-8.2516,-8.3747,-8.4516,-8.5478,-8.6094,-8.6094,-8.6094,-8.6094,-8.6094,-8.6094,-8.6094,-8.6094,-8.6094,-8.6094,-8.6094,-8.6094,-8.6094,-8.6094,-8.6094,-8.6094,-8.6094,-8.6094,-8.6094,-8.6094,-8.6094,-8.6094,-8.6017,-8.4516,-8.3401,-8.2516,-8.1593,-8.1246,-8.1246,-8.1131,-8.1093,-8.1093,-8.1093,-8.1093,-8.1093,-8.1093,-8.1093,-8.1093,-8.1093,-8.1093,-8.1093,-8.1093,-8.1093,-8.1093,-8.1093,-8.1093,-8.1093,-8.1093,-8.1093,-8.1093,-8.1093,-8.1093,-8.1093,-8.1093,-8.1093,-8.1093,-8.1108,-8.1169,-8.1214,-8.1229,-8.1305,-8.14,-8.14,-8.1453,-8.1491,-8.1491,-8.1491,-8.1491,-8.1491,-8.1491,-8.1491,-8.1491,-8.1414,-8.1001,-8.0111,-7.9299,-7.8448,-7.7597,-7.6823,-7.6746,-7.7519,-7.7558,-7.7558,-7.7558,-7.7558,-7.7171,-7.6397,-7.6397,-7.6397,-6.9206,-6.9706,-7.0206,-7.1591,-7.1898,-7.2168,-7.3053,-7.2437,-7.2245,-7.4284,-7.4437,-7.4707,-7.6438,-7.6476,-7.6861,-7.8938,-7.9246,-8.0015,-8.2247,-8.317,-8.4093,-8.544,-8.5901,-8.6094,-8.6094,-8.6094,-8.6094,-8.6094,-8.6094,-8.6094,-8.6094,-8.6094,-8.6094,-8.6094,-8.6094,-8.6094,-8.6094,-8.6094,-8.6094,-8.6094,-8.6094,-8.6094,-8.6094,-8.6094,-8.5863,-8.5324,-8.4132,-8.3093,-8.2247,-8.1439,-8.1093,-8.1093,-8.1093,-8.1093,-8.1093,-8.1093,-8.1093,-8.1093,-8.1093,-8.1093,-8.1093,-8.1093,-8.1093,-8.1093,-8.1093,-8.1093,-8.1093,-8.1093,-8.1093,-8.1093,-8.1093,-8.1093,-8.1093,-8.1093,-8.1093,-8.1093,-8.1093,-8.1093,-8.1093,-8.1093,-8.1124,-8.1139,-8.1139,-8.1229,-8.1291,-8.1333,-8.1427,-8.1491,-8.1491,-8.1491,-8.1491,-8.1491,-8.1491,-8.1491,-8.1491,-8.1491,-8.1117,-8.0266,-7.9879,-7.9337,-7.8486,-7.8099,-7.8061,-7.8448,-7.8448,-7.8216,-7.7713,-7.7713,-7.7248,-7.6397,-7.6397,-7.6397,-7.036,-7.1014,-7.1245,-7.2783,-7.3514,-7.3668,-7.3014,-7.2899,-7.3283,-7.4745,-7.5053,-7.5515,-7.7015,-7.7092,-7.7476,-7.9169,-7.9438,-8.0246,-8.2593,-8.3093,-8.3785,-8.5247,-8.5401,-8.5401,-8.5401,-8.5824,-8.6094,-8.6094,-8.6094,-8.6094,-8.6094,-8.6094,-8.6094,-8.6094,-8.6094,-8.6094,-8.6094,-8.6094,-8.6094,-8.6094,-8.6094,-8.6094,-8.6094,-8.5863,-8.5209,-8.417,-8.3516,-8.2747,-8.19,-8.1323,-8.1093,-8.1093,-8.1093,-8.1093,-8.1093,-8.1093,-8.1093,-8.1093,-8.1093,-8.1093,-8.1093,-8.1093,-8.1093,-8.1093,-8.1093,-8.1093,-8.1093,-8.1093,-8.1093,-8.1093,-8.1093,-8.1093,-8.1093,-8.1093,-8.1093,-8.1093,-8.1093,-8.1093,-8.1093,-8.1093,-8.1093,-8.1093,-8.1093,-8.1154,-8.1229,-8.1287,-8.136,-8.1453,-8.1491,-8.1491,-8.1491,-8.1491,-8.1491,-8.1491,-8.1491,-8.1491,-8.1233,-8.0614,-8.0343,-7.9956,-7.9376,-7.9105,-7.9105,-7.9337,-7.9105,-7.868,-7.8061,-7.7829,-7.7248,-7.6397,-7.6397,-7.6397,-6.8052,-6.9667,-7.1129,-7.2014,-7.3476,-7.4668,-7.463,-7.463,-7.4899,-7.5784,-7.5976,-7.6245,-7.713,-7.6592,-7.6592,-7.8246,-7.8515,-7.9169,-8.0939,-8.1862,-8.267,-8.3555,-8.367,-8.367,-8.367,-8.5132,-8.6094,-8.6094,-8.6094,-8.6094,-8.6094,-8.6094,-8.6094,-8.6094,-8.6094,-8.6094,-8.6094,-8.6094,-8.6094,-8.6094,-8.6094,-8.6094,-8.6055,-8.5286,-8.4016,-8.2362,-8.2362,-8.1862,-8.1131,-8.1093,-8.1093,-8.1093,-8.1093,-8.1093,-8.1093,-8.1093,-8.1093,-8.1093,-8.1093,-8.1093,-8.1093,-8.1093,-8.1093,-8.1093,-8.1093,-8.1093,-8.1093,-8.1093,-8.1093,-8.1093,-8.1093,-8.1093,-8.1093,-8.1093,-8.1093,-8.1093,-8.1093,-8.1093,-8.1093,-8.1093,-8.1093,-8.1093,-8.1093,-8.1154,-8.1214,-8.1214,-8.1249,-8.1347,-8.1478,-8.1491,-8.1491,-8.1491,-8.1491,-8.1491,-8.1491,-8.1491,-8.1491,-8.1465,-8.0691,-8.0188,-8.015,-7.9415,-7.9376,-8.015,-7.9415,-7.8989,-7.895,-7.8099,-7.7248,-7.6397,-7.6397,-7.6397,-6.959,-7.1321,-7.3091,-7.5091,-7.6015,-7.6553,-7.7092,-7.7207,-7.713,-7.6899,-7.6399,-7.5899,-7.563,-7.5361,-7.5707,-7.74,-7.813,-7.9285,-8.1593,-8.2631,-8.3247,-8.3555,-8.4093,-8.4247,-8.367,-8.4632,-8.5286,-8.5286,-8.5786,-8.6094,-8.6094,-8.6094,-8.6094,-8.6094,-8.6094,-8.6094,-8.6094,-8.6094,-8.6094,-8.6094,-8.5555,-8.5286,-8.5286,-8.4401,-8.3401,-8.2285,-8.2285,-8.1823,-8.1093,-8.1093,-8.1093,-8.1093,-8.1093,-8.1093,-8.1093,-8.1093,-8.1093,-8.1093,-8.1093,-8.1093,-8.1093,-8.1093,-8.1093,-8.1093,-8.1093,-8.1093,-8.1093,-8.1093,-8.1093,-8.1093,-8.1093,-8.1093,-8.1093,-8.1093,-8.1093,-8.1093,-8.1093,-8.1093,-8.1093,-8.1093,-8.1093,-8.1093,-8.1093,-8.1108,-8.1154,-8.1199,-8.1277,-8.1374,-8.1427,-8.1466,-8.1491,-8.1491,-8.1491,-8.1491,-8.1491,-8.1491,-8.1491,-8.1491,-8.122,-8.1078,-8.1078,-8.0807,-8.0498,-8.0227,-7.9918,-7.926,-7.8138,-7.7829,-7.7248,-7.6397,-7.6397,-7.6397,-7.1206,-7.286,-7.4476,-7.6746,-7.7515,-7.7861,-7.8361,-7.8284,-7.79,-7.74,-7.613,-7.4938,-7.4361,-7.4014,-7.4361,-7.6092,-7.7323,-7.8938,-8.1516,-8.2593,-8.3131,-8.3131,-8.3901,-8.4093,-8.3208,-8.4209,-8.4901,-8.4901,-8.567,-8.5978,-8.5709,-8.594,-8.5978,-8.567,-8.594,-8.6094,-8.6094,-8.6094,-8.6094,-8.6094,-8.5286,-8.4747,-8.4401,-8.3516,-8.267,-8.1862,-8.1862,-8.1593,-8.1093,-8.1093,-8.1093,-8.1093,-8.1093,-8.1093,-8.1093,-8.1093,-8.1093,-8.1093,-8.1093,-8.1093,-8.1093,-8.1093,-8.1093,-8.1093,-8.1093,-8.1093,-8.1093,-8.1093,-8.1093,-8.1093,-8.1093,-8.1093,-8.1093,-8.1093,-8.1093,-8.1093,-8.1093,-8.1093,-8.1093,-8.1093,-8.1093,-8.1093,-8.1093,-8.1093,-8.1108,-8.1169,-8.1234,-8.1333,-8.1387,-8.144,-8.1466,-8.1491,-8.1491,-8.1491,-8.1491,-8.1491,-8.1491,-8.1491,-8.1491,-8.1491,-8.1491,-8.1194,-8.0769,-8.0227,-7.9608,-7.8796,-7.7713,-7.7403,-7.6939,-7.6397,-7.6397,-7.6397,-7.2668,-7.4168,-7.5245,-7.6976,-7.7977,-7.8554,-7.8554,-7.7977,-7.7361,-7.7207,-7.5207,-7.3476,-7.3322,-7.2706,-7.2745,-7.4437,-7.6245,-7.8284,-8.0823,-8.19,-8.2401,-8.2362,-8.3131,-8.3324,-8.2439,-8.3901,-8.4901,-8.4901,-8.567,-8.5786,-8.5016,-8.5709,-8.5747,-8.4978,-8.5709,-8.6094,-8.6094,-8.6094,-8.6094,-8.6094,-8.5247,-8.4401,-8.3555,-8.2631,-8.1823,-8.1093,-8.1093,-8.1093,-8.1093,-8.1093,-8.1093,-8.1093,-8.1093,-8.1093,-8.1093,-8.1093,-8.1093,-8.1093,-8.1093,-8.1093,-8.1093,-8.1093,-8.1093,-8.1093,-8.1093,-8.1093,-8.1093,-8.1093,-8.1093,-8.1093,-8.1093,-8.1093,-8.1093,-8.1093,-8.1093,-8.1093,-8.1093,-8.1093,-8.1093,-8.1093,-8.1093,-8.1093,-8.1093,-8.1093,-8.1093,-8.1093,-8.1154,-8.122,-8.136,-8.1387,-8.1427,-8.1491,-8.1491,-8.1491,-8.1491,-8.1491,-8.1491,-8.1491,-8.1491,-8.1491,-8.1491,-8.0653,-8.0188,-8.015,-7.8525,-7.7674,-7.7635,-7.6784,-7.6397,-7.6397,-7.6397,-7.6397,-7.4014,-7.5476,-7.7053,-7.8746,-7.9323,-7.9477,-7.9477,-7.9323,-7.8438,-7.5899,-7.4361,-7.2937,-7.1014,-7.1514,-7.2745,-7.4437,-7.7207,-7.9823,-8.1747,-8.3285,-8.4016,-8.3362,-8.4055,-8.4247,-8.3362,-8.4247,-8.4901,-8.4901,-8.567,-8.6017,-8.5786,-8.5978,-8.6017,-8.5786,-8.5978,-8.6094,-8.6094,-8.6094,-8.6094,-8.6094,-8.4632,-8.3824,-8.3555,-8.2093,-8.1285,-8.1093,-8.1093,-8.1093,-8.1093,-8.1093,-8.1093,-8.1093,-8.1093,-8.1093,-8.1093,-8.1093,-8.1093,-8.1093,-8.1093,-8.1093,-8.1093,-8.1093,-8.1093,-8.1093,-8.1093,-8.1093,-8.1093,-8.1093,-8.1093,-8.1093,-8.1093,-8.1093,-8.1093,-8.1093,-8.1093,-8.1093,-8.1093,-8.1093,-8.1093,-8.1093,-8.1093,-8.1093,-8.1093,-8.1093,-8.1093,-8.1093,-8.1108,-8.1154,-8.1258,-8.1333,-8.14,-8.1427,-8.1466,-8.1491,-8.1491,-8.1491,-8.1491,-8.1491,-8.1491,-8.1491,-8.1491,-8.0653,-7.9918,-7.9337,-7.8254,-7.7365,-7.6707,-7.6514,-7.6397,-7.6397,-7.6397,-7.6397,-7.5938,-7.7361,-7.8631,-7.9592,-8.0092,-8.0092,-7.8977,-7.84,-7.7284,-7.4245,-7.236,-7.0821,-6.9398,-7.0206,-7.1514,-7.2822,-7.6515,-7.9823,-8.1516,-8.3593,-8.4709,-8.4247,-8.4901,-8.5093,-8.4247,-8.4939,-8.5286,-8.4939,-8.567,-8.594,-8.5593,-8.5901,-8.594,-8.5593,-8.594,-8.6094,-8.6094,-8.6094,-8.6094,-8.6094,-8.4401,-8.3593,-8.3516,-8.1862,-8.1093,-8.1093,-8.1093,-8.1093,-8.1093,-8.1093,-8.1093,-8.1093,-8.1093,-8.1093,-8.1093,-8.1093,-8.1093,-8.1093,-8.1093,-8.1093,-8.1093,-8.1093,-8.1093,-8.1093,-8.1093,-8.1093,-8.1093,-8.1093,-8.1093,-8.1093,-8.1093,-8.1093,-8.1093,-8.1093,-8.1093,-8.1093,-8.1093,-8.1093,-8.1093,-8.1093,-8.1093,-8.1093,-8.1093,-8.1093,-8.1093,-8.1093,-8.1093,-8.1108,-8.1154,-8.1273,-8.1319,-8.1387,-8.1427,-8.1466,-8.1491,-8.1491,-8.1491,-8.1491,-8.1491,-8.1349,-8.0962,-8.0111,-7.9299,-7.8448,-7.7558,-7.69,-7.6397,-7.6397,-7.6397,-7.6397,-7.6397,-7.6397,-7.8015,-7.9208,-7.9823,-7.9939,-8.0407,-8.02,-7.7707,-7.6408,-7.4971,-7.2283,-6.9937,-6.8308,-6.8129,-6.8859,-6.986,-7.0898,-7.5245,-7.9131,-8.1016,-8.3439,-8.5055,-8.5055,-8.567,-8.5786,-8.4978,-8.5517,-8.5593,-8.4786,-8.5363,-8.5478,-8.4747,-8.5517,-8.567,-8.5093,-8.5747,-8.6094,-8.6094,-8.6094,-8.6094,-8.6094,-8.4401,-8.3593,-8.3516,-8.1862,-8.1093,-8.1093,-8.1093,-8.1093,-8.1093,-8.1093,-8.1093,-8.1093,-8.1093,-8.1093,-8.1093,-8.1093,-8.1093,-8.1093,-8.1093,-8.1093,-8.1093,-8.1093,-8.1093,-8.1093,-8.1093,-8.1093,-8.1093,-8.1093,-8.1093,-8.1093,-8.1093,-8.1093,-8.1093,-8.1093,-8.1093,-8.1093,-8.1093,-8.1093,-8.1093,-8.1093,-8.1093,-8.1093,-8.1093,-8.1093,-8.1093,-8.1093,-8.1093,-8.1093,-8.1093,-8.1169,-8.122,-8.136,-8.1387,-8.1414,-8.1478,-8.1491,-8.1465,-8.1349,-8.1349,-8.0962,-8.0072,-7.926,-7.8486,-7.7713,-7.6823,-7.6397,-7.6397,-7.6397,-7.6397,-7.6397,-7.6397,-7.6397,-7.9092,-7.9669,-7.9977,-8.0708,-8.0153,-7.8867,-7.6724,-7.5302,-7.3412,-6.9805,-6.8706,-6.7975,-6.659,-6.759,-6.936,-7.1591,-7.563,-7.9323,-8.1747,-8.4286,-8.5901,-8.5901,-8.6017,-8.5786,-8.4978,-8.5016,-8.4747,-8.3901,-8.3939,-8.3978,-8.3824,-8.4632,-8.5363,-8.5901,-8.6017,-8.6094,-8.6094,-8.6094,-8.6094,-8.6094,-8.4401,-8.3593,-8.3516,-8.1862,-8.1093,-8.1093,-8.1093,-8.1093,-8.1093,-8.1093,-8.1093,-8.1093,-8.1093,-8.1093,-8.1093,-8.1093,-8.1093,-8.1093,-8.1093,-8.1093,-8.1093,-8.1093,-8.1093,-8.1093,-8.1093,-8.1093,-8.1093,-8.1093,-8.1093,-8.1093,-8.1093,-8.1093,-8.1093,-8.1093,-8.1093,-8.1093,-8.1093,-8.1093,-8.1093,-8.1093,-8.1093,-8.1093,-8.1093,-8.1093,-8.1093,-8.1093,-8.1093,-8.1093,-8.1093,-8.1169,-8.1229,-8.1205,-8.1319,-8.14,-8.1414,-8.1466,-8.1194,-8.0459,-8.042,-8.0072,-7.9221,-7.837,-7.7829,-7.7713,-7.6823,-7.6397,-7.6397,-7.6397,-7.6397,-7.6397,-7.6397,-7.6397,-8.0015,-8.0477,-8.0507,-8.0673,-7.9887,-7.8193,-7.4813,-7.3204,-7.1342,-6.7315,-6.6468,-6.63,-6.5681,-6.7333,-6.9078,-7.0063,-7.4514,-7.8438,-8.0092,-8.2901,-8.5132,-8.6017,-8.6094,-8.5786,-8.4978,-8.4901,-8.4362,-8.3016,-8.2901,-8.3131,-8.3555,-8.4439,-8.5286,-8.6055,-8.6094,-8.6094,-8.6094,-8.6094,-8.6094,-8.6094,-8.4401,-8.3593,-8.3516,-8.1862,-8.1093,-8.1093,-8.1093,-8.1093,-8.1093,-8.1093,-8.1093,-8.1093,-8.1093,-8.1093,-8.1093,-8.1093,-8.1093,-8.1093,-8.1093,-8.1093,-8.1093,-8.1093,-8.1093,-8.1093,-8.1093,-8.1093,-8.1093,-8.1093,-8.1093,-8.1093,-8.1093,-8.1093,-8.1093,-8.1093,-8.1093,-8.1093,-8.1093,-8.1093,-8.1093,-8.1093,-8.1093,-8.1093,-8.1093,-8.1093,-8.1093,-8.1093,-8.1093,-8.1093,-8.1093,-8.1124,-8.1169,-8.1214,-8.1277,-8.136,-8.1387,-8.1028,-8.0653,-8.0227,-7.9801,-7.9183,-7.837,-7.7906,-7.7481,-7.7016,-7.6591,-7.6397,-7.6397,-7.6397,-7.6397,-7.6397,-7.6397,-7.6397,-8.0577,-8.1045,-8.0877,-8.0503,-7.9477,-7.7417,-7.3172,-7.1387,-6.9455,-6.5515,-6.4769,-6.4942,-6.5253,-6.7018,-6.8416,-6.8396,-7.2783,-7.663,-7.7784,-8.1054,-8.3862,-8.5401,-8.5747,-8.5517,-8.4709,-8.4439,-8.3708,-8.217,-8.2054,-8.2401,-8.3285,-8.4324,-8.5209,-8.5824,-8.6017,-8.6094,-8.6094,-8.6094,-8.6094,-8.6094,-8.4401,-8.3593,-8.3516,-8.1862,-8.1093,-8.1093,-8.1093,-8.1093,-8.1093,-8.1093,-8.1093,-8.1093,-8.1093,-8.1093,-8.1093,-8.1093,-8.1093,-8.1093,-8.1093,-8.1093,-8.1093,-8.1093,-8.1093,-8.1093,-8.1093,-8.1093,-8.1093,-8.1093,-8.1093,-8.1093,-8.1093,-8.1093,-8.1093,-8.1093,-8.1093,-8.1093,-8.1093,-8.1093,-8.1093,-8.1093,-8.1093,-8.1093,-8.1093,-8.1093,-8.1093,-8.1093,-8.1093,-8.1093,-8.1093,-8.1093,-8.1124,-8.1184,-8.1234,-8.1242,-8.1117,-8.0576,-8.0072,-7.9685,-7.9067,-7.8332,-7.7442,-7.7403,-7.7094,-7.6397,-7.6397,-7.6397,-7.6397,-7.6397,-7.6397,-7.6397,-7.6397,-7.6397,-8.0322,-8.0788,-8.0428,-8.0391,-7.8559,-7.5954,-7.2881,-7.0671,-6.8412,-6.5347,-6.5009,-6.5253,-6.5284,-6.58,-6.6679,-6.8154,-7.0783,-7.3514,-7.5899,-7.9785,-8.2747,-8.3708,-8.4516,-8.467,-8.3785,-8.3016,-8.217,-8.1285,-8.1208,-8.1554,-8.2362,-8.4016,-8.4939,-8.5016,-8.5709,-8.6094,-8.6094,-8.6094,-8.6094,-8.6094,-8.4401,-8.3593,-8.3516,-8.1862,-8.1093,-8.1093,-8.1093,-8.1093,-8.1093,-8.1093,-8.1093,-8.1093,-8.1093,-8.1093,-8.1093,-8.1093,-8.1093,-8.1093,-8.1093,-8.1093,-8.1093,-8.1093,-8.1093,-8.1093,-8.1093,-8.1093,-8.1093,-8.1093,-8.1093,-8.1093,-8.1093,-8.1093,-8.1093,-8.1093,-8.1093,-8.1093,-8.1093,-8.1093,-8.1093,-8.1093,-8.1093,-8.1093,-8.1093,-8.1093,-8.1093,-8.1093,-8.1093,-8.1093,-8.1093,-8.1093,-8.1093,-8.1108,-8.1205,-8.101,-8.0267,-8.0228,-7.9569,-7.8022,-7.7867,-7.7442,-7.6552,-7.6514,-7.6475,-7.6397,-7.6397,-7.6397,-7.6397,-7.6397,-7.6397,-7.6397,-7.6397,-7.6397,-7.8752,-7.9722,-7.9899,-7.9643,-7.7658,-7.5,-7.207,-6.964,-6.727,-6.4587,-6.4172,-6.4407,-6.4875,-6.5493,-6.6323,-6.7422,-6.9744,-7.2129,-7.4207,-7.7246,-8.0169,-8.2554,-8.3131,-8.3401,-8.3555,-8.2824,-8.1977,-8.117,-8.1554,-8.1939,-8.2285,-8.3439,-8.4362,-8.4901,-8.567,-8.6094,-8.6094,-8.6094,-8.5863,-8.5363,-8.417,-8.3324,-8.2785,-8.1631,-8.1093,-8.1093,-8.1093,-8.1093,-8.1093,-8.1093,-8.1093,-8.1093,-8.1093,-8.1093,-8.1093,-8.1093,-8.1093,-8.1093,-8.1093,-8.1093,-8.1093,-8.1093,-8.1093,-8.1093,-8.1093,-8.1093,-8.1093,-8.1093,-8.1093,-8.1093,-8.1093,-8.1093,-8.1093,-8.1093,-8.1093,-8.1093,-8.1093,-8.1093,-8.1093,-8.1093,-8.1093,-8.1093,-8.1093,-8.1093,-8.1093,-8.1093,-8.1093,-8.1093,-8.1093,-8.1139,-8.1184,-8.1229,-8.1249,-8.0958,-8.0098,-7.97,-7.8989,-7.779,-7.721,-7.6746,-7.6397,-7.6397,-7.6397,-7.6397,-7.6397,-7.6397,-7.6397,-7.6397,-7.6397,-7.6397,-7.6397,-7.6397,-7.6676,-7.803,-7.8663,-7.835,-7.6504,-7.4,-7.1181,-6.8853,-6.6611,-6.4099,-6.3714,-6.4058,-6.4932,-6.5486,-6.6097,-6.6947,-6.8821,-7.0667,-7.2168,-7.4784,-7.7592,-8.0477,-8.1016,-8.1631,-8.2747,-8.2324,-8.1708,-8.1131,-8.1631,-8.2054,-8.2285,-8.3131,-8.3978,-8.4863,-8.567,-8.6094,-8.6094,-8.5863,-8.5478,-8.4901,-8.3747,-8.2901,-8.2285,-8.1477,-8.1093,-8.1093,-8.1093,-8.1093,-8.1093,-8.1093,-8.1093,-8.1093,-8.1093,-8.1093,-8.1093,-8.1093,-8.1093,-8.1093,-8.1093,-8.1093,-8.1093,-8.1093,-8.1093,-8.1093,-8.1093,-8.1093,-8.1093,-8.1093,-8.1093,-8.1093,-8.1093,-8.1093,-8.1093,-8.1093,-8.1093,-8.1093,-8.1093,-8.1093,-8.1093,-8.1093,-8.1093,-8.1093,-8.1093,-8.1093,-8.1093,-8.1093,-8.1093,-8.1108,-8.1124,-8.1184,-8.1244,-8.1277,-8.1305,-8.0985,-8.0111,-7.9391,-7.8641,-7.7751,-7.6862,-7.6397,-7.6397,-7.6397,-7.6397,-7.6397,-7.6397,-7.6397,-7.6397,-7.6397,-7.6397,-7.6397,-7.6397,-7.6397,-7.4248,-7.5658,-7.6549,-7.6525,-7.496,-7.2767,-7.0289,-6.8444,-6.6611,-6.4099,-6.3937,-6.4574,-6.5782,-6.5596,-6.5709,-6.6897,-6.7859,-6.8744,-6.9629,-7.2629,-7.5399,-7.713,-7.8054,-7.9208,-8.0977,-8.1131,-8.1093,-8.1093,-8.1093,-8.1477,-8.2247,-8.3131,-8.3978,-8.4863,-8.567,-8.6094,-8.6094,-8.5324,-8.4901,-8.4901,-8.3131,-8.2324,-8.2285,-8.1477,-8.1093,-8.1093,-8.1093,-8.1093,-8.1093,-8.1093,-8.1093,-8.1093,-8.1093,-8.1093,-8.1093,-8.1093,-8.1093,-8.1093,-8.1093,-8.1093,-8.1093,-8.1093,-8.1093,-8.1093,-8.1093,-8.1093,-8.1093,-8.1093,-8.1093,-8.1093,-8.1093,-8.1093,-8.1093,-8.1093,-8.1093,-8.1093,-8.1093,-8.1093,-8.1093,-8.1093,-8.1093,-8.1093,-8.1093,-8.1093,-8.1093,-8.1093,-8.1093,-8.1124,-8.1199,-8.1214,-8.1244,-8.1277,-8.1347,-8.1079,-8.0253,-7.9453,-7.8641,-7.7751,-7.6862,-7.6397,-7.6397,-7.6397,-7.6397,-7.6397,-7.6397,-7.6397,-7.6397,-7.6397,-7.6397,-7.6397,-7.6397,-7.6397,-7.0845,-7.1984,-7.2659,-7.2659,-7.1752,-7.0512,-6.915,-6.806,-6.6945,-6.5571,-6.5425,-6.578,-6.6654,-6.6266,-6.6478,-6.8548,-6.8629,-6.8898,-7.0321,-7.2476,-7.4514,-7.6207,-7.8707,-8.0477,-8.1054,-8.1093,-8.1093,-8.1093,-8.1593,-8.2285,-8.3131,-8.3439,-8.3978,-8.4863,-8.567,-8.5863,-8.5286,-8.5016,-8.4286,-8.3131,-8.2554,-8.2016,-8.1477,-8.1208,-8.1093,-8.1093,-8.1093,-8.1093,-8.1093,-8.1093,-8.1093,-8.1093,-8.1093,-8.1093,-8.1093,-8.1093,-8.1093,-8.1093,-8.1093,-8.1093,-8.1093,-8.1093,-8.1093,-8.1093,-8.1093,-8.1093,-8.1093,-8.1093,-8.1093,-8.1093,-8.1093,-8.1093,-8.1093,-8.1093,-8.1093,-8.1093,-8.1093,-8.1093,-8.1093,-8.1093,-8.1093,-8.1093,-8.1093,-8.1093,-8.1093,-8.1093,-8.1093,-8.1124,-8.1199,-8.1258,-8.1277,-8.136,-8.1427,-8.1105,-8.019,-7.9429,-7.8641,-7.7751,-7.6862,-7.6397,-7.6397,-7.6397,-7.6397,-7.6397,-7.6397,-7.6397,-7.6397,-7.6397,-7.6397,-7.6397,-7.6397,-7.6397,-6.7911,-6.915,-6.9967,-6.9967,-6.9373,-6.8556,-6.78,-6.7205,-6.6611,-6.5794,-6.5868,-6.6358,-6.7291,-6.69,-6.7131,-6.9144,-6.9163,-6.936,-7.0706,-7.2129,-7.363,-7.5322,-7.8246,-8.0131,-8.0131,-8.0708,-8.1093,-8.1093,-8.1862,-8.267,-8.3555,-8.3593,-8.3978,-8.4863,-8.5055,-8.5055,-8.4901,-8.4247,-8.3362,-8.2285,-8.1977,-8.1593,-8.1093,-8.1093,-8.1093,-8.1093,-8.1093,-8.1093,0.0,-8.1093,-8.1093,-8.1093,-8.1093,-8.1093,-8.1093,-8.1093,-8.1093,-8.1093,-8.1093,-8.1093,-8.1093,-8.1093,-8.1093,-8.1093,-8.1093,-8.1093,-8.1093,-8.1093,-8.1093,-8.1093,-8.1093,-8.1093,-8.1093,-8.1093,-8.1093,-8.1108,-8.1139,-8.1108,-8.1108,-8.1139,-8.1108,-8.1093,-8.1093,-8.1093,-8.1093,-8.1093,-8.1093,-8.1139,-8.1244,-8.1263,-8.1333,-8.1427,-8.1478,-8.113,-8.0203,-7.9429,-7.8641,-7.7751,-7.6862,-7.6397,-7.6397,-7.6397,-7.6397,-7.6397,-7.6397,-7.6397,-7.6397,-7.6397,-7.6397,-7.6397,-7.6397,-7.6397,0.0,-6.7094,-6.8246,-6.8246,-6.7725,-6.702,-6.6202,-6.6054,0.0,-6.5125,-6.5645,-6.6551,-6.775,-6.7577,-6.767,-6.8979,-6.9457,-6.9986,-7.086,-7.1783,-7.3014,-7.4707,-7.7015,-7.8477,-7.84,-8.0092,-8.1131,-8.1016,-8.1939,-8.2785,-8.3478,-8.3555,-8.3978,-8.4786,-8.3901,-8.3824,-8.4709,-8.3093,-8.2285,-8.2208,-8.1477,-8.1093,-8.1093,-8.1093,-8.1093,-8.1093,-8.1093,-8.1093,-8.1093,-8.1093,-8.1093,-8.1093,-8.1093,-8.1093,-8.1093,-8.1093,-8.1093,-8.1093,-8.1093,-8.1093,-8.1093,-8.1093,-8.1093,-8.1093,-8.1093,-8.1093,-8.1093,-8.1093,-8.1093,-8.1093,-8.1093,-8.1093,-8.1093,-8.1093,-8.1093,-8.1108,-8.1184,-8.1154,-8.1124,-8.1184,-8.1154,-8.1093,-8.1093,-8.1093,-8.1108,-8.1108,-8.1108,-8.1169,-8.1277,-8.1291,-8.1347,-8.1478,-8.1491,-8.1117,-8.0188,-7.9415,-7.8641,-7.7751,-7.6862,-7.6397,-7.6397,-7.6397,-7.6397,-7.6397,-7.6397,-7.6397,-7.6397,-7.6397,-7.6397,-7.6397,-7.6397,-7.6397,-6.5176,0.0,-6.5659,-6.5659,-6.6054,-6.6165,0.0,-6.5645,-6.6239,-6.6648,-6.6871,-6.7384,-6.8591,-6.8178,-6.8165,-6.9747,-6.9566,-6.9858,-7.164,-7.3168,-7.4745,-7.6476,-7.7746,-7.8246,-7.763,-8.0285,-8.1477,-8.0208,-8.2708,-8.3785,-8.267,-8.3247,-8.367,-8.3901,-8.2439,-8.2093,-8.2901,-8.2516,-8.1977,-8.1362,-8.1208,-8.1093,-8.1093,-8.1093,-8.1093,-8.1093,-8.1093,-8.1093,-8.1093,-8.1093,-8.1093,-8.1093,-8.1093,-8.1093,-8.1093,-8.1093,-8.1093,-8.1093,-8.1093,-8.1093,-8.1093,-8.1093,-8.1093,-8.1093,-8.1093,-8.1093,-8.1093,-8.1093,-8.1093,-8.1093,-8.1093,-8.1093,-8.1093,-8.1093,-8.1093,-8.1093,-8.1124,-8.1154,-8.1169,-8.1124,-8.1154,-8.1169,-8.1108,-8.1139,-8.1184,-8.1184,-8.1229,-8.1263,-8.136,-8.1374,-8.14,-8.1491,-8.1491,-8.0923,-7.9415,-7.9105,-7.8641,-7.7751,-7.6862,-7.6397,-7.6397,-7.6397,-7.6397,-7.6397,-7.6397,-7.6397,-7.6397,-7.6397,-7.6397,-7.6397,-7.6397,-7.6397,-6.5362,-6.5362,-6.5311,-6.4879,-6.5139,-6.5274,-6.4433,-6.4902,-6.5756,-6.6574,-6.7057,-6.7611,-6.8637,-6.89,-6.9127,-6.9645,-7.0352,-7.1373,-7.3125,-7.413,-7.5207,-7.6553,-7.7438,-7.7784,-7.7323,-7.9246,-8.0362,-7.9862,-8.19,-8.2901,-8.2324,-8.2747,-8.2978,-8.2978,-8.1785,-8.1477,-8.2285,-8.1939,-8.1516,-8.1093,-8.1093,-8.1093,-8.1093,-8.1093,-8.1093,-8.1093,-8.1093,-8.1093,-8.1093,-8.1093,-8.1093,-8.1093,-8.1093,-8.1093,-8.1093,-8.1093,-8.1093,-8.1093,-8.1093,-8.1093,-8.1093,-8.1093,-8.1093,-8.1093,-8.1093,-8.1093,-8.1093,-8.1093,-8.1093,-8.1093,-8.1093,-8.1093,-8.1093,-8.1093,-8.1093,-8.1108,-8.1184,-8.1184,-8.1169,-8.1199,-8.1184,-8.1154,-8.1154,-8.1184,-8.1229,-8.122,-8.1263,-8.1319,-8.1387,-8.14,-8.1427,-8.1491,-8.1491,-8.0962,-7.9647,-7.9569,-7.9028,-7.779,-7.7248,-7.6978,-7.6978,-7.6978,-7.6823,-7.6397,-7.6397,-7.6397,-7.6397,-7.6397,-7.6397,-7.6397,-7.6397,-7.6397,-6.5807,-6.6351,-6.6425,-6.5436,-6.5176,-6.4953,-6.4196,-6.4508,-6.5213,-6.6128,-6.6834,-6.7577,-6.8506,-6.9398,-6.9866,-6.9332,-7.1371,-7.344,-7.474,-7.5014,-7.5322,-7.5938,-7.6784,-7.7207,-7.6938,-7.7977,-7.89,-7.94,-8.0477,-8.1323,-8.19,-8.2054,-8.2131,-8.2131,-8.1477,-8.1439,-8.2093,-8.1439,-8.1093,-8.1093,-8.1093,-8.1093,-8.1093,-8.1093,-8.1093,-8.1093,-8.1093,0.0,-8.1093,-8.1093,-8.1093,-8.1093,-8.1093,-8.1093,-8.1093,-8.1093,-8.1093,-8.1093,-8.1093,-8.1093,-8.1093,-8.1093,-8.1093,-8.1093,-8.1093,-8.1093,-8.1093,-8.1093,-8.1093,-8.1093,-8.1093,-8.1093,-8.1093,-8.1093,-8.1093,-8.1139,-8.1234,-8.1214,-8.1169,-8.1263,-8.1229,-8.1169,-8.1214,-8.1205,-8.1234,-8.1291,-8.1319,-8.1347,-8.14,-8.1414,-8.144,-8.1491,-8.1491,-8.1155,-8.0266,-8.0188,-7.9608,-7.8177,-7.7983,-7.7829,-7.7713,-7.7558,-7.7132,-7.6397,-7.6397,-7.6397,-7.6397,-7.6397,-7.6397,-7.6397,-7.6397,-7.6397,-6.6054,-6.7553,-6.8778,-6.7317,-6.6945,-6.6722,-6.5905,-6.5831,-6.6128,-6.6945,-6.7205,-6.7763,-6.9224,-6.9112,-6.9066,-6.9963,-7.2225,-7.4353,-7.5624,-7.6438,-7.6669,-7.6053,-7.6784,-7.6707,-7.5245,-7.7823,-7.9054,-7.7784,-7.9823,-8.0823,-8.0208,-8.09,-8.1285,-8.1285,-8.117,-8.117,-8.1285,-8.117,-8.1093,-8.1093,-8.1093,-8.1093,-8.1093,-8.1093,-8.1093,-8.1093,0.0,-8.1093,-8.1093,-8.1093,-8.1093,-8.1093,-8.1093,-8.1093,-8.1093,-8.1093,-8.1093,-8.1093,-8.1093,-8.1093,-8.1093,-8.1093,-8.1093,-8.1093,-8.1093,-8.1093,-8.1093,-8.1093,-8.1093,-8.1093,-8.1093,-8.1093,-8.1093,-8.1093,-8.1093,-8.1124,-8.1214,-8.122,-8.1263,-8.1277,-8.1319,-8.1333,-8.1277,-8.1319,-8.136,-8.1374,-8.1427,-8.1466,-8.1478,-8.1478,-8.1491,-8.1491,-8.1491,-8.1155,-8.0266,-8.0188,-8.0111,-7.984,-7.9183,-7.8486,-7.7713,-7.6978,-7.6552,-7.6397,-7.6397,-7.6397,-7.6397,-7.6397,-7.6397,-7.6397,-7.6397,-7.6397,-6.6091,-6.754,-6.8964,-6.8667,-6.8617,-6.8394,-6.7577,-6.7391,-6.7503,-6.7874,-6.7924,-6.8296,-6.9484,-6.9975,-7.0788,-7.2694,-7.3441,-7.4323,-7.5802,-7.6322,-7.6438,-7.6053,-7.6361,-7.6284,-7.5476,-7.6823,-7.763,-7.7323,-7.8361,-7.9054,-7.9092,-7.9939,-8.04,-8.04,-8.0862,-8.1093,-8.1093,-8.1093,-8.1093,-8.1093,-8.1093,-8.1093,-8.1093,-8.1093,-8.1093,-8.1093,0.0,-8.1093,-8.1093,-8.1093,-8.1093,-8.1093,-8.1093,-8.1093,-8.1093,-8.1093,-8.1093,-8.1093,-8.1093,-8.1093,-8.1093,-8.1093,-8.1093,-8.1093,-8.1093,-8.1093,-8.1093,-8.1093,-8.1093,-8.1093,-8.1093,-8.1093,-8.1093,-8.1093,-8.1124,-8.1184,-8.1258,-8.1263,-8.1305,-8.1333,-8.1347,-8.1333,-8.1347,-8.1374,-8.1414,-8.144,-8.1478,-8.1491,-8.1491,-8.1491,-8.1491,-8.1491,-8.1491,-8.1336,-8.0962,-8.0923,-8.0691,-8.0227,-7.9453,-7.8834,-7.8409,-7.7094,-7.6397,-7.6397,-7.6397,-7.6397,-7.6397,-7.6397,-7.6397,-7.6397,-7.6397,-7.6397,-6.6351,-6.7577,-6.8927,-6.9558,-6.9558,-6.9335,-6.9113,-6.8927,-6.8816,-6.9001,-6.9038,-6.9224,-6.9855,-7.0873,-7.2251,-7.4237,-7.4219,-7.4444,-7.5825,-7.6322,-7.6515,-7.6322,-7.6284,-7.6284,-7.6284,-7.613,-7.6284,-7.6938,-7.6976,-7.7438,-7.8438,-7.9131,-7.9669,-8.0092,-8.0746,-8.1093,-8.1093,-8.1093,-8.1093,-8.1093,-8.1093,-8.1093,-8.1093,-8.1093,-8.1093,-8.1093,-8.1093,-8.1093,-8.1093,-8.1093,-8.1093,-8.1093,-8.1093,-8.1093,-8.1093,-8.1093,-8.1093,-8.1093,-8.1093,-8.1093,-8.1093,-8.1093,-8.1093,-8.1093,-8.1093,-8.1093,-8.1093,-8.1093,-8.1093,-8.1093,-8.1093,-8.1093,-8.1093,-8.1124,-8.1169,-8.1244,-8.1291,-8.1319,-8.1333,-8.14,-8.1374,-8.136,-8.1414,-8.1414,-8.144,-8.1491,-8.1491,-8.1491,-8.1491,-8.1491,-8.1491,-8.1491,-8.1491,-8.1491,-8.1491,-8.1491,-8.122,-8.0536,-7.9569,-7.8989,-7.8989,-7.7326,-7.6397,-7.6397,-7.6397,-7.6397,-7.6397,-7.6397,-7.6397,-7.6397,-7.6397,-7.6397,-6.702,-6.8394,-6.9633,-6.967,-6.9113,-6.8964,-7.0375,-7.0152,-6.9818,-7.0561,-7.071,-7.0747,-7.0784,-7.1247,-7.1767,-7.2337,-7.4027,-7.5446,-7.5932,-7.7323,-7.8054,-7.7284,-7.7207,-7.7207,-7.7207,-7.6476,-7.6015,-7.6092,-7.6092,-7.6784,-7.84,-7.8554,-7.9323,-8.0977,-8.1054,-8.1093,-8.1093,-8.1093,-8.1093,-8.1093,-8.1093,-8.1093,-8.1093,-8.1093,-8.1093,-8.1093,-8.1093,-8.1093,-8.1093,-8.1093,-8.1093,-8.1093,-8.1093,-8.1093,-8.1093,-8.1093,-8.1093,-8.1093,-8.1093,-8.1093,-8.1093,-8.1093,-8.1093,-8.1093,-8.1093,-8.1093,-8.1093,-8.1093,-8.1093,-8.1093,-8.1093,-8.1093,-8.1108,-8.1184,-8.1214,-8.1258,-8.136,-8.1387,-8.1414,-8.1478,-8.1491,-8.1478,-8.1491,-8.1491,-8.1491,-8.1491,-8.1491,-8.1491,-8.1491,-8.1491,-8.1491,-8.1491,-8.1491,-8.1491,-8.1491,-8.1491,-8.1452,-8.1414,-7.9879,-7.8989,-7.8989,-7.7326,-7.6397,-7.6397,-7.6397,-7.6397,-7.6397,-7.6397,-7.6397,-7.6397,-7.6397,-7.6397,-6.7094,-6.8444,-6.9707,-6.9707,-6.9447,-6.9694,-7.1329,-7.1478,-7.118,-7.0932,-7.1329,-7.1616,-7.1397,-7.2281,-7.315,-7.3344,-7.4951,-7.6305,-7.6739,-7.7784,-7.84,-7.8092,-7.8054,-7.8054,-7.8054,-7.7284,-7.6823,-7.6823,-7.6823,-7.6861,-7.6938,-7.7938,-7.8554,-7.8707,-7.9208,-7.9477,-7.9477,-8.0015,-8.0285,-8.0285,-8.0823,-8.1093,-8.1093,-8.1093,-8.1093,-8.1093,-8.1093,-8.1093,-8.1093,-8.1093,-8.1093,-8.1093,-8.1093,-8.1093,-8.1093,-8.1093,-8.1093,-8.1093,-8.1093,-8.1093,-8.1093,-8.1093,-8.1093,-8.1093,-8.1093,-8.1093,-8.1093,-8.1093,-8.1093,-8.1093,-8.1093,-8.1124,-8.1169,-8.1199,-8.1249,-8.1333,-8.1387,-8.1427,-8.1466,-8.1491,-8.1491,-8.1491,-8.1491,-8.1491,-8.1491,-8.1491,-8.1491,-8.1491,-8.1491,-8.1491,-8.1491,-8.1491,-8.1491,-8.1491,-8.1491,-8.1491,-8.1491,-8.1491,-7.9918,-7.8989,-7.8989,-7.7326,-7.6397,-7.6397,-7.6397,-7.6397,-7.6397,-7.6397,-7.6397,-7.6397,-7.6397,-7.6397,-6.78,-6.8853,-6.9744,-7.0004,-6.9893,-7.014,-7.1837,-7.1961,-7.1775,-7.1701,-7.1961,-7.2137,-7.1989,-7.2981,-7.3914,-7.4094,-7.5391,-7.6536,-7.6831,-7.7592,-7.813,-7.813,-7.816,-7.8137,-7.8137,-7.742,-7.6934,-7.6934,-7.6934,-7.6804,-7.6467,-7.7521,-7.8006,-7.7669,-7.8207,-7.8477,-7.8477,-7.9092,-7.94,-7.94,-8.0285,-8.0823,-8.1093,-8.1093,-8.1093,-8.1093,-8.1093,-8.1093,-8.1093,-8.1093,-8.1093,-8.1093,-8.1093,-8.1093,-8.1093,-8.1093,-8.1093,-8.1093,-8.1093,-8.1093,-8.1093,-8.1093,-8.1093,-8.1093,-8.1093,-8.1093,-8.1093,-8.1093,-8.1093,-8.1093,-8.1093,-8.1154,-8.1214,-8.1244,-8.1305,-8.14,-8.1427,-8.1466,-8.1491,-8.1491,-8.1491,-8.1491,-8.1491,-8.1491,-8.1491,-8.1491,-8.1491,-8.1491,-8.1491,-8.1491,-8.1491,-8.1491,-8.1491,-8.1491,-8.1491,-8.1491,-8.1491,-8.1491,-7.9918,-7.8989,-7.8989,-7.7326,-7.6397,-7.6397,-7.6397,-7.6397,-7.6397,-7.6397,-7.6397,-7.6397,-7.6397,-7.6397,-6.9224,-6.9707,-6.9893,-7.0672,-7.0301,-7.0177,-7.1837,-7.1515,-7.1378,-7.3038,-7.2767,-7.2323,-7.2739,-7.3187,-7.3668,-7.4052,-7.5165,-7.6015,-7.6015,-7.6746,-7.7284,-7.7323,-7.7357,-7.7386,-7.7386,-7.6685,-7.6198,-7.6198,-7.6198,-7.6544,-7.7362,-7.7386,-7.7742,-7.8453,-7.8492,-7.8477,-7.8477,-7.8477,-7.8477,-7.8477,-7.9361,-8.0246,-8.1093,-8.1093,-8.1093,-8.1093,-8.1093,-8.1093,-8.1093,-8.1093,-8.1093,-8.1093,-8.1093,-8.1093,-8.1093,-8.1093,-8.1093,-8.1093,-8.1093,-8.1093,-8.1093,-8.1093,-8.1093,-8.1093,-8.1093,-8.1093,-8.1093,-8.1093,-8.1093,-8.1093,-8.1093,-8.1154,-8.1229,-8.1263,-8.1347,-8.1414,-8.1478,-8.1491,-8.1491,-8.1491,-8.1491,-8.1491,-8.1491,-8.1491,-8.1491,-8.1491,-8.1491,-8.1491,-8.1491,-8.1491,-8.1491,-8.1491,-8.1491,-8.1491,-8.1491,-8.1491,-8.1491,-8.1491,-7.9918,-7.8989,-7.8989,-7.7326,-7.6397,-7.6397,-7.6397,-7.6397,-7.6397,-7.6397,-7.6397,-7.6397,-7.6397,-7.6397,-6.858,-6.967,-7.045,-7.0115,-7.0772,-7.1589,-7.2098,-7.2023,-7.2109,-7.3175,-7.2994,-7.2646,-7.277,-7.3889,-7.4613,-7.418,-7.5165,-7.6207,-7.6823,-7.713,-7.7545,-7.8127,-7.8233,-7.8262,-7.8318,-7.7612,-7.7124,-7.7124,-7.7124,-7.6957,-7.6583,-7.7081,-7.7232,-7.6833,-7.6775,-7.6746,-7.6746,-7.7361,-7.7669,-7.7669,-7.8477,-7.9323,-8.0208,-8.0823,-8.1093,-8.1093,-8.1093,-8.1093,-8.1093,-8.1093,-8.1093,-8.1093,-8.1093,-8.1093,-8.1093,-8.1093,-8.1093,-8.1093,-8.1093,-8.1093,-8.1093,-8.1093,-8.1093,-8.1093,-8.1093,-8.1093,-8.1093,-8.1093,-8.1093,-8.1093,-8.1093,-8.1199,-8.1263,-8.1277,-8.1387,-8.1478,-8.1491,-8.1491,-8.1491,-8.1491,-8.1491,-8.1491,-8.1491,-8.1491,-8.1491,-8.1491,-8.1491,-8.1491,-8.1491,-8.1491,-8.1491,-8.1491,-8.1491,-8.1491,-8.1491,-8.1491,-8.1491,-8.1491,-7.9918,-7.8989,-7.8989,-7.7326,-7.6397,-7.6397,-7.6397,-7.6397,-7.6397,-7.6397,-7.6397,-7.6397,-7.6397,-7.6397,-6.9583,-7.0437,-7.0932,-7.1143,-7.1701,-7.2283,-7.2618,-7.2692,-7.2804,-7.3324,-7.334,-7.3327,-7.3527,-7.4504,-7.5209,-7.49,-7.5511,-7.6183,-7.6751,-7.6842,-7.7011,-7.7582,-7.7662,-7.769,-7.7743,-7.7344,-7.7048,-7.7048,-7.7048,-7.6804,-7.6276,-7.67,-7.6685,-7.6143,-7.6048,-7.6044,-7.6015,-7.6515,-7.6784,-7.6784,-7.763,-7.8284,-7.8861,-8.0054,-8.0592,-8.0592,-8.0939,-8.1093,-8.1093,-8.1093,-8.1093,-8.1093,-8.1093,-8.1093,-8.1093,-8.1093,-8.1093,-8.1093,-8.1093,-8.1093,-8.1093,-8.1093,-8.1093,-8.1093,-8.1093,-8.1093,-8.1093,-8.1093,-8.1093,-8.1093,-8.1093,-8.1214,-8.1291,-8.1291,-8.14,-8.1491,-8.1491,-8.1491,-8.1491,-8.1491,-8.1491,-8.1491,-8.1491,-8.1491,-8.1491,-8.1491,-8.1491,-8.1491,-8.1491,-8.1491,-8.1491,-8.1491,-8.1491,-8.1491,-8.1491,-8.1491,-8.1491,-8.1491,-8.0227,-7.9492,-7.9492,-7.7481,-7.6397,-7.6397,-7.6397,-7.6397,-7.6397,-7.6397,-7.6397,-7.6397,-7.6397,-7.6397,-7.1366,-7.1515,-7.1403,-7.2889,-7.2804,-7.2506,-7.3264,-7.345,-7.345,-7.345,-7.3811,-7.4243,-7.4705,-7.5074,-7.5518,-7.5947,-7.5991,-7.602,-7.609,-7.6104,-7.6131,-7.6198,-7.6263,-7.6301,-7.6313,-7.6362,-7.6397,-7.6397,-7.6397,-7.6374,-7.6313,-7.6301,-7.6238,-7.6104,-7.6104,-7.6062,-7.6015,-7.6015,-7.6015,-7.6015,-7.6784,-7.7169,-7.7246,-7.8938,-7.9708,-7.9862,-8.0708,-8.1093,-8.1093,-8.1093,-8.1093,-8.1093,-8.1093,-8.1093,-8.1093,-8.1093,-8.1093,-8.1093,-8.1093,-8.1093,-8.1093,-8.1093,-8.1093,-8.1093,-8.1093,-8.1093,-8.1093,-8.1093,-8.1093,-8.1093,-8.1093,-8.1214,-8.1291,-8.1291,-8.14,-8.1491,-8.1491,-8.1491,-8.1491,-8.1491,-8.1491,-8.1491,-8.1491,-8.1491,-8.1491,-8.1491,-8.1491,-8.1491,-8.1491,-8.1491,-8.1491,-8.1491,-8.1491,-8.1491,-8.1491,-8.1491,-8.1491,-8.1491,-8.0691,-8.0188,-8.0188,-7.7829,-7.6514,-7.6514,-7.6436,-7.6397,-7.6397,-7.6475,-7.6475,-7.6397,-7.6475,-7.6475,-7.0103,-7.1069,-7.1998,-7.2395,-7.2804,-7.3278,-7.3774,-7.3845,-7.3845,-7.3845,-7.4502,-7.5055,-7.5129,-7.5584,-7.5952,-7.6062,-7.6118,-7.6159,-7.6172,-7.6172,-7.6198,-7.6276,-7.6288,-7.6326,-7.6374,-7.6397,-7.6397,-7.6397,-7.6397,-7.6397,-7.6386,-7.6326,-7.6263,-7.6172,-7.6118,-7.6062,-7.6015,-7.6015,-7.6015,-7.6015,-7.6207,-7.6284,-7.6322,-7.8015,-7.9131,-7.9862,-8.0708,-8.1093,-8.1093,-8.1093,-8.1093,-8.1093,-8.1093,-8.1093,-8.1093,-8.1093,-8.1093,-8.1093,-8.1093,-8.1093,-8.1093,-8.1093,-8.1093,-8.1093,-8.1093,-8.1093,-8.1093,-8.1093,-8.1093,-8.1093,-8.1093,-8.1214,-8.1291,-8.1291,-8.14,-8.1491,-8.1491,-8.1491,-8.1491,-8.1491,-8.1491,-8.1491,-8.1491,-8.1491,-8.1491,-8.1491,-8.1491,-8.1491,-8.1491,-8.1491,-8.1491,-8.1491,-8.1491,-8.1491,-8.1491,-8.1491,-8.1491,-8.1491,-8.0691,-8.0188,-8.0188,-7.8409,-7.7403,-7.7403,-7.6746,-7.6397,-7.6397,-7.7094,-7.7055,-7.6397,-7.7094,-7.7055,-7.0586,-7.1218,-7.1814,-7.2807,-7.3366,-7.3787,-7.4259,-7.4481,-7.4609,-7.4609,-7.4999,-7.5327,-7.534,-7.5741,-7.6104,-7.6145,-7.6172,-7.6212,-7.6238,-7.625,-7.6276,-7.6338,-7.635,-7.6362,-7.6397,-7.6397,-7.6397,-7.6397,-7.6397,-7.6397,-7.6397,-7.6374,-7.6313,-7.625,-7.6185,-7.6104,-7.6034,-7.6029,-7.6015,-7.6015,-7.6015,-7.6015,-7.6053,-7.7746,-7.8977,-7.9862,-8.0708,-8.1093,-8.1093,-8.1093,-8.1093,-8.1093,-8.1093,-8.1093,-8.1093,-8.1093,-8.1093,-8.1093,-8.1093,-8.1093,-8.1093,-8.1093,-8.1093,-8.1093,-8.1093,-8.1093,-8.1093,-8.1093,-8.1093,-8.1108,-8.1139,-8.1244,-8.1291,-8.1333,-8.1427,-8.1491,-8.1491,-8.1491,-8.1491,-8.1491,-8.1491,-8.1491,-8.1491,-8.1491,-8.1491,-8.1491,-8.1491,-8.1491,-8.1491,-8.1491,-8.1491,-8.1491,-8.1491,-8.1491,-8.1491,-8.1491,-8.1491,-8.1491,-8.1078,-8.0807,-8.0807,-7.9569,-7.8525,-7.7713,-7.7674,-7.7442,-7.7016,-7.7481,-7.7481,-7.7016,-7.7055,-7.6823,-7.1218,-7.1516,-7.1689,-7.3541,-7.4041,-7.4221,-7.4687,-7.5055,-7.5362,-7.5413,-7.543,-7.5446,-7.5491,-7.587,-7.6145,-7.6198,-7.6225,-7.625,-7.6313,-7.6313,-7.6338,-7.6397,-7.6397,-7.6397,-7.6397,-7.6397,-7.6397,-7.6397,-7.6397,-7.6397,-7.6397,-7.6397,-7.6374,-7.6301,-7.6238,-7.6159,-7.609,-7.602,-7.6015,-7.6015,-7.6015,-7.6015,-7.6053,-7.7592,-7.8746,-7.9631,-8.0516,-8.0977,-8.1093,-8.1093,-8.1093,-8.1093,-8.1093,-8.1093,-8.1093,-8.1093,-8.1093,-8.1093,-8.1093,-8.1093,-8.1093,-8.1093,-8.1093,-8.1093,-8.1093,-8.1093,-8.1093,-8.1093,-8.1093,-8.1108,-8.1199,-8.1234,-8.1305,-8.1374,-8.1453,-8.1491,-8.1491,-8.1491,-8.1491,-8.1491,-8.1491,-8.1491,-8.1491,-8.1491,-8.1491,-8.1491,-8.1491,-8.1491,-8.1491,-8.1491,-8.1491,-8.1491,-8.1491,-8.1491,-8.1491,-8.1491,-8.1491,-8.1491,-8.1491,-8.1491,-8.1491,-8.0807,-7.9685,-7.8177,-7.8718,-7.8486,-7.7481,-7.779,-7.7751,-7.7442,-7.69,-7.6552,-6.993,-7.1264,-7.2777,-7.3784,-7.4287,-7.4708,-7.5111,-7.5306,-7.5491,-7.5923,-7.5981,-7.5981,-7.5995,-7.6133,-7.6276,-7.6288,-7.6338,-7.6374,-7.6386,-7.6386,-7.6397,-7.6397,-7.6397,-7.6397,-7.6397,-7.6397,-7.6397,-7.6397,-7.6397,-7.6397,-7.6397,-7.6397,-7.6374,-7.6301,-7.6238,-7.6159,-7.609,-7.602,-7.6015,-7.6015,-7.6015,-7.6015,-7.6015,-7.7015,-7.79,-7.8707,-7.9592,-8.04,-8.1093,-8.1093,-8.1093,-8.1093,-8.1093,-8.1093,-8.1093,-8.1093,-8.1093,-8.1093,-8.1093,-8.1093,-8.1093,-8.1093,-8.1093,-8.1093,-8.1093,-8.1093,-8.1093,-8.1093,-8.1093,-8.1108,-8.1199,-8.1234,-8.1305,-8.1374,-8.1453,-8.1491,-8.1491,-8.1491,-8.1491,-8.1491,-8.1491,-8.1491,-8.1491,-8.1491,-8.1491,-8.1491,-8.1491,-8.1491,-8.1491,-8.1491,-8.1491,-8.1491,-8.1491,-8.1491,-8.1491,-8.1491,-8.1491,-8.1491,-8.1491,-8.1491,-8.1491,-8.1387,-8.0885,-7.9879,-7.9299,-7.8216,-7.6591,-7.8099,-7.8061,-7.6591,-7.721,-7.7132,-7.0115,-7.1573,-7.3049,-7.412,-7.4708,-7.5167,-7.5606,-7.5749,-7.5855,-7.6153,-7.6197,-7.6212,-7.6212,-7.6263,-7.6313,-7.635,-7.6386,-7.6397,-7.6397,-7.6397,-7.6397,-7.6397,-7.6397,-7.6397,-7.6397,-7.6397,-7.6397,-7.6397,-7.6397,-7.6397,-7.6397,-7.6397,-7.6386,-7.6362,-7.6288,-7.6225,-7.6159,-7.6076,-7.602,-7.6015,-7.6015,-7.6015,-7.6015,-7.6399,-7.7015,-7.7861,-7.8707,-7.9554,-8.0362,-8.0362,-8.0669,-8.1093,-8.1093,-8.1093,-8.1093,-8.1093,-8.1093,-8.1093,-8.1093,-8.1093,-8.1093,-8.1093,-8.1093,-8.1093,-8.1093,-8.1093,-8.1093,-8.1093,-8.1093,-8.1124,-8.1244,-8.1263,-8.1319,-8.1427,-8.1478,-8.1491,-8.1491,-8.1491,-8.1491,-8.1491,-8.1491,-8.1491,-8.1491,-8.1491,-8.1491,-8.1491,-8.1491,-8.1491,-8.1491,-8.1491,-8.1491,-8.1491,-8.1491,-8.1491,-8.1491,-8.1491,-8.1491,-8.1491,-8.1491,-8.1491,-8.1491,-8.1039,-8.0382,-7.9531,-7.9608,-7.9067,-7.7867,-7.8138,-7.7867,-7.7132,-7.7016,-7.6784,-7.0239,-7.1386,-7.2529,-7.4035,-7.4619,-7.5064,-7.5817,-7.6038,-7.6106,-7.6274,-7.6289,-7.6326,-7.6326,-7.6326,-7.635,-7.6397,-7.6397,-7.6397,-7.6397,-7.6397,-7.6397,-7.6397,-7.6397,-7.6397,-7.6397,-7.6397,-7.6397,-7.6397,-7.6397,-7.6397,-7.6397,-7.6397,-7.6397,-7.6397,-7.6338,-7.6263,-7.6198,-7.6104,-7.6034,-7.6015,-7.6015,-7.6015,-7.6015,-7.6015,-7.6361,-7.7015,-7.7823,-7.8823,-7.9785,-7.9554,-8.0092,-8.1093,-8.0862,-8.09,-8.1093,-8.1093,-8.1093,-8.1093,-8.1093,-8.1093,-8.1093,-8.1093,-8.1093,-8.1093,-8.1093,-8.1093,-8.1093,-8.1093,-8.1108,-8.1154,-8.1249,-8.1305,-8.1347,-8.1466,-8.1491,-8.1491,-8.1491,-8.1491,-8.1491,-8.1491,-8.1491,-8.1491,-8.1491,-8.1491,-8.1491,-8.1491,-8.1491,-8.1491,-8.1491,-8.1491,-8.1491,-8.1491,-8.1491,-8.1491,-8.1491,-8.1491,-8.1491,-8.1491,-8.1491,-8.1491,-8.1491,-8.0885,-8.015,-7.9337,-7.9685,-7.9376,-7.8332,-7.7906,-7.7597,-7.7365,-7.6707,-7.6397,-6.9631,-7.0116,-7.1008,-7.3033,-7.3588,-7.4012,-7.5635,-7.5992,-7.6057,-7.6172,-7.6311,-7.6397,-7.6397,-7.6397,-7.6397,-7.6397,-7.6397,-7.6397,-7.6397,-7.6397,-7.6397,-7.6397,-7.6397,-7.6397,-7.6397,-7.6397,-7.6397,-7.6397,-7.6397,-7.6397,-7.6397,-7.6397,-7.6397,-7.6397,-7.6338,-7.6263,-7.6198,-7.6062,-7.6015,-7.6015,-7.6015,-7.6015,-7.6015,-7.6015,-7.6015,-7.613,-7.6976,-7.8284,-7.9746,-7.89,-7.9554,-8.1016,-8.0208,-8.0362,-8.1093,-8.1093,-8.1093,-8.1093,-8.1093,-8.1093,-8.1093,-8.1093,-8.1093,-8.1093,-8.1093,-8.1093,-8.1093,-8.1093,-8.1154,-8.1229,-8.1263,-8.1333,-8.1414,-8.1478,-8.1491,-8.1491,-8.1491,-8.1491,-8.1491,-8.1491,-8.1491,-8.1491,-8.1491,-8.1491,-8.1491,-8.1491,-8.1491,-8.1491,-8.1491,-8.1491,-8.1491,-8.1491,-8.1491,-8.1491,-8.1491,-8.1491,-8.1491,-8.1491,-8.1491,-8.1491,-8.1491,-8.1465,-8.1039,-8.015,-7.9415,-7.8216,-7.6552,-7.7326,-7.7287,-7.6475,-7.6397,-7.6397,-6.911,-6.9859,-7.0793,-7.2493,-7.3193,-7.3926,-7.5618,-7.6052,-7.6185,-7.6301,-7.6362,-7.6397,-7.6397,-7.6397,-7.6397,-7.6397,-7.6397,-7.6397,-7.6397,-7.6397,-7.6397,-7.6397,-7.6397,-7.6397,-7.6397,-7.6397,-7.6397,-7.6397,-7.6397,-7.6397,-7.6397,-7.6397,-7.6397,-7.6397,-7.6386,-7.6313,-7.6198,-7.6104,-7.6034,-7.6015,-7.6015,-7.6015,-7.6015,-7.6015,-7.6015,-7.6053,-7.6899,-7.763,-7.8207,-7.84,-7.9208,-8.0285,-8.0554,-8.0823,-8.1093,-8.1093,-8.1093,-8.1093,-8.1093,-8.1093,-8.1093,-8.1093,-8.1093,-8.1093,-8.1093,-8.1093,-8.1108,-8.1154,-8.1184,-8.1244,-8.1333,-8.1374,-8.1414,-8.1478,-8.1491,-8.1491,-8.1491,-8.1491,-8.1491,-8.1491,-8.1491,-8.1491,-8.1491,-8.1491,-8.1491,-8.1491,-8.1491,-8.1491,-8.1491,-8.1491,-8.1491,-8.1491,-8.1491,-8.1491,-8.1491,-8.1491,-8.1491,-8.1491,-8.1491,-8.1491,-8.1491,-8.0459,-7.9763,-7.9453,-7.8061,-7.7287,-7.721,-7.6978,-7.6707,-7.6397,-7.6397,-7.6397,-6.8323,-6.8934,-6.9815,-7.1363,-7.1807,-7.255,-7.5354,-7.6121,-7.6276,-7.6403,-7.6413,-7.6397,-7.6397,-7.6397,-7.6397,-7.6397,-7.6397,-7.6397,-7.6397,-7.6397,-7.6397,-7.6397,-7.6397,-7.6397,-7.6397,-7.6397,-7.6397,-7.6397,-7.6397,-7.6397,-7.6397,-7.6397,-7.6397,-7.6397,-7.6386,-7.6326,-7.6238,-7.6159,-7.6104,-7.6048,-7.6034,-7.602,-7.602,-7.6029,-7.6015,-7.6015,-7.6592,-7.7015,-7.7323,-7.7861,-7.8784,-7.9823,-8.0131,-8.0592,-8.1093,-8.1093,-8.1093,-8.1093,-8.1093,-8.1093,-8.1093,-8.1093,-8.1093,-8.1093,-8.1093,-8.1108,-8.1139,-8.1199,-8.1205,-8.1277,-8.1374,-8.1414,-8.144,-8.1491,-8.1491,-8.1491,-8.1491,-8.1491,-8.1491,-8.1491,-8.1491,-8.1491,-8.1491,-8.1491,-8.1491,-8.1491,-8.1491,-8.1491,-8.1491,-8.1491,-8.1491,-8.1491,-8.1491,-8.1491,-8.1491,-8.1491,-8.1491,-8.1491,-8.1233,-8.1078,-8.1078,-7.9724,-7.8873,-7.8564,-7.7442,-7.6978,-7.7248,-7.6668,-7.6397,-7.6397,-7.6397,-7.6397,0.0,0.0,0.0,-6.9588,-6.9246,-6.9758,-7.4526,-7.6038,-7.6412,-7.6389,-7.6397,-7.6397,-7.6397,-7.6397,-7.6397,-7.6397,-7.6397,-7.6397,-7.6397,-7.6397,-7.6397,-7.6397,-7.6397,-7.6397,-7.6397,-7.6397,-7.6397,-7.6397,-7.6397,-7.6397,-7.6397,-7.6397,-7.6397,-7.6397,-7.6338,-7.6301,-7.6301,-7.6238,-7.6198,-7.6198,-7.6131,-7.6104,-7.609,-7.6058,-7.5976,-7.6015,-7.6015,-7.6515,-7.7246,-7.7284,-7.8246,-7.9631,-7.8823,-7.9515,-8.1016,-8.1054,-8.1054,-8.1054,-8.1093,-8.1093,-8.1093,-8.1093,-8.1093,-8.1093,-8.1093,-8.1154,-8.1214,-8.1214,-8.1291,-8.14,-8.14,-8.1453,-8.1491,-8.1491,-8.1491,-8.1491,-8.1491,-8.1491,-8.1491,-8.1491,-8.1491,-8.1491,-8.1491,-8.1491,-8.1491,-8.1491,-8.1491,-8.1491,-8.1491,-8.1491,-8.1491,-8.1491,-8.1491,-8.1491,-8.1491,-8.1491,-8.1491,-8.1465,-8.0691,-8.0188,-8.0188,-7.9376,-7.8564,-7.7713,-7.7674,-7.7248,-7.6397,-7.6397,-7.6397,-7.6397,-7.6397,-7.6397,-6.6723,0.0,0.0,0.0,0.0,0.0,-6.7263,-7.1895,-7.6418,-7.6389,-7.6401,-7.6401,-7.6397,-7.6397,-7.6397,-7.6397,-7.6397,-7.6397,-7.6397,-7.6397,-7.6397,-7.6397,-7.6397,-7.6397,-7.6397,-7.6397,-7.6397,0.0,-7.6397,-7.6397,-7.6397,-7.6397,-7.6397,-7.6397,-7.6386,-7.635,-7.6301,-7.6276,-7.625,-7.6198,-7.6172,-7.6172,-7.6172,-7.6145,-7.6104,-7.6101,-7.6755,-7.6751,-7.6399,-7.7053,-7.7553,-7.8015,-7.8361,-7.8784,-7.9285,-7.9939,-8.0169,-8.0246,-8.09,-8.1093,-8.1093,-8.1093,-8.1093,-8.1108,-8.1169,-8.1199,-8.1229,-8.1305,-8.136,-8.1414,-8.1453,-8.1478,-8.1491,-8.1491,-8.1491,-8.1491,-8.1491,-8.1491,-8.1491,-8.1491,-8.1491,-8.1491,-8.1491,-8.1491,-8.1491,-8.1491,-8.1491,-8.1491,-8.1491,-8.1491,-8.1491,-8.1491,-8.1491,-8.1491,-8.1491,-8.1491,-8.1233,-8.0614,-8.0343,-7.9956,-7.9376,-7.8525,-7.7945,-7.7713,-7.7094,-7.663,-7.6397,-7.6397,-7.6397,-7.6397,-7.6397,-7.6397,-6.6241,-6.6551,-6.6747,-6.6142,0.0,0.0,-6.5001,-6.844,-7.2418,-7.3802,-7.5318,-7.6386,-7.6409,-7.6382,-7.6421,-7.6409,-7.6409,-7.6409,-7.6397,-7.6397,-7.6397,-7.6397,-7.6397,-7.6397,-7.6397,-7.6397,-7.6397,-7.6397,-7.6397,-7.6397,-7.6397,-7.6397,-7.6397,-7.6397,-7.6397,-7.6386,-7.635,-7.635,-7.6326,-7.6288,-7.625,-7.6238,-7.6238,-7.6185,-7.6131,-7.6129,-7.663,-7.6563,-7.6072,-7.664,-7.7035,-7.7361,-7.7823,-7.8207,-7.8592,-7.9477,-7.9823,-7.9939,-8.0785,-8.1093,-8.1093,-8.1093,-8.1108,-8.1154,-8.1199,-8.1258,-8.1291,-8.1374,-8.1414,-8.1453,-8.1491,-8.1491,-8.1491,-8.1491,-8.1491,-8.1491,-8.1491,-8.1491,-8.1491,-8.1491,-8.1491,-8.1491,-8.1491,-8.1491,-8.1491,-8.1491,-8.1491,-8.1491,-8.1491,-8.1491,-8.1491,-8.1491,-8.1491,-8.1491,-8.1491,-8.1194,-8.073,-8.0227,-7.9531,-7.895,-7.8486,-7.7635,-7.7171,-7.7171,-7.6668,-7.6397,-7.6397,-7.6397,-7.6397,-7.6397,-7.6397,-7.6397,-6.5897,-6.5918,-6.5909,-6.5909,-6.59,0.0,-6.59,-6.605,-6.7058,-7.0023,-7.3396,-7.584,-7.584,-7.584,-7.5763,-7.5585,-7.5906,-7.6266,-7.637,-7.6397,-7.6397,-7.6397,-7.6397,-7.6397,-7.6397,-7.6397,-7.6397,-7.6397,-7.6397,-7.6397,-7.6397,-7.6397,-7.6397,-7.6397,-7.6397,-7.6397,-7.6397,-7.6397,-7.6397,-7.6397,-7.6338,-7.6313,-7.6313,-7.6185,-7.6131,-7.6118,-7.6118,-7.6118,-7.6118,-7.6172,-7.658,-7.716,-7.716,-7.766,-7.8507,-7.9353,-7.9723,-7.9954,-8.08,-8.1108,-8.1108,-8.1108,-8.1169,-8.1229,-8.1229,-8.1291,-8.14,-8.14,-8.1453,-8.1491,-8.1491,-8.1491,-8.1491,-8.1491,-8.1491,-8.1491,-8.1491,-8.1414,-8.1336,-8.1336,-8.1414,-8.1491,-8.1491,-8.1491,-8.1491,-8.1491,-8.1491,-8.1491,-8.1491,-8.1491,-8.1491,-8.1491,-8.1491,-8.1465,-8.1336,-8.0653,-8.0111,-7.9918,-7.8525,-7.7674,-7.7558,-7.6823,-7.6397,-7.6397,-7.6397,-7.6397,-7.6397,-7.6397,-7.6397,-7.6397,-7.6397,-7.6397,-6.609,-6.5897,-6.5897,-6.5897,-6.5895,0.0,-6.591,-6.7012,-6.827,-6.8923,-7.0785,-7.2288,-7.2286,-7.2283,-7.1831,-7.0346,-7.2859,-7.5349,-7.6254,-7.6397,-7.6397,-7.6397,-7.6397,-7.6397,-7.6397,-7.6397,-7.6397,-7.6397,-7.6397,-7.6397,-7.6397,-7.6397,-7.6397,-7.6397,-7.6397,-7.6397,-7.6397,-7.6397,-7.6397,-7.6397,-7.6386,-7.6386,-7.6386,-7.6362,-7.6313,-7.6263,-7.6263,-7.6225,-7.6172,-7.6185,-7.6288,-7.6428,-7.6428,-7.693,-7.7778,-7.8626,-7.9317,-7.9991,-8.0876,-8.1184,-8.1184,-8.1184,-8.1244,-8.1277,-8.1333,-8.1374,-8.1414,-8.1466,-8.1491,-8.1491,-8.1491,-8.1491,-8.1491,-8.1491,-8.1491,-8.1491,-8.1491,-8.0962,-8.0459,-8.0459,-8.1039,-8.1491,-8.1491,-8.1491,-8.1491,-8.1491,-8.1491,-8.1491,-8.1491,-8.1491,-8.1491,-8.1491,-8.1491,-8.122,-8.0498,-8.0304,-7.9608,-7.8254,-7.7867,-7.7403,-7.6668,-7.6475,-7.6397,-7.6397,-7.6397,-7.6397,-7.6397,-7.6397,-7.6397,-7.6397,-7.6397,-7.6397,-6.6128,-6.5897,-6.5897,-6.5897,-6.5897,0.0,0.0,-6.6602,-6.7243,-6.7241,-6.7998,-6.8588,-6.8613,-6.8598,-6.8892,-6.9717,-7.0881,-7.2175,-7.3655,-7.4955,-7.5895,-7.6359,-7.6397,-7.6397,-7.6397,-7.6397,-7.6397,-7.6397,-7.6397,-7.6397,-7.6397,-7.6397,-7.6397,-7.6397,-7.6397,-7.6397,-7.6397,-7.6397,-7.6397,-7.6397,-7.6397,-7.6397,-7.6397,-7.6374,-7.6338,-7.6301,-7.6301,-7.6276,-7.625,-7.6288,-7.6301,-7.6288,-7.6225,-7.6712,-7.7547,-7.8384,-7.9219,-8.0078,-8.0964,-8.1234,-8.1234,-8.1234,-8.1277,-8.1347,-8.1387,-8.1414,-8.1453,-8.1491,-8.1194,-8.0846,-8.0846,-8.0536,-8.0266,-8.0266,-8.0266,-8.0266,-8.0266,-7.9918,-7.9608,-7.9608,-7.9956,-8.0266,-8.0266,-8.0614,-8.0846,-8.0846,-8.122,-8.1491,-8.1491,-8.1491,-8.1491,-8.1491,-8.1117,-8.0691,-8.0227,-7.9415,-7.8602,-7.7751,-7.7287,-7.6862,-7.6397,-7.6397,-7.6397,-7.6397,-7.6397,-7.6397,-7.6397,-7.6397,-7.6397,-7.6397,-7.6397,-7.6397,-6.6167,-6.5897,-6.5897,-6.5897,-6.5897,-6.591,0.0,0.0,0.0,-6.5881,0.0,0.0,0.0,0.0,0.0,0.0,0.0,0.0,0.0,-7.282,0.0,-7.5314,-7.6011,-7.6281,-7.5933,-7.6049,-7.6204,-7.6397,-7.6243,-7.6204,-7.6397,-7.6397,-7.6397,-7.6397,-7.6397,-7.6397,-7.6397,-7.6397,-7.6397,-7.6397,-7.6397,-7.6397,-7.6397,-7.635,-7.6326,-7.6326,-7.6326,-7.6326,-7.6326,-7.6386,-7.6397,-7.6374,-7.6276,-7.6816,-7.7792,-7.8488,-7.9376,-8.0365,-8.1074,-8.1305,-8.1291,-8.1305,-8.1244,-8.1182,-8.1182,-8.1105,-8.1039,-8.1039,-8.0498,-7.9956,-7.9956,-7.9492,-7.8989,-7.8989,-7.8989,-7.8989,-7.8989,-7.8873,-7.8757,-7.8757,-7.8602,-7.8602,-7.895,-7.9531,-8.0034,-8.0188,-8.0807,-8.131,-8.1491,-8.1491,-8.1491,-8.1491,-8.073,-8.015,-7.9995,-7.8564,-7.7635,-7.7442,-7.6784,-7.6397,-7.6397,-7.6397,-7.6397,-7.6397,-7.6397,-7.6397,-7.6397,-7.6397,-7.6397,-7.6397,-7.6397,-7.6397,-6.632,-6.5897,-6.5897,-6.5897,-6.5897,-6.5897,-6.591,0.0,-6.591,-6.591,0.0,-6.591,0.0,0.0,0.0,0.0,0.0,0.0,-6.9856,-7.0367,-7.0888,-7.1794,-7.4541,-7.5817,-7.4347,-7.485,-7.5585,-7.632,-7.5662,-7.5585,-7.6359,-7.6397,-7.6397,-7.6397,-7.6397,-7.6397,-7.6397,-7.6397,-7.6397,-7.6397,-7.6397,-7.6397,-7.6397,-7.6397,-7.6386,-7.6386,-7.6386,-7.6386,-7.6386,-7.6397,-7.6362,-7.6313,-7.6362,-7.7379,-7.8836,-7.8926,-7.9894,-8.1175,-8.1322,-8.1347,-8.1305,-8.136,-8.0924,-8.0331,-8.0331,-7.9828,-7.9299,-7.9299,-7.9221,-7.9144,-7.9144,-7.9067,-7.8989,-7.8989,-7.8989,-7.8989,-7.8989,-7.837,-7.7829,-7.7829,-7.721,-7.7171,-7.8718,-7.9067,-7.9376,-8.0111,-8.0266,-8.0653,-8.1387,-8.1491,-8.1491,-8.1491,-8.073,-7.9918,-7.9183,-7.8254,-7.7365,-7.6591,-7.6436,-7.6397,-7.6397,-7.6397,-7.6397,-7.6397,-7.6397,-7.6397,-7.6397,-7.6397,-7.6397,-7.6397,-7.6397,-7.6397,-6.6244,-6.6244,-6.6474,-6.6013,-6.6244,-6.6474,-6.6013,-6.5897,-6.5897,-6.5897,0.0,0.0,0.0,0.0,0.0,0.0,-6.7229,0.0,0.0,0.0,-7.0263,0.0,0.0,0.0,-7.3883,-7.5082,-7.6011,-7.6359,-7.6049,-7.6011,-7.6359,-7.6397,-7.6397,-7.6397,-7.6397,-7.6397,-7.6397,-7.6397,-7.6397,-7.6397,-7.6397,-7.6397,-7.6397,-7.6397,-7.6397,-7.6397,-7.6397,-7.6397,-7.6397,-7.6397,-7.6386,-7.6362,-7.6386,-7.7109,-7.8205,-7.8242,-7.9262,-8.0602,-8.0177,-8.028,-8.0602,-8.0138,-7.9777,-7.9492,-7.9492,-7.926,-7.8989,-7.8989,-7.8641,-7.8254,-7.8254,-7.7867,-7.7481,-7.7481,-7.7481,-7.7481,-7.7481,-7.721,-7.6939,-7.6939,-7.663,-7.663,-7.7365,-7.7906,-7.837,-7.8718,-7.9183,-7.9647,-7.9995,-8.0459,-8.0575,-8.0111,-7.9724,-7.9144,-7.8332,-7.7442,-7.6784,-7.6397,-7.6397,-7.6397,-7.6397,-7.6397,-7.6397,-7.6397,-7.6397,-7.6397,-7.6397,-7.6397,-7.6397,-7.6397,-7.6397,-7.6397,-6.6551,-6.6667,-6.6898,-6.609,-6.632,-6.6628,-6.6013,-6.5897,-6.5897,-6.5897,-6.5897,0.0,0.0,0.0,-6.5974,-6.6205,0.0,-6.6986,0.0,-6.7779,0.0,0.0,0.0,0.0,0.0,-7.4502,-7.5469,-7.5701,-7.5933,-7.6165,-7.6397,-7.6397,-7.6397,-7.6397,-7.6397,-7.6397,-7.6397,-7.6397,-7.6397,-7.6397,-7.6397,-7.6397,-7.6397,-7.6397,-7.6397,-7.6397,-7.6397,-7.6397,-7.6397,-7.6397,-7.6397,-7.6397,-7.6397,-7.6761,-7.7304,-7.7585,-7.859,-7.9777,-7.9209,-7.9376,-7.9763,-7.9183,-7.8834,-7.8641,-7.8641,-7.8486,-7.8293,-7.8293,-7.7829,-7.7326,-7.7326,-7.6862,-7.6397,-7.6397,-7.6397,-7.6397,-7.6397,-7.6397,-7.6397,-7.6397,-7.6397,-7.6397,-7.6397,-7.69,-7.7403,-7.7674,-7.8254,-7.8718,-7.8989,-7.9492,-7.9647,-7.9067,-7.8796,-7.837,-7.7751,-7.69,-7.6397,-7.6397,-7.6397,-7.6397,-7.6397,-7.6397,-7.6397,-7.6397,-7.6397,-7.6397,-7.6397,-7.6397,-7.6397,-7.6397,-7.6397,-7.6397,-6.7436,-6.709,-6.6898,-6.609,-6.5897,-6.5936,-6.5897,-6.5897,-6.5897,-6.5897,-6.5897,-6.5897,-6.5897,-6.5897,-6.6128,-6.6936,-6.6436,0.0,0.0,0.0,-6.6148,-6.6156,-6.7729,0.0,0.0,-7.2181,-7.3071,0.0,-7.4695,-7.5508,-7.6359,-7.6397,-7.6397,-7.6397,-7.6397,-7.6397,-7.6397,-7.6397,-7.6397,-7.6397,-7.6397,-7.6397,-7.6397,-7.6397,-7.6397,-7.6397,-7.6397,-7.6397,-7.6397,-7.6397,-7.6397,-7.6397,-7.6397,-7.6397,-7.6552,-7.7403,-7.8218,-7.8941,-7.9003,-7.9028,-7.9028,-7.9028,-7.8409,-7.7751,-7.7751,-7.7132,-7.6475,-7.6475,-7.6436,-7.6436,-7.6436,-7.6397,-7.6397,-7.6397,-7.6397,-7.6397,-7.6397,-7.6397,-7.6397,-7.6397,-7.6397,-7.6397,-7.6397,-7.6397,-7.6707,-7.7558,-7.7713,-7.8061,-7.8873,-7.9028,-7.9028,-7.8989,-7.8254,-7.7713,-7.7713,-7.69,-7.6397,-7.6397,-7.6397,-7.6397,-7.6397,-7.6397,-7.6397,-7.6397,-7.6397,-7.6397,-7.6397,-7.6397,-7.6397,-7.6397,-7.6397,-7.6397,-7.0656,-7.0618,-7.0129,-6.8744,-6.8398,-6.8129,-6.6974,-6.6282,-6.5897,-6.5897,-6.5897,-6.5897,-6.5897,-6.5897,-6.5974,-6.6244,-6.609,-6.5987,0.0,-6.6127,-6.596,-6.5982,-6.7556,-6.8899,0.0,0.0,0.0,0.0,-7.5198,-7.6088,-7.6359,-7.6397,-7.6397,-7.6397,-7.6397,-7.6397,-7.6397,-7.6397,-7.6397,-7.6397,-7.6397,-7.6397,-7.6397,-7.6397,-7.6397,-7.6397,-7.6397,-7.6397,-7.6397,-7.6397,-7.6397,-7.6397,-7.6397,-7.6397,-7.6436,-7.6707,-7.7391,-7.8114,-7.8138,-7.7751,-7.7287,-7.7287,-7.7094,-7.6823,-7.6823,-7.663,-7.6397,-7.6397,-7.6397,-7.6397,-7.6397,-7.6397,-7.6397,-7.6397,-7.6397,-7.6397,-7.6397,-7.6397,-7.6397,-7.6397,-7.6397,-7.6397,-7.6397,-7.6397,-7.6514,-7.6784,-7.6823,-7.6939,-7.7248,-7.779,-7.7906,-7.7326,-7.8061,-7.8332,-7.7751,-7.7442,-7.7248,-7.7248,-7.7248,-7.7248,-7.7248,-7.7248,-7.7519,-7.8099,-7.7558,-7.7248,-7.7248,-7.7248,-7.6939,-7.6397,-7.6397,-7.6397,-7.2388,-7.2349,-7.186,-7.0475,-7.0129,-6.9744,-6.8359,-6.7628,-6.7244,-6.7244,-6.6744,-6.659,-6.7513,-6.6705,-6.609,-6.6705,-6.6282,-6.5897,0.0,-6.5897,-6.5923,-6.596,-6.6996,-6.7954,-6.8613,0.0,-7.2511,-7.3794,-7.4889,-7.5779,0.0,-7.6397,-7.6397,-7.6397,-7.6397,-7.6397,-7.6397,-7.6397,-7.6397,-7.6397,-7.6397,-7.6397,-7.6397,-7.6397,-7.6397,-7.6397,-7.6397,-7.6397,-7.6397,-7.6397,-7.6397,-7.6397,-7.6397,-7.6397,-7.6397,-7.6397,-7.6746,-7.7248,-7.7248,-7.6862,-7.6397,-7.6397,-7.6397,-7.6397,-7.6397,-7.6397,-7.6397,-7.6397,-7.6397,-7.6397,-7.6397,-7.6397,-7.6397,-7.6397,-7.6397,-7.6397,-7.6397,-7.6397,-7.6397,-7.6397,-7.6397,-7.6397,-7.6397,-7.6397,-7.6397,-7.6397,-7.6397,-7.6397,-7.6397,-7.7171,-7.7481,-7.69,-7.8138,-7.8757,-7.8216,-7.8177,-7.8177,-7.8177,-7.8177,-7.8177,-7.8177,-7.8177,-7.8564,-7.9415,-7.8293,-7.7829,-7.8177,-7.7519,-7.6939,-7.6397,-7.6397,-7.6397]},{"header":{"parameterUnit":"m.s-1","parameterCategory":1,"la1":30.6,"la2":29.2853,"lo1":-89.7004,"lo2":-87.6739,"dy":0.0162,"dx":0.0183,"nx":112,"ny":82,"refTime":"2024-05-14T12:00:00:Z","depth":0,"parameterNumber":3,"parameterNumberName":"V-component_of_WINDS"},"data":[0.0,0.0,0.0,0.0,0.0,0.0,0.0,0.0,0.0,0.0,0.0,0.0,0.0,0.0,0.0,0.0,0.0,0.0,0.0,0.0,0.0,0.0,0.0,0.0,0.0,0.0,0.0,0.0,0.0,0.0,0.0,0.0,0.0,0.0,0.0,0.0,0.0,0.0,0.0,0.0,0.0,0.0,0.0,0.0,0.0,0.0,0.0,0.0,0.0,0.0,0.0,0.0,0.0,0.0,0.0,0.0,0.0,0.0,0.0,0.0,0.0,0.0,0.0,0.0,0.0,0.0,0.0,0.0,0.0,0.0,0.0,0.0,0.0,0.0,0.0,0.0,0.0,0.0,0.0,0.0,0.0,0.0,0.0,0.0,0.0,0.0,0.0,0.0,0.0,0.0,-1.3172,-1.1765,-1.2141,-1.2368,-1.2406,-1.2471,-1.2232,-1.158,0.0,0.0,0.0,0.0,0.0,0.0,0.0,0.0,0.0,0.0,0.0,0.0,0.0,0.0,0.0,0.0,0.0,0.0,0.0,0.0,0.0,0.0,0.0,0.0,0.0,0.0,0.0,0.0,0.0,0.0,0.0,0.0,0.0,0.0,0.0,0.0,0.0,0.0,0.0,0.0,0.0,0.0,0.0,0.0,0.0,0.0,0.0,0.0,0.0,0.0,0.0,0.0,0.0,0.0,0.0,0.0,0.0,0.0,0.0,0.0,0.0,0.0,0.0,0.0,0.0,0.0,0.0,0.0,0.0,0.0,0.0,0.0,0.0,0.0,0.0,0.0,0.0,0.0,0.0,0.0,0.0,0.0,0.0,0.0,0.0,0.0,0.0,0.0,0.0,0.0,0.0,0.0,0.0,0.0,0.0,0.0,0.0,0.0,0.0,0.0,0.0,0.0,0.0,0.0,-1.2012,-1.2256,-1.2393,-1.2433,-1.2634,-1.2487,-1.2248,-1.1928,0.0,0.0,0.0,0.0,0.0,0.0,0.0,0.0,0.0,0.0,0.0,0.0,0.0,0.0,0.0,0.0,0.0,0.0,0.0,0.0,0.0,0.0,0.0,0.0,0.0,0.0,0.0,0.0,0.0,0.0,0.0,0.0,0.0,0.0,0.0,0.0,0.0,0.0,0.0,0.0,0.0,0.0,0.0,0.0,0.0,0.0,0.0,0.0,0.0,0.0,0.0,0.0,0.0,0.0,0.0,0.0,0.0,0.0,0.0,0.0,0.0,0.0,0.0,0.0,0.0,0.0,0.0,0.0,0.0,0.0,0.0,0.0,0.0,0.0,0.0,0.0,0.0,0.0,0.0,0.0,0.0,0.0,0.0,0.0,0.0,0.0,0.0,0.0,0.0,0.0,0.0,0.0,0.0,0.0,0.0,0.0,0.0,0.0,0.0,0.0,0.0,0.0,0.0,-1.2096,-1.1661,-1.2199,-1.2314,-1.2401,-1.2504,-1.2417,-1.2221,-1.1917,-1.1672,0.0,0.0,0.0,0.0,0.0,0.0,0.0,0.0,0.0,0.0,0.0,0.0,0.0,0.0,0.0,0.0,0.0,0.0,0.0,0.0,0.0,0.0,0.0,0.0,0.0,0.0,0.0,0.0,0.0,0.0,0.0,0.0,0.0,0.0,0.0,0.0,0.0,0.0,0.0,0.0,0.0,0.0,0.0,0.0,0.0,0.0,0.0,0.0,0.0,0.0,0.0,0.0,0.0,0.0,0.0,0.0,0.0,0.0,0.0,0.0,0.0,0.0,0.0,0.0,0.0,0.0,0.0,0.0,0.0,0.0,0.0,0.0,0.0,0.0,0.0,0.0,0.0,0.0,0.0,0.0,0.0,0.0,0.0,0.0,0.0,0.0,0.0,0.0,0.0,0.0,0.0,0.0,0.0,0.0,0.0,0.0,0.0,0.0,0.0,0.0,0.0,0.0,-1.1832,-1.1705,-1.2129,-1.2254,-1.2324,-1.2447,-1.2303,-1.215,-1.1879,-1.158,0.0,0.0,0.0,0.0,0.0,0.0,0.0,0.0,0.0,0.0,0.0,0.0,0.0,0.0,0.0,0.0,0.0,0.0,0.0,0.0,0.0,0.0,0.0,0.0,0.0,0.0,0.0,0.0,0.0,0.0,0.0,0.0,0.0,0.0,0.0,0.0,0.0,0.0,0.0,0.0,0.0,0.0,0.0,0.0,0.0,0.0,0.0,0.0,0.0,0.0,0.0,0.0,0.0,0.0,0.0,0.0,0.0,0.0,0.0,0.0,0.0,0.0,0.0,0.0,0.0,0.0,0.0,0.0,0.0,0.0,0.0,0.0,0.0,0.0,0.0,0.0,0.0,0.0,0.0,0.0,0.0,0.0,0.0,0.0,0.0,0.0,0.0,0.0,0.0,0.0,0.0,0.0,0.0,0.0,0.0,0.0,0.0,0.0,0.0,0.0,0.0,0.0,-1.1661,-1.1889,-1.2145,-1.2178,-1.2232,-1.2346,-1.2145,-1.2004,-1.1976,-1.1542,0.0,0.0,0.0,0.0,0.0,0.0,0.0,0.0,0.0,0.0,0.0,0.0,0.0,0.0,0.0,0.0,0.0,0.0,0.0,0.0,0.0,0.0,0.0,0.0,0.0,0.0,0.0,0.0,0.0,0.0,0.0,0.0,0.0,0.0,0.0,0.0,0.0,0.0,0.0,0.0,0.0,0.0,0.0,0.0,0.0,0.0,0.0,0.0,0.0,0.0,0.0,0.0,0.0,0.0,0.0,0.0,0.0,0.0,0.0,0.0,0.0,0.0,0.0,0.0,0.0,0.0,0.0,0.0,0.0,0.0,0.0,0.0,0.0,0.0,0.0,0.0,0.0,0.0,0.0,0.0,0.0,0.0,0.0,0.0,0.0,0.0,0.0,0.0,0.0,0.0,0.0,0.0,0.0,0.0,0.0,0.0,0.0,0.0,0.0,0.0,0.0,0.0,-1.1848,-1.1911,-1.2145,-1.2243,-1.2303,-1.2447,-1.227,-1.2123,-1.1895,0.0,0.0,0.0,0.0,0.0,0.0,0.0,0.0,0.0,0.0,0.0,0.0,0.0,0.0,0.0,0.0,0.0,0.0,0.0,0.0,0.0,0.0,0.0,0.0,0.0,0.0,0.0,0.0,0.0,0.0,0.0,0.0,0.0,0.0,0.0,0.0,0.0,0.0,0.0,0.0,0.0,0.0,0.0,0.0,0.0,0.0,0.0,0.0,0.0,0.0,0.0,0.0,0.0,0.0,0.0,0.0,0.0,0.0,0.0,0.0,0.0,0.0,0.0,0.0,0.0,0.0,0.0,0.0,0.0,0.0,0.0,0.0,0.0,0.0,0.0,0.0,0.0,0.0,0.0,0.0,0.0,0.0,0.0,0.0,0.0,0.0,0.0,0.0,0.0,0.0,0.0,0.0,0.0,0.0,0.0,0.0,0.0,0.0,0.0,0.0,0.0,0.0,-1.1871,-1.1881,-1.1949,-1.215,-1.2248,-1.2297,-1.2297,-1.2259,-1.2102,-1.1781,0.0,0.0,0.0,0.0,0.0,0.0,0.0,0.0,0.0,0.0,0.0,0.0,0.0,0.0,0.0,0.0,0.0,0.0,0.0,0.0,0.0,0.0,0.0,0.0,0.0,0.0,0.0,0.0,0.0,0.0,0.0,0.0,0.0,0.0,0.0,0.0,0.0,0.0,0.0,0.0,0.0,0.0,0.0,0.0,0.0,0.0,0.0,0.0,0.0,0.0,0.0,0.0,0.0,0.0,0.0,0.0,0.0,0.0,0.0,0.0,0.0,0.0,0.0,0.0,0.0,0.0,0.0,0.0,0.0,0.0,0.0,0.0,0.0,0.0,0.0,0.0,0.0,0.0,0.0,0.0,0.0,0.0,0.0,0.0,0.0,0.0,0.0,0.0,0.0,0.0,0.0,0.0,0.0,0.0,0.0,0.0,0.0,0.0,0.0,0.0,0.0,0.0,-1.1438,-1.177,-1.2036,-1.2161,-1.2172,-1.2172,-1.2172,-1.2058,-1.1889,0.0,0.0,0.0,0.0,0.0,0.0,0.0,0.0,0.0,0.0,0.0,0.0,0.0,0.0,0.0,0.0,0.0,0.0,0.0,0.0,0.0,0.0,0.0,0.0,0.0,0.0,0.0,0.0,0.0,0.0,0.0,0.0,0.0,0.0,0.0,0.0,0.0,0.0,0.0,0.0,0.0,0.0,0.0,0.0,0.0,0.0,0.0,0.0,0.0,0.0,0.0,0.0,0.0,0.0,0.0,0.0,0.0,0.0,0.0,0.0,0.0,0.0,0.0,0.0,0.0,0.0,0.0,0.0,0.0,0.0,0.0,0.0,0.0,0.0,0.0,0.0,0.0,0.0,0.0,0.0,0.0,0.0,0.0,0.0,0.0,0.0,0.0,0.0,0.0,0.0,0.0,0.0,0.0,0.0,0.0,0.0,0.0,0.0,0.0,0.0,0.0,0.0,0.0,-1.1449,-1.1841,-1.2134,-1.2167,-1.2172,-1.2172,-1.2172,-1.2058,-1.1851,-1.1531,0.0,0.0,0.0,0.0,0.0,0.0,0.0,0.0,0.0,0.0,0.0,0.0,0.0,0.0,0.0,0.0,0.0,0.0,0.0,0.0,0.0,0.0,0.0,0.0,0.0,0.0,0.0,0.0,0.0,0.0,0.0,0.0,0.0,0.0,0.0,0.0,0.0,0.0,0.0,0.0,0.0,0.0,0.0,0.0,0.0,0.0,0.0,0.0,0.0,0.0,0.0,0.0,0.0,0.0,0.0,0.0,0.0,0.0,0.0,0.0,0.0,0.0,0.0,0.0,0.0,0.0,0.0,0.0,0.0,0.0,0.0,0.0,0.0,0.0,0.0,0.0,0.0,0.0,0.0,0.0,0.0,0.0,0.0,0.0,0.0,0.0,0.0,0.0,0.0,0.0,0.0,0.0,0.0,0.0,0.0,0.0,0.0,0.0,0.0,0.0,0.0,0.0,-1.1449,-1.183,-1.2118,-1.2167,-1.2172,-1.2172,-1.2172,-1.2058,-1.1857,-1.1547,0.0,0.0,0.0,0.0,0.0,0.0,0.0,0.0,0.0,0.0,0.0,0.0,0.0,0.0,0.0,0.0,0.0,0.0,0.0,0.0,0.0,0.0,0.0,0.0,0.0,0.0,0.0,0.0,0.0,0.0,0.0,0.0,0.0,0.0,0.0,0.0,0.0,0.0,0.0,0.0,0.0,0.0,0.0,0.0,0.0,0.0,0.0,0.0,0.0,0.0,0.0,0.0,0.0,0.0,0.0,0.0,0.0,0.0,0.0,0.0,0.0,0.0,0.0,0.0,0.0,0.0,0.0,0.0,0.0,0.0,0.0,0.0,0.0,0.0,0.0,0.0,0.0,0.0,0.0,0.0,0.0,0.0,0.0,0.0,0.0,0.0,0.0,0.0,0.0,0.0,0.0,0.0,0.0,0.0,0.0,0.0,0.0,0.0,0.0,0.0,0.0,0.0,-1.1438,-1.1759,-1.2025,-1.2156,-1.2161,-1.2161,-1.2172,-1.2047,-1.1879,-1.165,0.0,0.0,0.0,0.0,0.0,0.0,0.0,0.0,0.0,0.0,0.0,0.0,0.0,0.0,0.0,0.0,0.0,0.0,0.0,0.0,0.0,0.0,0.0,0.0,0.0,0.0,0.0,0.0,0.0,0.0,0.0,0.0,0.0,0.0,0.0,0.0,0.0,0.0,0.0,0.0,0.0,0.0,0.0,0.0,0.0,0.0,0.0,0.0,0.0,0.0,0.0,0.0,0.0,0.0,0.0,0.0,0.0,0.0,0.0,0.0,-1.1981,-1.201,0.0,0.0,0.0,0.0,0.0,0.0,0.0,0.0,0.0,0.0,0.0,0.0,0.0,0.0,0.0,0.0,0.0,0.0,0.0,0.0,0.0,0.0,0.0,0.0,0.0,0.0,0.0,0.0,0.0,0.0,0.0,0.0,0.0,0.0,0.0,0.0,0.0,0.0,0.0,0.0,-1.1438,-1.1688,-1.1938,-1.215,-1.2085,-1.2063,-1.2161,-1.1976,-1.1792,-1.1645,-1.1406,0.0,0.0,0.0,0.0,0.0,0.0,0.0,0.0,0.0,0.0,0.0,0.0,0.0,0.0,0.0,0.0,0.0,0.0,0.0,0.0,0.0,0.0,0.0,0.0,0.0,0.0,0.0,0.0,0.0,0.0,0.0,0.0,0.0,0.0,0.0,0.0,0.0,0.0,0.0,0.0,0.0,0.0,0.0,0.0,0.0,0.0,0.0,0.0,0.0,0.0,0.0,0.0,0.0,0.0,0.0,0.0,0.0,0.0,0.0,-1.2605,-1.2551,0.0,0.0,0.0,0.0,0.0,0.0,0.0,0.0,0.0,0.0,0.0,0.0,0.0,0.0,0.0,0.0,0.0,0.0,0.0,0.0,0.0,0.0,0.0,0.0,0.0,0.0,0.0,0.0,0.0,0.0,0.0,0.0,0.0,0.0,0.0,0.0,0.0,0.0,0.0,0.0,-1.1351,-1.158,-1.1803,-1.1982,-1.1944,-1.1933,-1.1998,-1.1835,-1.1705,-1.1639,-1.1357,0.0,0.0,0.0,0.0,0.0,0.0,0.0,0.0,0.0,0.0,0.0,0.0,0.0,0.0,0.0,0.0,0.0,0.0,0.0,0.0,0.0,0.0,0.0,0.0,0.0,0.0,0.0,0.0,0.0,0.0,0.0,0.0,0.0,0.0,0.0,0.0,0.0,0.0,0.0,0.0,0.0,0.0,0.0,0.0,0.0,0.0,0.0,0.0,0.0,0.0,0.0,0.0,0.0,-1.252,-1.2794,-1.3134,-1.3252,-1.3528,-1.3873,-1.3207,-1.3235,-1.3748,-1.3526,0.0,0.0,0.0,0.0,0.0,0.0,0.0,0.0,0.0,0.0,0.0,0.0,0.0,0.0,0.0,0.0,0.0,0.0,0.0,0.0,0.0,0.0,-1.1368,-1.1368,-1.1536,-1.1629,-1.1389,0.0,0.0,0.0,0.0,0.0,0.0,0.0,0.0,0.0,0.0,0.0,-1.1286,-1.1482,-1.1661,-1.1803,-1.1797,-1.1797,-1.1819,-1.1705,-1.1634,-1.1634,-1.1319,-1.1123,0.0,0.0,0.0,0.0,0.0,0.0,0.0,0.0,0.0,0.0,0.0,0.0,0.0,0.0,0.0,0.0,0.0,0.0,0.0,0.0,0.0,0.0,0.0,0.0,0.0,0.0,0.0,0.0,0.0,0.0,0.0,0.0,-1.0356,-1.034,0.0,0.0,0.0,0.0,0.0,0.0,0.0,0.0,0.0,0.0,0.0,0.0,0.0,-1.0948,-1.1594,-1.1709,-1.2125,-1.2771,-1.3344,-1.3918,-1.4473,-1.4493,-1.444,-1.4428,-1.4383,0.0,-1.4217,-1.4298,0.0,0.0,0.0,0.0,0.0,0.0,0.0,0.0,0.0,0.0,0.0,0.0,0.0,0.0,0.0,0.0,0.0,0.0,0.0,0.0,0.0,0.0,-1.1748,-1.1748,-1.1846,-1.1879,-1.1639,-1.1411,-1.1243,-1.1226,-1.1145,-1.1041,0.0,0.0,0.0,0.0,0.0,0.0,-1.14,-1.146,-1.1569,-1.1797,-1.1721,-1.1705,-1.1808,-1.1705,-1.1634,-1.1634,-1.1395,-1.1204,-1.1107,-1.0987,0.0,0.0,0.0,0.0,0.0,0.0,0.0,0.0,0.0,0.0,0.0,0.0,0.0,0.0,0.0,0.0,0.0,0.0,0.0,0.0,0.0,0.0,0.0,0.0,0.0,0.0,0.0,0.0,0.0,-1.0047,-1.0079,-1.0079,-0.9938,-0.9835,0.0,0.0,0.0,0.0,0.0,0.0,0.0,0.0,0.0,-1.1193,-1.1345,-1.1733,-1.2466,-1.2863,-1.3343,-1.3913,-1.4159,-1.44,-1.474,-1.474,-1.4706,-1.4645,-1.4713,-1.4665,-1.4543,-1.4523,-1.4448,-1.4326,0.0,0.0,0.0,0.0,-1.4095,-1.4129,-1.4346,-1.4373,-1.4292,-1.4143,0.0,0.0,0.0,0.0,0.0,0.0,0.0,-1.2661,-1.246,-1.2363,-1.218,-1.1911,-1.1906,-1.1944,-1.1775,-1.1601,-1.1438,-1.1297,-1.1183,-1.1063,-1.0938,-1.0976,0.0,0.0,0.0,-1.1237,-1.134,-1.1411,-1.1498,-1.1601,-1.1569,-1.1558,-1.1612,-1.1563,-1.1504,-1.1438,-1.127,-1.1123,-1.1003,-1.0884,-1.0764,0.0,0.0,0.0,0.0,0.0,0.0,0.0,0.0,0.0,0.0,0.0,0.0,0.0,0.0,0.0,0.0,0.0,0.0,0.0,0.0,0.0,0.0,0.0,0.0,0.0,0.0,0.0,0.0,-0.9916,-0.9976,-0.9976,-1.0003,-1.0075,0.0,0.0,0.0,0.0,0.0,0.0,-1.1036,-1.1075,-1.1287,-1.18,-1.2161,-1.2657,-1.3313,-1.3776,-1.4212,-1.4618,-1.4709,-1.4814,-1.4855,-1.4855,-1.4835,-1.4801,-1.4801,-1.478,-1.4733,-1.4658,-1.4652,-1.4665,-1.4482,-1.4367,-1.4306,-1.4387,-1.4414,-1.4441,-1.4618,-1.4658,-1.4604,-1.4462,-1.436,-1.4265,-1.4068,0.0,0.0,0.0,0.0,-1.3457,-1.3294,-1.2956,-1.2626,-1.2238,-1.2133,-1.2085,-1.1942,-1.1746,-1.1547,-1.1395,-1.127,-1.1156,-1.1031,-1.1085,0.0,-1.1025,-1.1161,-1.1281,-1.1313,-1.14,-1.1543,-1.1543,-1.1543,-1.1543,-1.1543,-1.1427,-1.1368,-1.1275,-1.1134,-1.1014,-1.0922,-1.0802,-1.0721,-1.0688,0.0,0.0,0.0,0.0,0.0,0.0,0.0,0.0,0.0,0.0,0.0,0.0,0.0,0.0,0.0,0.0,0.0,0.0,0.0,0.0,0.0,0.0,0.0,0.0,0.0,0.0,0.0,0.0,0.0,-1.0356,-1.0454,0.0,0.0,0.0,0.0,-1.1363,-1.1507,-1.1692,-1.1929,-1.2061,-1.2693,-1.3861,-1.3424,-1.343,-1.3997,-1.4003,-1.4074,-1.4309,-1.4772,-1.5031,-1.516,-1.516,-1.5086,-1.4957,-1.4957,-1.4875,-1.4753,-1.4889,-1.478,-1.4536,-1.4665,-1.4543,-1.4333,-1.4618,-1.4719,-1.476,-1.5045,-1.5059,-1.4923,-1.4767,-1.4529,-1.4326,-1.4441,-1.4387,0.0,0.0,-1.3874,-1.3745,-1.3573,-1.3364,-1.3242,-1.3029,-1.2733,-1.2392,-1.224,-1.1821,-1.1493,-1.1596,-1.152,-1.14,-1.1275,0.0,-1.1259,-1.1253,-1.1264,-1.1313,-1.1433,-1.1538,-1.1543,-1.1543,-1.1543,-1.1543,-1.1543,-1.1346,-1.1281,-1.127,-1.1058,-1.0927,-1.0922,-1.0802,-1.0683,-1.065,-1.0645,0.0,0.0,0.0,0.0,0.0,0.0,0.0,0.0,0.0,0.0,0.0,0.0,0.0,0.0,0.0,0.0,0.0,0.0,0.0,0.0,0.0,0.0,0.0,0.0,0.0,0.0,0.0,0.0,-1.1263,-1.1458,0.0,-1.1397,-1.1843,-1.1968,-1.1761,-1.2231,-1.2603,-1.2867,-1.2927,-1.3084,-1.3547,-1.3824,-1.4053,-1.4145,-1.4606,-1.4772,-1.4919,-1.5013,-1.5133,-1.5181,-1.5181,-1.5153,-1.5106,-1.5106,-1.5025,-1.4896,-1.495,-1.4903,-1.4814,-1.4869,-1.4882,-1.4882,-1.4984,-1.5025,-1.5038,-1.5147,-1.5147,-1.5086,-1.4936,-1.4746,-1.459,-1.4645,-1.4624,-1.4534,-1.4644,-1.4499,-1.4342,-1.3986,-1.3837,-1.3607,-1.3204,-1.3029,-1.2831,-1.2651,-1.2254,-1.2005,-1.1955,-1.1688,-1.1324,-1.1281,-1.134,-1.1362,-1.1281,-1.134,-1.1406,-1.1449,-1.1543,-1.1543,-1.1543,-1.1543,-1.1543,-1.1543,-1.1505,-1.1324,-1.1172,-1.1085,-1.0965,-1.0808,-1.0759,-1.0715,-1.0672,-1.0672,-1.0579,0.0,0.0,0.0,0.0,0.0,0.0,0.0,0.0,0.0,0.0,0.0,0.0,0.0,0.0,0.0,0.0,0.0,0.0,0.0,0.0,0.0,0.0,0.0,0.0,0.0,-1.1238,-1.1635,-1.1863,-1.1998,-1.2053,-1.2228,-1.252,-1.2777,-1.2692,-1.3136,-1.3478,-1.3615,-1.3621,-1.3732,-1.3961,-1.4335,-1.4573,-1.4573,-1.504,-1.5181,-1.5181,-1.5181,-1.5181,-1.5181,-1.5181,-1.5181,-1.5181,-1.5181,-1.5099,-1.497,-1.497,-1.4943,-1.4896,-1.4896,-1.495,-1.5031,-1.5031,-1.5031,-1.5031,-1.5031,-1.5031,-1.5018,-1.4923,-1.4821,-1.474,-1.474,-1.474,-1.476,-1.4862,-1.4821,-1.4662,-1.4343,-1.4277,-1.4081,-1.3585,-1.3374,-1.326,-1.3166,-1.2787,-1.2432,-1.2254,-1.1743,-1.1335,-1.1335,-1.14,-1.14,-1.1237,-1.1351,-1.1427,-1.1346,-1.1406,-1.1543,-1.1543,-1.1543,-1.1543,-1.1543,-1.1346,-1.1226,-1.1112,-1.0987,-1.0862,-1.0742,-1.0699,-1.0677,-1.0677,-1.0677,-1.0596,-1.0443,0.0,0.0,0.0,0.0,0.0,0.0,0.0,0.0,0.0,0.0,0.0,0.0,0.0,0.0,0.0,0.0,0.0,0.0,0.0,0.0,0.0,0.0,0.0,-1.1237,-1.1389,-1.1715,-1.221,-1.2093,-1.2513,-1.3771,-1.3563,-1.3553,-1.401,-1.4016,-1.4081,-1.4315,-1.4322,-1.4573,-1.5181,-1.5181,-1.5181,-1.5181,-1.5181,-1.5181,-1.5181,-1.5181,-1.5181,-1.5181,-1.5181,-1.5181,-1.5181,-1.5181,-1.5106,-1.4977,-1.497,-1.4882,-1.474,-1.474,-1.474,-1.474,-1.474,-1.474,-1.474,-1.474,-1.474,-1.474,-1.474,-1.474,-1.474,-1.474,-1.474,-1.474,-1.474,-1.4733,-1.4699,-1.455,-1.4509,-1.4468,-1.4333,-1.3945,-1.3591,-1.3591,-1.323,-1.2787,-1.2343,-1.181,-1.1543,-1.1543,-1.1543,-1.1378,-1.115,-1.1308,0.0,-1.1145,-1.1313,-1.1543,-1.1533,-1.1533,-1.1533,-1.1533,-1.1123,-1.0976,-1.1096,-1.077,-1.0623,-1.0732,-1.0623,-1.0563,-1.0563,-1.0639,-1.0639,-1.0639,0.0,0.0,0.0,0.0,0.0,0.0,0.0,0.0,0.0,0.0,0.0,0.0,0.0,0.0,0.0,0.0,0.0,0.0,0.0,0.0,0.0,-1.2046,-1.2296,-1.2284,-1.2635,-1.3052,-1.3488,-1.3565,-1.3731,-1.3919,-1.4166,-1.433,-1.425,-1.4534,-1.4785,-1.4926,-1.4939,-1.5046,-1.5181,-1.5181,-1.5181,-1.5181,-1.5181,-1.5181,-1.5181,-1.5181,-1.5181,-1.5181,-1.5181,-1.5181,-1.5181,-1.5181,-1.516,-1.5113,-1.5011,-1.4882,-1.474,-1.474,-1.474,-1.474,-1.474,-1.474,-1.474,-1.474,-1.474,-1.474,-1.474,-1.474,-1.474,-1.474,-1.474,-1.474,-1.474,-1.4658,-1.4563,-1.4523,-1.4434,-1.4346,-1.4306,-1.421,-1.4122,-1.4122,-1.3502,-1.2875,-1.2698,-1.2077,-1.1543,-1.1543,-1.1543,-1.1433,-1.1368,-1.1411,0.0,-1.1368,-1.1417,-1.1389,-1.1221,-1.1199,-1.1199,-1.1199,-1.1112,-1.1069,-1.1101,-1.1009,-1.0889,-1.0742,-1.0704,-1.0688,-1.0688,-1.0601,-1.0639,0.0,0.0,0.0,0.0,0.0,0.0,0.0,0.0,0.0,0.0,0.0,0.0,0.0,0.0,0.0,0.0,0.0,0.0,0.0,0.0,0.0,0.0,-1.2487,-1.2861,-1.3078,-1.3329,-1.3661,-1.4116,-1.4175,-1.4236,-1.4527,-1.4553,-1.4587,-1.4679,-1.4965,-1.5099,-1.5181,-1.5181,-1.5181,-1.5181,-1.5181,-1.5181,-1.5181,-1.5181,-1.5181,-1.5181,-1.5181,-1.5181,-1.5181,-1.5181,-1.5181,-1.5181,-1.5181,-1.5181,-1.5174,-1.5092,-1.493,-1.4733,0.0,0.0,0.0,0.0,-1.4557,-1.4557,-1.4557,-1.4557,-1.4557,-1.4557,-1.4557,-1.4557,-1.4557,-1.4557,-1.4557,-1.4557,-1.4489,-1.4421,-1.4421,-1.436,-1.4299,-1.4299,-1.4299,-1.4299,-1.4299,-1.3856,-1.3407,-1.2964,-1.2432,0.0,-1.1543,-1.1543,-1.1422,-1.1324,-1.1389,-1.1422,-1.1319,-1.1395,-1.14,-1.1264,-1.1248,-1.1248,-1.1248,-1.1161,0.0,0.0,0.0,-1.0862,-1.0666,-1.0661,0.0,0.0,0.0,-1.0579,-1.0628,-1.0568,0.0,0.0,-1.0601,-1.0617,0.0,0.0,0.0,0.0,0.0,0.0,0.0,0.0,0.0,0.0,0.0,0.0,0.0,0.0,0.0,0.0,-1.3017,-1.3302,-1.3607,-1.3695,-1.3878,-1.4278,-1.4223,-1.4415,-1.5153,-1.4805,-1.4711,-1.5181,-1.5181,-1.5181,-1.5181,-1.5181,0.0,0.0,0.0,-1.5181,-1.5181,-1.5181,-1.5181,-1.5181,-1.5181,-1.5181,-1.5181,-1.5181,-1.5181,-1.5181,-1.5181,-1.5174,-1.516,-1.516,-1.4984,-1.4699,-1.455,-1.4414,-1.4299,-1.4299,-1.4299,-1.4299,-1.4299,0.0,0.0,-1.4299,-1.4299,-1.4299,-1.4299,-1.4299,-1.4299,-1.4299,-1.4299,-1.4299,-1.4299,-1.4299,-1.4299,-1.4299,-1.4299,-1.4299,-1.4299,-1.4299,-1.3945,-1.3147,-1.2875,-1.252,-1.1721,-1.1543,-1.1384,-1.1172,-1.1319,-1.1378,-1.1166,-1.1324,-1.1533,-1.1417,-1.1417,0.0,-1.1417,-1.1221,-1.1107,-1.1123,-1.0895,-1.0704,-1.0579,-1.0574,-1.0574,-1.0574,-1.0574,-1.0628,-1.0737,-1.0737,-1.0737,-1.0732,-1.0525,-1.0481,0.0,0.0,0.0,0.0,0.0,0.0,0.0,0.0,0.0,0.0,0.0,0.0,0.0,0.0,0.0,-1.3017,-1.3241,-1.3458,-1.3756,-1.4116,-1.4373,-1.4462,-1.4649,-1.4898,-1.5167,-1.5087,-1.5087,-1.5181,-1.5181,-1.5181,-1.5181,-1.5181,-1.5181,-1.5181,-1.5181,-1.5181,-1.5181,-1.5181,-1.5181,-1.5181,-1.5181,0.0,-1.5181,-1.5181,-1.5181,-1.5181,-1.5181,-1.512,-1.5011,-1.5011,-1.4828,-1.4543,-1.4394,-1.4326,-1.4299,-1.4299,-1.4299,-1.4299,-1.4299,-1.4299,-1.4299,-1.4299,-1.4299,-1.4299,-1.4299,-1.4299,0.0,-1.4299,-1.4299,-1.4299,-1.4299,-1.4299,-1.4299,-1.4299,-1.4299,-1.4299,-1.4299,-1.4033,-1.3679,-1.3502,-1.2875,-1.2254,-1.2077,-1.1721,-1.1438,-1.1395,-1.1516,-1.1438,-1.1395,-1.1427,-1.1384,-1.1194,-1.1172,-1.1172,-1.1172,-1.1128,-1.1145,-1.1232,-1.1014,-1.0829,-1.0704,-1.0704,-1.0704,-1.0704,-1.0704,-1.0715,-1.0737,-1.0737,-1.0737,-1.0737,-1.0688,-1.0683,0.0,0.0,0.0,0.0,0.0,0.0,0.0,0.0,0.0,0.0,0.0,-1.2271,-1.2569,0.0,-1.2983,-1.3437,-1.3573,-1.3749,-1.4122,-1.4367,-1.4509,-1.4509,-1.4848,-1.5106,-1.5174,-1.5181,-1.5181,-1.5181,-1.5181,-1.5181,-1.5181,-1.5181,-1.5181,-1.5181,-1.5181,-1.5181,-1.5181,-1.5181,-1.5181,-1.5181,-1.5181,-1.5181,-1.5181,-1.5181,-1.5181,-1.5181,-1.5181,-1.5099,-1.4957,-1.4808,-1.4652,-1.4496,-1.4353,-1.4299,-1.4299,-1.4299,-1.4299,-1.4299,-1.4299,-1.4299,-1.4299,-1.4299,-1.4299,-1.4299,-1.4299,-1.4299,-1.4299,-1.4299,-1.4299,-1.4299,-1.4299,-1.4299,-1.4299,-1.4299,-1.4299,-1.4299,-1.4299,-1.4122,-1.3856,-1.3679,-1.323,-1.2787,-1.2609,-1.2165,-1.181,-1.1543,-1.1543,-1.1543,-1.1543,-1.1543,-1.1411,-1.1291,-1.1281,-1.1281,-1.1281,-1.1221,-1.1188,-1.1188,-1.102,-1.0862,-1.0742,-1.0737,-1.0737,-1.0737,-1.0737,-1.0737,-1.0737,-1.0737,-1.0737,-1.0737,-1.0737,-1.0737,0.0,0.0,0.0,0.0,0.0,0.0,0.0,-1.202,-1.2054,-1.2393,-1.244,-1.2549,-1.2969,-1.3119,-1.3315,-1.377,-1.3838,-1.3987,-1.4414,-1.4523,-1.457,-1.4597,-1.4943,-1.5181,-1.5181,-1.5181,-1.5181,-1.5181,-1.5181,-1.5181,-1.5181,-1.5181,-1.5181,-1.5181,-1.5181,-1.5181,-1.5181,-1.5181,-1.5181,-1.5181,-1.5181,-1.5181,-1.5181,-1.5181,-1.5181,-1.5181,-1.512,-1.5018,-1.4862,-1.4584,-1.4468,-1.4462,-1.4346,-1.4299,-1.4299,-1.4299,-1.4299,-1.4299,-1.4299,-1.4299,-1.4299,-1.4299,-1.4299,-1.4299,-1.4299,-1.4299,-1.4299,-1.4299,-1.4299,-1.4299,-1.4299,-1.4299,-1.4299,-1.4299,-1.4299,-1.4299,-1.4299,-1.4299,-1.421,-1.3768,-1.3679,-1.3502,-1.3141,-1.2609,-1.2077,-1.1721,-1.1543,-1.1543,-1.1543,-1.1543,-1.1543,-1.1543,-1.1543,-1.1543,-1.1543,-1.1362,-1.1259,-1.1145,-1.102,-1.09,-1.0775,-1.0748,-1.0748,-1.077,-1.077,-1.077,-1.077,-1.077,-1.0759,-1.0737,-1.0737,-1.0737,-1.1633,-1.1796,-1.2094,-1.223,-1.2264,-1.24,0.0,-1.2712,-1.2549,-1.2983,-1.2976,-1.2983,-1.3295,-1.3254,-1.3315,-1.377,-1.3838,-1.3953,-1.4278,-1.455,-1.4767,-1.4903,-1.5072,-1.5181,-1.5181,-1.5181,-1.5181,-1.5181,-1.5181,-1.5181,-1.5181,-1.5181,-1.5181,-1.5181,-1.5181,-1.5181,-1.5181,-1.5181,-1.5181,-1.5181,-1.5181,-1.5181,-1.5181,-1.5181,-1.5181,-1.5167,-1.4903,-1.4706,-1.455,-1.4387,-1.4326,-1.4326,-1.4306,-1.4299,-1.4299,-1.4299,-1.4299,-1.4299,-1.4299,-1.4299,-1.4299,-1.4299,-1.4299,-1.4299,-1.4299,-1.4299,-1.4299,-1.4299,-1.4299,-1.4299,-1.4299,-1.4299,-1.4299,-1.4299,-1.4299,-1.4299,-1.4299,-1.4299,-1.4299,-1.421,-1.3856,-1.3591,-1.3502,-1.2787,-1.2165,-1.2165,-1.181,-1.1543,-1.1543,-1.1543,-1.1543,-1.1543,-1.1543,-1.1543,-1.1543,-1.1533,-1.1384,-1.1259,-1.1145,-1.1025,-1.0905,-1.0797,-1.0786,-1.0895,-1.09,-1.09,-1.09,-1.09,-1.0846,-1.0737,-1.0737,-1.0737,-1.2203,-1.2291,-1.2379,-1.2623,-1.2678,-1.2725,-1.2881,-1.2773,-1.2739,-1.3098,-1.3125,-1.3173,-1.3478,-1.3485,-1.3553,-1.3919,-1.3973,-1.4109,-1.4502,-1.4665,-1.4828,-1.5065,-1.5147,-1.5181,-1.5181,-1.5181,-1.5181,-1.5181,-1.5181,-1.5181,-1.5181,-1.5181,-1.5181,-1.5181,-1.5181,-1.5181,-1.5181,-1.5181,-1.5181,-1.5181,-1.5181,-1.5181,-1.5181,-1.5181,-1.514,-1.5045,-1.4835,-1.4652,-1.4502,-1.436,-1.4299,-1.4299,-1.4299,-1.4299,-1.4299,-1.4299,-1.4299,-1.4299,-1.4299,-1.4299,-1.4299,-1.4299,-1.4299,-1.4299,-1.4299,-1.4299,-1.4299,-1.4299,-1.4299,-1.4299,-1.4299,-1.4299,-1.4299,-1.4299,-1.4299,-1.4299,-1.4299,-1.4299,-1.4299,-1.4299,-1.4122,-1.4033,-1.4033,-1.3502,-1.2875,-1.2609,-1.1988,-1.1543,-1.1543,-1.1543,-1.1543,-1.1543,-1.1543,-1.1543,-1.1543,-1.1543,-1.14,-1.1281,-1.1226,-1.115,-1.1031,-1.0976,-1.0971,-1.1025,-1.1025,-1.0992,-1.0922,-1.0922,-1.0857,-1.0737,-1.0737,-1.0737,-1.2406,-1.2522,-1.2562,-1.2834,-1.2963,-1.299,-1.2874,-1.2854,-1.2922,-1.318,-1.3234,-1.3315,-1.358,-1.3593,-1.3661,-1.396,-1.4007,-1.415,-1.4563,-1.4652,-1.4774,-1.5031,-1.5059,-1.5059,-1.5059,-1.5133,-1.5181,-1.5181,-1.5181,-1.5181,-1.5181,-1.5181,-1.5181,-1.5181,-1.5181,-1.5181,-1.5181,-1.5181,-1.5181,-1.5181,-1.5181,-1.5181,-1.5181,-1.514,-1.5025,-1.4841,-1.4726,-1.459,-1.4441,-1.434,-1.4299,-1.4299,-1.4299,-1.4299,-1.4299,-1.4299,-1.4299,-1.4299,-1.4299,-1.4299,-1.4299,-1.4299,-1.4299,-1.4299,-1.4299,-1.4299,-1.4299,-1.4299,-1.4299,-1.4299,-1.4299,-1.4299,-1.4299,-1.4299,-1.4299,-1.4299,-1.4299,-1.4299,-1.4299,-1.4299,-1.4299,-1.4299,-1.4299,-1.3945,-1.3502,-1.3147,-1.2432,-1.181,-1.1543,-1.1543,-1.1543,-1.1543,-1.1543,-1.1543,-1.1543,-1.1543,-1.1417,-1.133,-1.1291,-1.1237,-1.1156,-1.1118,-1.1118,-1.115,-1.1118,-1.1058,-1.0971,-1.0938,-1.0857,-1.0737,-1.0737,-1.0737,-1.1999,-1.2284,-1.2542,-1.2698,-1.2956,-1.3166,-1.3159,-1.3159,-1.3207,-1.3363,-1.3397,-1.3444,-1.36,-1.3505,-1.3505,-1.3797,-1.3844,-1.396,-1.4272,-1.4434,-1.4577,-1.4733,-1.4753,-1.4753,-1.4753,-1.5011,-1.5181,-1.5181,-1.5181,-1.5181,-1.5181,-1.5181,-1.5181,-1.5181,-1.5181,-1.5181,-1.5181,-1.5181,-1.5181,-1.5181,-1.5181,-1.5181,-1.5174,-1.5038,-1.4814,-1.4523,-1.4523,-1.4434,-1.4306,-1.4299,-1.4299,-1.4299,-1.4299,-1.4299,-1.4299,-1.4299,-1.4299,-1.4299,-1.4299,-1.4299,-1.4299,-1.4299,-1.4299,-1.4299,-1.4299,-1.4299,-1.4299,-1.4299,-1.4299,-1.4299,-1.4299,-1.4299,-1.4299,-1.4299,-1.4299,-1.4299,-1.4299,-1.4299,-1.4299,-1.4299,-1.4299,-1.4299,-1.4299,-1.3945,-1.3591,-1.3591,-1.3141,-1.252,-1.1632,-1.1543,-1.1543,-1.1543,-1.1543,-1.1543,-1.1543,-1.1543,-1.1543,-1.1449,-1.134,-1.127,-1.1264,-1.1161,-1.1156,-1.1264,-1.1161,-1.1101,-1.1096,-1.0976,-1.0857,-1.0737,-1.0737,-1.0737,-1.2271,-1.2576,-1.2888,-1.3241,-1.3403,-1.3498,-1.3593,-1.3614,-1.36,-1.3559,-1.3471,-1.3383,-1.3336,-1.3288,-1.3349,-1.3648,-1.3777,-1.398,-1.4387,-1.457,-1.4679,-1.4733,-1.4828,-1.4855,-1.4753,-1.4923,-1.5038,-1.5038,-1.5126,-1.5181,-1.5181,-1.5181,-1.5181,-1.5181,-1.5181,-1.5181,-1.5181,-1.5181,-1.5181,-1.5181,-1.5086,-1.5038,-1.5038,-1.4882,-1.4706,-1.4509,-1.4509,-1.4428,-1.4299,-1.4299,-1.4299,-1.4299,-1.4299,-1.4299,-1.4299,-1.4299,-1.4299,-1.4299,-1.4299,-1.4299,-1.4299,-1.4299,-1.4299,-1.4299,-1.4299,-1.4299,-1.4299,-1.4299,-1.4299,-1.4299,-1.4299,-1.4299,-1.4299,-1.4299,-1.4299,-1.4299,-1.4299,-1.4299,-1.4299,-1.4299,-1.4299,-1.4299,-1.4299,-1.421,-1.3945,-1.3679,-1.2964,-1.2343,-1.1988,-1.1721,-1.1543,-1.1543,-1.1543,-1.1543,-1.1543,-1.1543,-1.1543,-1.1543,-1.1505,-1.1395,-1.1395,-1.1357,-1.1313,-1.1275,-1.1232,-1.1139,-1.0982,-1.0938,-1.0857,-1.0737,-1.0737,-1.0737,-1.2556,-1.2847,-1.3132,-1.3532,-1.3668,-1.3729,-1.3817,-1.3804,-1.3736,-1.3648,-1.3424,-1.3214,-1.3112,-1.3051,-1.3112,-1.3417,-1.3634,-1.3919,-1.4373,-1.4563,-1.4658,-1.4658,-1.4794,-1.4828,-1.4672,-1.4848,-1.497,-1.497,-1.5106,-1.516,-1.5113,-1.5153,-1.516,-1.5106,-1.5153,-1.5181,-1.5181,-1.5181,-1.5181,-1.5181,-1.5038,-1.4943,-1.4882,-1.4726,-1.4577,-1.4434,-1.4434,-1.4387,-1.4299,-1.4299,-1.4299,-1.4299,-1.4299,-1.4299,-1.4299,-1.4299,-1.4299,-1.4299,-1.4299,-1.4299,-1.4299,-1.4299,-1.4299,-1.4299,-1.4299,-1.4299,-1.4299,-1.4299,-1.4299,-1.4299,-1.4299,-1.4299,-1.4299,-1.4299,-1.4299,-1.4299,-1.4299,-1.4299,-1.4299,-1.4299,-1.4299,-1.4299,-1.4299,-1.4299,-1.421,-1.3856,-1.323,-1.2609,-1.2254,-1.1899,-1.1721,-1.1543,-1.1543,-1.1543,-1.1543,-1.1543,-1.1543,-1.1543,-1.1543,-1.1543,-1.1543,-1.1411,-1.1351,-1.1275,-1.1188,-1.1074,-1.0922,-1.0878,-1.0813,-1.0737,-1.0737,-1.0737,-1.2813,-1.3078,-1.3268,-1.3573,-1.3749,-1.3851,-1.3851,-1.3749,-1.3641,-1.3614,-1.3261,-1.2956,-1.2929,-1.282,-1.2827,-1.3125,-1.3444,-1.3804,-1.4251,-1.4441,-1.4529,-1.4523,-1.4658,-1.4692,-1.4536,-1.4794,-1.497,-1.497,-1.5106,-1.5126,-1.4991,-1.5113,-1.512,-1.4984,-1.5113,-1.5181,-1.5181,-1.5181,-1.5181,-1.5181,-1.5031,-1.4882,-1.4733,-1.457,-1.4428,-1.4299,-1.4299,-1.4299,-1.4299,-1.4299,-1.4299,-1.4299,-1.4299,-1.4299,-1.4299,-1.4299,-1.4299,-1.4299,-1.4299,-1.4299,-1.4299,-1.4299,-1.4299,-1.4299,-1.4299,-1.4299,-1.4299,-1.4299,-1.4299,-1.4299,-1.4299,-1.4299,-1.4299,-1.4299,-1.4299,-1.4299,-1.4299,-1.4299,-1.4299,-1.4299,-1.4299,-1.4299,-1.4299,-1.4299,-1.4299,-1.4299,-1.3945,-1.3318,-1.2432,-1.2254,-1.1988,-1.1543,-1.1543,-1.1543,-1.1543,-1.1543,-1.1543,-1.1543,-1.1543,-1.1543,-1.1543,-1.1335,-1.127,-1.1264,-1.1036,-1.0916,-1.0911,-1.0791,-1.0737,-1.0737,-1.0737,-1.0737,-1.3051,-1.3308,-1.3587,-1.3885,-1.3987,-1.4014,-1.4014,-1.3987,-1.3831,-1.3383,-1.3112,-1.2861,-1.2522,-1.261,-1.2827,-1.3125,-1.3614,-1.4075,-1.4414,-1.4685,-1.4814,-1.4699,-1.4821,-1.4855,-1.4699,-1.4855,-1.497,-1.497,-1.5106,-1.5167,-1.5126,-1.516,-1.5167,-1.5126,-1.516,-1.5181,-1.5181,-1.5181,-1.5181,-1.5181,-1.4923,-1.478,-1.4733,-1.4475,-1.4333,-1.4299,-1.4299,-1.4299,-1.4299,-1.4299,-1.4299,-1.4299,-1.4299,-1.4299,-1.4299,-1.4299,-1.4299,-1.4299,-1.4299,-1.4299,-1.4299,-1.4299,-1.4299,-1.4299,-1.4299,-1.4299,-1.4299,-1.4299,-1.4299,-1.4299,-1.4299,-1.4299,-1.4299,-1.4299,-1.4299,-1.4299,-1.4299,-1.4299,-1.4299,-1.4299,-1.4299,-1.4299,-1.4299,-1.4299,-1.4299,-1.4299,-1.421,-1.3945,-1.3325,-1.2609,-1.2165,-1.1988,-1.1721,-1.1543,-1.1543,-1.1543,-1.1543,-1.1543,-1.1543,-1.1543,-1.1543,-1.1335,-1.1232,-1.115,-1.0998,-1.0873,-1.078,-1.0753,-1.0737,-1.0737,-1.0737,-1.0737,-1.339,-1.3641,-1.3865,-1.4034,-1.4122,-1.4122,-1.3926,-1.3824,-1.3627,-1.3091,-1.2759,-1.2488,-1.2237,-1.2379,-1.261,-1.284,-1.3492,-1.4075,-1.4373,-1.474,-1.4936,-1.4855,-1.497,-1.5004,-1.4855,-1.4977,-1.5038,-1.4977,-1.5106,-1.5153,-1.5092,-1.5147,-1.5153,-1.5092,-1.5153,-1.5181,-1.5181,-1.5181,-1.5181,-1.5181,-1.4882,-1.474,-1.4726,-1.4434,-1.4299,-1.4299,-1.4299,-1.4299,-1.4299,-1.4299,-1.4299,-1.4299,-1.4299,-1.4299,-1.4299,-1.4299,-1.4299,-1.4299,-1.4299,-1.4299,-1.4299,-1.4299,-1.4299,-1.4299,-1.4299,-1.4299,-1.4299,-1.4299,-1.4299,-1.4299,-1.4299,-1.4299,-1.4299,-1.4299,-1.4299,-1.4299,-1.4299,-1.4299,-1.4299,-1.4299,-1.4299,-1.4299,-1.4299,-1.4299,-1.4299,-1.4299,-1.4299,-1.421,-1.3945,-1.3236,-1.2698,-1.2254,-1.1988,-1.1721,-1.1543,-1.1543,-1.1543,-1.1543,-1.1543,-1.1433,-1.1378,-1.1259,-1.1145,-1.1025,-1.09,-1.0808,-1.0737,-1.0737,-1.0737,-1.0737,-1.0737,-1.0737,-1.3756,-1.3966,-1.4075,-1.4095,-1.4359,-1.4412,-1.3702,-1.3645,-1.3472,-1.2745,-1.2332,-1.2121,-1.2013,-1.2142,-1.2318,-1.2501,-1.3268,-1.3953,-1.4285,-1.4713,-1.4997,-1.4997,-1.5106,-1.5126,-1.4984,-1.5079,-1.5092,-1.495,-1.5052,-1.5072,-1.4943,-1.5079,-1.5106,-1.5004,-1.512,-1.5181,-1.5181,-1.5181,-1.5181,-1.5181,-1.4882,-1.474,-1.4726,-1.4434,-1.4299,-1.4299,-1.4299,-1.4299,-1.4299,-1.4299,-1.4299,-1.4299,-1.4299,-1.4299,-1.4299,-1.4299,-1.4299,-1.4299,-1.4299,-1.4299,-1.4299,-1.4299,-1.4299,-1.4299,-1.4299,-1.4299,-1.4299,-1.4299,-1.4299,-1.4299,-1.4299,-1.4299,-1.4299,-1.4299,-1.4299,-1.4299,-1.4299,-1.4299,-1.4299,-1.4299,-1.4299,-1.4299,-1.4299,-1.4299,-1.4299,-1.4299,-1.4299,-1.4299,-1.4299,-1.3856,-1.3318,-1.2432,-1.2254,-1.2077,-1.1632,-1.1543,-1.1449,-1.1433,-1.1433,-1.1378,-1.1253,-1.1139,-1.1031,-1.0922,-1.0797,-1.0737,-1.0737,-1.0737,-1.0737,-1.0737,-1.0737,-1.0737,-1.3946,-1.4048,-1.4102,-1.4231,-1.5308,-1.5777,-1.3874,-1.4467,-1.4769,-1.2623,-1.2115,-1.1986,-1.1742,-1.1918,-1.223,-1.2623,-1.3336,-1.3987,-1.4414,-1.4862,-1.5147,-1.5147,-1.5167,-1.5126,-1.4984,-1.4991,-1.4943,-1.4794,-1.4801,-1.4808,-1.478,-1.4923,-1.5052,-1.5147,-1.5167,-1.5181,-1.5181,-1.5181,-1.5181,-1.5181,-1.4882,-1.474,-1.4726,-1.4434,-1.4299,-1.4299,-1.4299,-1.4299,-1.4299,-1.4299,-1.4299,-1.4299,-1.4299,-1.4299,-1.4299,-1.4299,-1.4299,-1.4299,-1.4299,-1.4299,-1.4299,-1.4299,-1.4299,-1.4299,-1.4299,-1.4299,-1.4299,-1.4299,-1.4299,-1.4299,-1.4299,-1.4299,-1.4299,-1.4299,-1.4299,-1.4299,-1.4299,-1.4299,-1.4299,-1.4299,-1.4299,-1.4299,-1.4299,-1.4299,-1.4299,-1.4299,-1.4299,-1.4299,-1.4299,-1.3856,-1.3502,-1.3407,-1.2698,-1.2165,-1.2077,-1.1721,-1.1411,-1.1308,-1.1302,-1.1253,-1.1134,-1.1014,-1.0938,-1.0922,-1.0797,-1.0737,-1.0737,-1.0737,-1.0737,-1.0737,-1.0737,-1.0737,-1.4109,-1.419,-1.4467,-1.5499,-1.6253,-1.6531,-1.5902,-1.6313,-1.6225,-1.4539,-1.4204,-1.3866,-1.299,-1.3088,-1.3115,-1.2512,-1.3139,-1.3831,-1.4122,-1.4618,-1.5011,-1.5167,-1.5181,-1.5126,-1.4984,-1.497,-1.4875,-1.4638,-1.4618,-1.4658,-1.4733,-1.4889,-1.5038,-1.5174,-1.5181,-1.5181,-1.5181,-1.5181,-1.5181,-1.5181,-1.4882,-1.474,-1.4726,-1.4434,-1.4299,-1.4299,-1.4299,-1.4299,-1.4299,-1.4299,-1.4299,-1.4299,-1.4299,-1.4299,-1.4299,-1.4299,-1.4299,-1.4299,-1.4299,-1.4299,-1.4299,-1.4299,-1.4299,-1.4299,-1.4299,-1.4299,-1.4299,-1.4299,-1.4299,-1.4299,-1.4299,-1.4299,-1.4299,-1.4299,-1.4299,-1.4299,-1.4299,-1.4299,-1.4299,-1.4299,-1.4299,-1.4299,-1.4299,-1.4299,-1.4299,-1.4299,-1.4299,-1.4299,-1.4299,-1.4122,-1.3856,-1.3591,-1.2964,-1.2432,-1.2254,-1.1748,-1.1335,-1.1275,-1.1215,-1.1128,-1.1014,-1.0949,-1.0889,-1.0824,-1.0764,-1.0737,-1.0737,-1.0737,-1.0737,-1.0737,-1.0737,-1.0737,-1.4299,-1.4564,-1.5264,-1.6745,-1.7438,-1.7873,-1.799,-1.8047,-1.772,-1.6411,-1.5849,-1.5292,-1.4093,-1.3864,-1.3454,-1.2291,-1.2834,-1.3512,-1.3715,-1.4292,-1.4787,-1.5059,-1.512,-1.5079,-1.4936,-1.4889,-1.476,-1.4489,-1.4468,-1.4529,-1.4685,-1.4869,-1.5025,-1.5133,-1.5167,-1.5181,-1.5181,-1.5181,-1.5181,-1.5181,-1.4882,-1.474,-1.4726,-1.4434,-1.4299,-1.4299,-1.4299,-1.4299,-1.4299,-1.4299,-1.4299,-1.4299,-1.4299,-1.4299,-1.4299,-1.4299,-1.4299,-1.4299,-1.4299,-1.4299,-1.4299,-1.4299,-1.4299,-1.4299,-1.4299,-1.4299,-1.4299,-1.4299,-1.4299,-1.4299,-1.4299,-1.4299,-1.4299,-1.4299,-1.4299,-1.4299,-1.4299,-1.4299,-1.4299,-1.4299,-1.4299,-1.4299,-1.4299,-1.4299,-1.4299,-1.4299,-1.4299,-1.4299,-1.4299,-1.4299,-1.4122,-1.3768,-1.323,-1.2686,-1.2213,-1.1593,-1.1253,-1.1199,-1.1112,-1.1009,-1.0884,-1.0878,-1.0835,-1.0737,-1.0737,-1.0737,-1.0737,-1.0737,-1.0737,-1.0737,-1.0737,-1.0737,-1.4615,-1.5521,-1.6912,-1.7088,-1.9314,-2.0797,-1.851,-1.8936,-1.9053,-1.6596,-1.5008,-1.4093,-1.3951,-1.279,-1.1907,-1.2094,-1.2481,-1.2963,-1.3383,-1.4068,-1.459,-1.476,-1.4903,-1.493,-1.4774,-1.4638,-1.4489,-1.4333,-1.4319,-1.438,-1.4523,-1.4814,-1.4977,-1.4991,-1.5113,-1.5181,-1.5181,-1.5181,-1.5181,-1.5181,-1.4882,-1.474,-1.4726,-1.4434,-1.4299,-1.4299,-1.4299,-1.4299,-1.4299,-1.4299,-1.4299,-1.4299,-1.4299,-1.4299,-1.4299,-1.4299,-1.4299,-1.4299,-1.4299,-1.4299,-1.4299,-1.4299,-1.4299,-1.4299,-1.4299,-1.4299,-1.4299,-1.4299,-1.4299,-1.4299,-1.4299,-1.4299,-1.4299,-1.4299,-1.4299,-1.4299,-1.4299,-1.4299,-1.4299,-1.4299,-1.4299,-1.4299,-1.4299,-1.4299,-1.4299,-1.4299,-1.4299,-1.4299,-1.4299,-1.4299,-1.4299,-1.421,-1.3407,-1.265,-1.2086,-1.1543,-1.1183,-1.0965,-1.0944,-1.0884,-1.0759,-1.0753,-1.0748,-1.0737,-1.0737,-1.0737,-1.0737,-1.0737,-1.0737,-1.0737,-1.0737,-1.0737,-1.7459,-1.8131,-1.909,-2.0134,-2.1081,-2.1594,-2.1177,-2.1125,-2.0727,-1.9208,-1.8401,-1.7409,-1.5575,-1.4819,-1.3946,-1.2192,-1.2298,-1.2718,-1.3085,-1.362,-1.4136,-1.4557,-1.4658,-1.4706,-1.4733,-1.4604,-1.4455,-1.4312,-1.438,-1.4448,-1.4509,-1.4713,-1.4875,-1.497,-1.5106,-1.5181,-1.5181,-1.5181,-1.514,-1.5052,-1.4841,-1.4692,-1.4597,-1.4394,-1.4299,-1.4299,-1.4299,-1.4299,-1.4299,-1.4299,-1.4299,-1.4299,-1.4299,-1.4299,-1.4299,-1.4299,-1.4299,-1.4299,-1.4299,-1.4299,-1.4299,-1.4299,-1.4299,-1.4299,-1.4299,-1.4299,-1.4299,-1.4299,-1.4299,-1.4299,-1.4299,-1.4299,-1.4299,-1.4299,-1.4299,-1.4299,-1.4299,-1.4299,-1.4299,-1.4299,-1.4299,-1.4299,-1.4299,-1.4299,-1.4299,-1.4299,-1.4299,-1.4299,-1.4299,-1.4033,-1.3768,-1.3502,-1.3141,-1.2732,-1.2418,-1.1645,-1.1101,-1.0933,-1.0851,-1.0786,-1.0737,-1.0737,-1.0737,-1.0737,-1.0737,-1.0737,-1.0737,-1.0737,-1.0737,-1.0737,-1.0737,-1.0737,-1.9117,-1.9817,-2.0802,-2.2097,-2.2299,-2.236,-2.2871,-2.2455,-2.1643,-2.0904,-2.0318,-1.9203,-1.6642,-1.5873,-1.4805,-1.2182,-1.2135,-1.2461,-1.2725,-1.3186,-1.3682,-1.419,-1.4285,-1.4394,-1.459,-1.4516,-1.4407,-1.4306,-1.4394,-1.4468,-1.4509,-1.4658,-1.4808,-1.4964,-1.5106,-1.5181,-1.5181,-1.514,-1.5072,-1.497,-1.4767,-1.4618,-1.4509,-1.4367,-1.4299,-1.4299,-1.4299,-1.4299,-1.4299,-1.4299,-1.4299,-1.4299,-1.4299,-1.4299,-1.4299,-1.4299,-1.4299,-1.4299,-1.4299,-1.4299,-1.4299,-1.4299,-1.4299,-1.4299,-1.4299,-1.4299,-1.4299,-1.4299,-1.4299,-1.4299,-1.4299,-1.4299,-1.4299,-1.4299,-1.4299,-1.4299,-1.4299,-1.4299,-1.4299,-1.4299,-1.4299,-1.4299,-1.4299,-1.4299,-1.4299,-1.4299,-1.4299,-1.421,-1.4122,-1.3768,-1.3413,-1.2964,-1.2787,-1.2555,-1.233,-1.16,-1.1052,-1.0927,-1.0802,-1.0737,-1.0737,-1.0737,-1.0737,-1.0737,-1.0737,-1.0737,-1.0737,-1.0737,-1.0737,-1.0737,-1.0737,-1.0737,-1.8684,-2.0096,-2.186,-2.1943,-2.2828,-2.3556,-2.2838,-2.2321,-2.1643,-2.0904,-1.9471,-1.7984,-1.663,-1.5069,-1.3443,-1.2022,-1.1965,-1.2121,-1.2277,-1.2807,-1.3295,-1.36,-1.3763,-1.3966,-1.4278,-1.4306,-1.4299,-1.4299,-1.4299,-1.4367,-1.4502,-1.4658,-1.4808,-1.4964,-1.5106,-1.5181,-1.5181,-1.5045,-1.497,-1.497,-1.4658,-1.4516,-1.4509,-1.4367,-1.4299,-1.4299,-1.4299,-1.4299,-1.4299,-1.4299,-1.4299,-1.4299,-1.4299,-1.4299,-1.4299,-1.4299,-1.4299,-1.4299,-1.4299,-1.4299,-1.4299,-1.4299,-1.4299,-1.4299,-1.4299,-1.4299,-1.4299,-1.4299,-1.4299,-1.4299,-1.4299,-1.4299,-1.4299,-1.4299,-1.4299,-1.4299,-1.4299,-1.4299,-1.4299,-1.4299,-1.4299,-1.4299,-1.4299,-1.4299,-1.4299,-1.4299,-1.4299,-1.4122,-1.3679,-1.3591,-1.3413,-1.2964,-1.252,-1.1937,-1.1368,-1.1166,-1.1052,-1.0927,-1.0802,-1.0737,-1.0737,-1.0737,-1.0737,-1.0737,-1.0737,-1.0737,-1.0737,-1.0737,-1.0737,-1.0737,-1.0737,-1.0737,-2.1322,-2.2008,-2.2735,-2.2735,-2.2882,-2.2911,-2.2552,-2.2114,-2.1752,-2.1305,-2.0864,-1.9719,-1.716,-1.6139,-1.489,-1.255,-1.2101,-1.2149,-1.24,-1.2779,-1.3139,-1.3437,-1.3878,-1.419,-1.4292,-1.4299,-1.4299,-1.4299,-1.4387,-1.4509,-1.4658,-1.4713,-1.4808,-1.4964,-1.5106,-1.514,-1.5038,-1.4991,-1.4862,-1.4658,-1.4557,-1.4462,-1.4367,-1.4319,-1.4299,-1.4299,-1.4299,-1.4299,-1.4299,-1.4299,-1.4299,-1.4299,-1.4299,-1.4299,-1.4299,-1.4299,-1.4299,-1.4299,-1.4299,-1.4299,-1.4299,-1.4299,-1.4299,-1.4299,-1.4299,-1.4299,-1.4299,-1.4299,-1.4299,-1.4299,-1.4299,-1.4299,-1.4299,-1.4299,-1.4299,-1.4299,-1.4299,-1.4299,-1.4299,-1.4299,-1.4299,-1.4299,-1.4299,-1.4299,-1.4299,-1.4299,-1.4299,-1.4122,-1.3679,-1.3325,-1.2964,-1.2432,-1.1988,-1.176,-1.1806,-1.134,-1.1052,-1.0927,-1.0802,-1.0737,-1.0737,-1.0737,-1.0737,-1.0737,-1.0737,-1.0737,-1.0737,-1.0737,-1.0737,-1.0737,-1.0737,-1.0737,-2.2066,-2.2552,-2.2818,-2.2818,-2.2624,-2.2358,-2.2029,-2.1836,-2.1643,-2.1378,-2.1402,-2.0764,-1.8267,-1.7146,-1.5884,-1.3597,-1.2663,-1.223,-1.2467,-1.2718,-1.2983,-1.3281,-1.3797,-1.4129,-1.4129,-1.4231,-1.4299,-1.4299,-1.4434,-1.4577,-1.4733,-1.474,-1.4808,-1.4964,-1.4997,-1.4997,-1.497,-1.4855,-1.4699,-1.4509,-1.4455,-1.4387,-1.4299,-1.4299,-1.4299,-1.4299,-1.4299,-1.4299,0.0,-1.4299,-1.4299,-1.4299,-1.4299,-1.4299,-1.4299,-1.4299,-1.4299,-1.4299,-1.4299,-1.4299,-1.4299,-1.4299,-1.4299,-1.4299,-1.4299,-1.4299,-1.4299,-1.4299,-1.4299,-1.4299,-1.4299,-1.4299,-1.4299,-1.4299,-1.4299,-1.421,-1.4033,-1.421,-1.421,-1.4033,-1.421,-1.4299,-1.4299,-1.4299,-1.4299,-1.4299,-1.4299,-1.4033,-1.3413,-1.3053,-1.2609,-1.1988,-1.1632,-1.1583,-1.1718,-1.134,-1.1052,-1.0927,-1.0802,-1.0737,-1.0737,-1.0737,-1.0737,-1.0737,-1.0737,-1.0737,-1.0737,-1.0737,-1.0737,-1.0737,-1.0737,-1.0737,0.0,-2.18,-2.2174,-2.2174,-2.2005,-2.1776,-2.151,-2.1462,0.0,-2.116,-2.1329,-2.1063,-1.9667,-1.8107,-1.6481,-1.4977,-1.3422,-1.2498,-1.2494,-1.2657,-1.2874,-1.3173,-1.358,-1.3838,-1.3824,-1.4122,-1.4306,-1.4285,-1.4448,-1.4597,-1.4719,-1.4733,-1.4808,-1.495,-1.4794,-1.478,-1.4936,-1.4652,-1.4509,-1.4496,-1.4367,-1.4299,-1.4299,-1.4299,-1.4299,-1.4299,-1.4299,-1.4299,-1.4299,-1.4299,-1.4299,-1.4299,-1.4299,-1.4299,-1.4299,-1.4299,-1.4299,-1.4299,-1.4299,-1.4299,-1.4299,-1.4299,-1.4299,-1.4299,-1.4299,-1.4299,-1.4299,-1.4299,-1.4299,-1.4299,-1.4299,-1.4299,-1.4299,-1.4299,-1.4299,-1.421,-1.3768,-1.3945,-1.4122,-1.3768,-1.3945,-1.4299,-1.4299,-1.4299,-1.421,-1.421,-1.421,-1.3856,-1.2964,-1.2875,-1.252,-1.1632,-1.1543,-1.14,-1.127,-1.1161,-1.1052,-1.0927,-1.0802,-1.0737,-1.0737,-1.0737,-1.0737,-1.0737,-1.0737,-1.0737,-1.0737,-1.0737,-1.0737,-1.0737,-1.0737,-1.0737,-2.1256,0.0,-2.1413,-2.1413,-2.1462,-2.1498,0.0,-2.1329,-2.1523,-2.1655,-2.1728,-2.1408,-1.9992,-1.9308,-1.8026,-1.5303,-1.447,-1.3816,-1.2793,-1.2901,-1.318,-1.3485,-1.3709,-1.3797,-1.3688,-1.4156,-1.4367,-1.4143,-1.4584,-1.4774,-1.4577,-1.4679,-1.4753,-1.4794,-1.4536,-1.4475,-1.4618,-1.455,-1.4455,-1.4346,-1.4319,-1.4299,-1.4299,-1.4299,-1.4299,-1.4299,-1.4299,-1.4299,-1.4299,-1.4299,-1.4299,-1.4299,-1.4299,-1.4299,-1.4299,-1.4299,-1.4299,-1.4299,-1.4299,-1.4299,-1.4299,-1.4299,-1.4299,-1.4299,-1.4299,-1.4299,-1.4299,-1.4299,-1.4299,-1.4299,-1.4299,-1.4299,-1.4299,-1.4299,-1.4299,-1.4299,-1.4122,-1.3945,-1.3856,-1.4122,-1.3945,-1.3856,-1.421,-1.4033,-1.3768,-1.3768,-1.3502,-1.3053,-1.2432,-1.2343,-1.2165,-1.1543,-1.1543,-1.1373,-1.1161,-1.1118,-1.1052,-1.0927,-1.0802,-1.0737,-1.0737,-1.0737,-1.0737,-1.0737,-1.0737,-1.0737,-1.0737,-1.0737,-1.0737,-1.0737,-1.0737,-1.0737,-2.1316,-2.1316,-2.1221,-2.1159,-2.1244,-2.1209,-2.1013,-2.1088,-2.1366,-2.1631,-2.1788,-2.1724,-2.1066,-2.0327,-1.9252,-1.7445,-1.6,-1.4602,-1.3141,-1.3071,-1.3261,-1.3498,-1.3654,-1.3715,-1.3634,-1.3973,-1.417,-1.4082,-1.4441,-1.4618,-1.4516,-1.459,-1.4631,-1.4631,-1.4421,-1.4367,-1.4509,-1.4448,-1.4373,-1.4299,-1.4299,-1.4299,-1.4299,-1.4299,-1.4299,-1.4299,-1.4299,-1.4299,-1.4299,-1.4299,-1.4299,-1.4299,-1.4299,-1.4299,-1.4299,-1.4299,-1.4299,-1.4299,-1.4299,-1.4299,-1.4299,-1.4299,-1.4299,-1.4299,-1.4299,-1.4299,-1.4299,-1.4299,-1.4299,-1.4299,-1.4299,-1.4299,-1.4299,-1.4299,-1.4299,-1.421,-1.3768,-1.3768,-1.3856,-1.3679,-1.3768,-1.3945,-1.3945,-1.3768,-1.3502,-1.3318,-1.3053,-1.2698,-1.2254,-1.2165,-1.1988,-1.1543,-1.1543,-1.1378,-1.1194,-1.1183,-1.1107,-1.0933,-1.0857,-1.0819,-1.0819,-1.0819,-1.0797,-1.0737,-1.0737,-1.0737,-1.0737,-1.0737,-1.0737,-1.0737,-1.0737,-1.0737,-2.1462,-2.1559,-2.1583,-2.134,-2.1256,-2.1183,-2.0859,-2.1038,-2.1268,-2.1486,-2.1716,-2.1957,-2.2259,-2.1383,-2.0364,-1.9962,-1.7464,-1.5025,-1.3431,-1.3227,-1.3281,-1.339,-1.3539,-1.3614,-1.3566,-1.3749,-1.3912,-1.4,-1.419,-1.434,-1.4441,-1.4468,-1.4482,-1.4482,-1.4367,-1.436,-1.4475,-1.436,-1.4299,-1.4299,-1.4299,-1.4299,-1.4299,-1.4299,-1.4299,-1.4299,-1.4299,0.0,-1.4299,-1.4299,-1.4299,-1.4299,-1.4299,-1.4299,-1.4299,-1.4299,-1.4299,-1.4299,-1.4299,-1.4299,-1.4299,-1.4299,-1.4299,-1.4299,-1.4299,-1.4299,-1.4299,-1.4299,-1.4299,-1.4299,-1.4299,-1.4299,-1.4299,-1.4299,-1.4299,-1.4033,-1.323,-1.3591,-1.3856,-1.3053,-1.3502,-1.3856,-1.3591,-1.3407,-1.323,-1.2875,-1.2698,-1.252,-1.2165,-1.2077,-1.1899,-1.1543,-1.1543,-1.1406,-1.1281,-1.127,-1.1188,-1.0987,-1.096,-1.0938,-1.0922,-1.09,-1.084,-1.0737,-1.0737,-1.0737,-1.0737,-1.0737,-1.0737,-1.0737,-1.0737,-1.0737,-2.1462,-2.2031,-2.243,-2.1873,-2.1752,-2.1679,-2.1414,-2.139,-2.1486,-2.1752,-2.1836,-2.2017,-2.2576,-2.2289,-2.1528,-2.031,-1.759,-1.5043,-1.359,-1.3478,-1.3519,-1.341,-1.3539,-1.3526,-1.3268,-1.3722,-1.3939,-1.3715,-1.4075,-1.4251,-1.4143,-1.4265,-1.4333,-1.4333,-1.4312,-1.4312,-1.4333,-1.4312,-1.4299,-1.4299,-1.4299,-1.4299,-1.4299,-1.4299,-1.4299,-1.4299,0.0,-1.4299,-1.4299,-1.4299,-1.4299,-1.4299,-1.4299,-1.4299,-1.4299,-1.4299,-1.4299,-1.4299,-1.4299,-1.4299,-1.4299,-1.4299,-1.4299,-1.4299,-1.4299,-1.4299,-1.4299,-1.4299,-1.4299,-1.4299,-1.4299,-1.4299,-1.4299,-1.4299,-1.4299,-1.4122,-1.3591,-1.3318,-1.3053,-1.2964,-1.2698,-1.2609,-1.2964,-1.2698,-1.2432,-1.2343,-1.1988,-1.1721,-1.1632,-1.1632,-1.1543,-1.1543,-1.1543,-1.1406,-1.1281,-1.127,-1.1259,-1.1221,-1.1128,-1.1031,-1.0922,-1.0819,-1.0759,-1.0737,-1.0737,-1.0737,-1.0737,-1.0737,-1.0737,-1.0737,-1.0737,-1.0737,-2.1474,-2.1945,-2.2491,-2.2394,-2.2295,-2.2223,-2.1957,-2.1897,-2.1933,-2.2054,-2.2152,-2.2273,-2.2661,-2.1895,-2.0549,-1.8293,-1.7378,-1.6137,-1.3707,-1.3458,-1.3478,-1.341,-1.3464,-1.3451,-1.3308,-1.3546,-1.3688,-1.3634,-1.3817,-1.3939,-1.3946,-1.4095,-1.4177,-1.4177,-1.4258,-1.4299,-1.4299,-1.4299,-1.4299,-1.4299,-1.4299,-1.4299,-1.4299,-1.4299,-1.4299,-1.4299,0.0,-1.4299,-1.4299,-1.4299,-1.4299,-1.4299,-1.4299,-1.4299,-1.4299,-1.4299,-1.4299,-1.4299,-1.4299,-1.4299,-1.4299,-1.4299,-1.4299,-1.4299,-1.4299,-1.4299,-1.4299,-1.4299,-1.4299,-1.4299,-1.4299,-1.4299,-1.4299,-1.4299,-1.4122,-1.3768,-1.3325,-1.3053,-1.2787,-1.2609,-1.252,-1.2609,-1.252,-1.2343,-1.2077,-1.1899,-1.1632,-1.1543,-1.1543,-1.1543,-1.1543,-1.1543,-1.1543,-1.1522,-1.1378,-1.1373,-1.134,-1.1275,-1.1166,-1.1079,-1.102,-1.0835,-1.0737,-1.0737,-1.0737,-1.0737,-1.0737,-1.0737,-1.0737,-1.0737,-1.0737,-1.0737,-2.1559,-2.1957,-2.2479,-2.2685,-2.2685,-2.2612,-2.2539,-2.2479,-2.2443,-2.2503,-2.2515,-2.2576,-2.2782,-2.1499,-1.9529,-1.6883,-1.7135,-1.6674,-1.3797,-1.3458,-1.3492,-1.3458,-1.3451,-1.3451,-1.3451,-1.3424,-1.3451,-1.3566,-1.3573,-1.3654,-1.3831,-1.3953,-1.4048,-1.4122,-1.4238,-1.4299,-1.4299,-1.4299,-1.4299,-1.4299,-1.4299,-1.4299,-1.4299,-1.4299,-1.4299,-1.4299,-1.4299,-1.4299,-1.4299,-1.4299,-1.4299,-1.4299,-1.4299,-1.4299,-1.4299,-1.4299,-1.4299,-1.4299,-1.4299,-1.4299,-1.4299,-1.4299,-1.4299,-1.4299,-1.4299,-1.4299,-1.4299,-1.4299,-1.4299,-1.4299,-1.4299,-1.4299,-1.4299,-1.4122,-1.3856,-1.3413,-1.2875,-1.2698,-1.2609,-1.2165,-1.2343,-1.2432,-1.2077,-1.2077,-1.1899,-1.1543,-1.1543,-1.1543,-1.1543,-1.1543,-1.1543,-1.1543,-1.1543,-1.1543,-1.1543,-1.1543,-1.1505,-1.1319,-1.1183,-1.1101,-1.1101,-1.0867,-1.0737,-1.0737,-1.0737,-1.0737,-1.0737,-1.0737,-1.0737,-1.0737,-1.0737,-1.0737,-2.1776,-2.2223,-2.2709,-2.2721,-2.2539,-2.2491,-2.2951,-2.2879,-2.277,-2.3012,-2.306,-2.3072,-2.3084,-2.1613,-1.9818,-1.7952,-1.6751,-1.535,-1.3645,-1.3634,-1.3763,-1.3627,-1.3614,-1.3614,-1.3614,-1.3485,-1.3403,-1.3417,-1.3417,-1.3539,-1.3824,-1.3851,-1.3987,-1.4278,-1.4292,-1.4299,-1.4299,-1.4299,-1.4299,-1.4299,-1.4299,-1.4299,-1.4299,-1.4299,-1.4299,-1.4299,-1.4299,-1.4299,-1.4299,-1.4299,-1.4299,-1.4299,-1.4299,-1.4299,-1.4299,-1.4299,-1.4299,-1.4299,-1.4299,-1.4299,-1.4299,-1.4299,-1.4299,-1.4299,-1.4299,-1.4299,-1.4299,-1.4299,-1.4299,-1.4299,-1.4299,-1.4299,-1.421,-1.3768,-1.3591,-1.3325,-1.2432,-1.2254,-1.2077,-1.1632,-1.1543,-1.1632,-1.1543,-1.1543,-1.1543,-1.1543,-1.1543,-1.1543,-1.1543,-1.1543,-1.1543,-1.1543,-1.1543,-1.1543,-1.1543,-1.1543,-1.1538,-1.1533,-1.1226,-1.1101,-1.1101,-1.0867,-1.0737,-1.0737,-1.0737,-1.0737,-1.0737,-1.0737,-1.0737,-1.0737,-1.0737,-1.0737,-2.18,-2.2321,-2.2733,-2.2733,-2.2648,-2.2645,-2.3176,-2.3225,-2.3128,-2.3133,-2.3176,-2.2924,-2.1658,-2.1153,-1.9943,-1.6933,-1.6188,-1.5438,-1.379,-1.3715,-1.3824,-1.377,-1.3763,-1.3763,-1.3763,-1.3627,-1.3546,-1.3546,-1.3546,-1.3553,-1.3566,-1.3743,-1.3851,-1.3878,-1.3966,-1.4014,-1.4014,-1.4109,-1.4156,-1.4156,-1.4251,-1.4299,-1.4299,-1.4299,-1.4299,-1.4299,-1.4299,-1.4299,-1.4299,-1.4299,-1.4299,-1.4299,-1.4299,-1.4299,-1.4299,-1.4299,-1.4299,-1.4299,-1.4299,-1.4299,-1.4299,-1.4299,-1.4299,-1.4299,-1.4299,-1.4299,-1.4299,-1.4299,-1.4299,-1.4299,-1.4299,-1.4122,-1.3856,-1.3679,-1.3141,-1.2609,-1.2254,-1.1988,-1.1721,-1.1543,-1.1543,-1.1543,-1.1543,-1.1543,-1.1543,-1.1543,-1.1543,-1.1543,-1.1543,-1.1543,-1.1543,-1.1543,-1.1543,-1.1543,-1.1543,-1.1543,-1.1543,-1.1543,-1.1232,-1.1101,-1.1101,-1.0867,-1.0737,-1.0737,-1.0737,-1.0737,-1.0737,-1.0737,-1.0737,-1.0737,-1.0737,-1.0737,-2.2029,-2.2455,-2.2745,-2.283,-2.2794,-2.279,-2.3255,-2.3381,-2.3321,-2.3297,-2.3381,-2.2831,-2.0898,-2.0411,-1.9201,-1.6087,-1.5424,-1.4877,-1.372,-1.3682,-1.3777,-1.3777,-1.3606,-1.3514,-1.3514,-1.3303,-1.3133,-1.3133,-1.3133,-1.3197,-1.3311,-1.3408,-1.3579,-1.3695,-1.379,-1.3838,-1.3838,-1.3946,-1.4,-1.4,-1.4156,-1.4251,-1.4299,-1.4299,-1.4299,-1.4299,-1.4299,-1.4299,-1.4299,-1.4299,-1.4299,-1.4299,-1.4299,-1.4299,-1.4299,-1.4299,-1.4299,-1.4299,-1.4299,-1.4299,-1.4299,-1.4299,-1.4299,-1.4299,-1.4299,-1.4299,-1.4299,-1.4299,-1.4299,-1.4299,-1.4299,-1.3945,-1.3591,-1.3413,-1.2787,-1.2165,-1.1988,-1.1721,-1.1543,-1.1543,-1.1543,-1.1543,-1.1543,-1.1543,-1.1543,-1.1543,-1.1543,-1.1543,-1.1543,-1.1543,-1.1543,-1.1543,-1.1543,-1.1543,-1.1543,-1.1543,-1.1543,-1.1543,-1.1232,-1.1101,-1.1101,-1.0867,-1.0737,-1.0737,-1.0737,-1.0737,-1.0737,-1.0737,-1.0737,-1.0737,-1.0737,-1.0737,-2.2576,-2.2733,-2.2794,-2.3048,-2.2927,-2.2802,-2.3255,-2.3237,-2.3278,-2.3731,-2.3556,-2.289,-2.1115,-1.9354,-1.7601,-1.5909,-1.4355,-1.3403,-1.3403,-1.3532,-1.3627,-1.3634,-1.3206,-1.3037,-1.3037,-1.2489,-1.2069,-1.2069,-1.2069,-1.238,-1.2946,-1.3037,-1.3271,-1.3745,-1.3752,-1.3838,-1.3838,-1.3838,-1.3838,-1.3838,-1.3994,-1.415,-1.4299,-1.4299,-1.4299,-1.4299,-1.4299,-1.4299,-1.4299,-1.4299,-1.4299,-1.4299,-1.4299,-1.4299,-1.4299,-1.4299,-1.4299,-1.4299,-1.4299,-1.4299,-1.4299,-1.4299,-1.4299,-1.4299,-1.4299,-1.4299,-1.4299,-1.4299,-1.4299,-1.4299,-1.4299,-1.3945,-1.3502,-1.3053,-1.252,-1.2077,-1.1632,-1.1543,-1.1543,-1.1543,-1.1543,-1.1543,-1.1543,-1.1543,-1.1543,-1.1543,-1.1543,-1.1543,-1.1543,-1.1543,-1.1543,-1.1543,-1.1543,-1.1543,-1.1543,-1.1543,-1.1543,-1.1543,-1.1232,-1.1101,-1.1101,-1.0867,-1.0737,-1.0737,-1.0737,-1.0737,-1.0737,-1.0737,-1.0737,-1.0737,-1.0737,-1.0737,-2.2283,-2.2721,-2.2975,-2.2866,-2.2995,-2.3261,-2.3339,-2.3315,-2.343,-2.3688,-2.2578,-2.1433,-2.0867,-1.8508,-1.6456,-1.5683,-1.4355,-1.3437,-1.3546,-1.36,-1.3499,-1.3337,-1.318,-1.3009,-1.2667,-1.2379,-1.2215,-1.2215,-1.2215,-1.2275,-1.2387,-1.2726,-1.3011,-1.303,-1.3365,-1.3532,-1.3532,-1.3641,-1.3695,-1.3695,-1.3838,-1.3987,-1.4143,-1.4251,-1.4299,-1.4299,-1.4299,-1.4299,-1.4299,-1.4299,-1.4299,-1.4299,-1.4299,-1.4299,-1.4299,-1.4299,-1.4299,-1.4299,-1.4299,-1.4299,-1.4299,-1.4299,-1.4299,-1.4299,-1.4299,-1.4299,-1.4299,-1.4299,-1.4299,-1.4299,-1.4299,-1.3679,-1.3053,-1.2964,-1.2254,-1.1632,-1.1543,-1.1543,-1.1543,-1.1543,-1.1543,-1.1543,-1.1543,-1.1543,-1.1543,-1.1543,-1.1543,-1.1543,-1.1543,-1.1543,-1.1543,-1.1543,-1.1543,-1.1543,-1.1543,-1.1543,-1.1543,-1.1543,-1.1232,-1.1101,-1.1101,-1.0867,-1.0737,-1.0737,-1.0737,-1.0737,-1.0737,-1.0737,-1.0737,-1.0737,-1.0737,-1.0737,-2.2609,-2.2887,-2.3133,-2.3116,-2.3297,-2.3399,-2.3507,-2.3531,-2.3568,-2.3736,-2.2248,-2.0767,-2.0046,-1.7801,-1.5729,-1.4898,-1.3995,-1.3347,-1.3274,-1.3204,-1.3146,-1.2809,-1.2561,-1.2392,-1.2053,-1.1818,-1.1687,-1.1687,-1.1687,-1.1735,-1.1825,-1.2148,-1.2489,-1.2657,-1.2982,-1.3238,-1.3403,-1.3492,-1.3539,-1.3539,-1.3688,-1.3804,-1.3905,-1.4116,-1.4211,-1.4211,-1.4272,-1.4299,-1.4299,-1.4299,-1.4299,-1.4299,-1.4299,-1.4299,-1.4299,-1.4299,-1.4299,-1.4299,-1.4299,-1.4299,-1.4299,-1.4299,-1.4299,-1.4299,-1.4299,-1.4299,-1.4299,-1.4299,-1.4299,-1.4299,-1.4299,-1.3591,-1.2875,-1.2875,-1.2165,-1.1543,-1.1543,-1.1543,-1.1543,-1.1543,-1.1543,-1.1543,-1.1543,-1.1543,-1.1543,-1.1543,-1.1543,-1.1543,-1.1543,-1.1543,-1.1543,-1.1543,-1.1543,-1.1543,-1.1543,-1.1543,-1.1543,-1.1543,-1.1275,-1.1172,-1.1172,-1.0889,-1.0737,-1.0737,-1.0737,-1.0737,-1.0737,-1.0737,-1.0737,-1.0737,-1.0737,-1.0737,-2.3188,-2.3237,-2.32,-2.3683,-2.3568,-2.3471,-2.354,-2.36,-2.36,-2.36,-2.2039,-2.0241,-1.8626,-1.6901,-1.5193,-1.3562,-1.3314,-1.3148,-1.2733,-1.265,-1.2484,-1.2069,-1.1653,-1.1403,-1.132,-1.0987,-1.0737,-1.0737,-1.0737,-1.0904,-1.132,-1.1403,-1.1819,-1.265,-1.265,-1.2899,-1.3403,-1.3403,-1.3403,-1.3403,-1.3539,-1.3607,-1.362,-1.3919,-1.4055,-1.4082,-1.4231,-1.4299,-1.4299,-1.4299,-1.4299,-1.4299,-1.4299,-1.4299,-1.4299,-1.4299,-1.4299,-1.4299,-1.4299,-1.4299,-1.4299,-1.4299,-1.4299,-1.4299,-1.4299,-1.4299,-1.4299,-1.4299,-1.4299,-1.4299,-1.4299,-1.3591,-1.2875,-1.2875,-1.2165,-1.1543,-1.1543,-1.1543,-1.1543,-1.1543,-1.1543,-1.1543,-1.1543,-1.1543,-1.1543,-1.1543,-1.1543,-1.1543,-1.1543,-1.1543,-1.1543,-1.1543,-1.1543,-1.1543,-1.1543,-1.1543,-1.1543,-1.1543,-1.134,-1.127,-1.127,-1.0938,-1.0753,-1.0753,-1.0742,-1.0737,-1.0737,-1.0748,-1.0748,-1.0737,-1.0748,-1.0748,-2.2778,-2.3092,-2.3393,-2.3435,-2.3568,-2.3368,-2.2028,-2.1786,-2.1786,-2.1786,-1.9267,-1.6983,-1.6656,-1.4863,-1.3307,-1.2899,-1.2567,-1.2318,-1.2235,-1.2235,-1.2069,-1.157,-1.1486,-1.1237,-1.0904,-1.0737,-1.0737,-1.0737,-1.0737,-1.0737,-1.082,-1.1237,-1.1653,-1.2235,-1.2567,-1.2899,-1.3403,-1.3403,-1.3403,-1.3403,-1.3437,-1.3451,-1.3458,-1.3756,-1.3953,-1.4082,-1.4231,-1.4299,-1.4299,-1.4299,-1.4299,-1.4299,-1.4299,-1.4299,-1.4299,-1.4299,-1.4299,-1.4299,-1.4299,-1.4299,-1.4299,-1.4299,-1.4299,-1.4299,-1.4299,-1.4299,-1.4299,-1.4299,-1.4299,-1.4299,-1.4299,-1.3591,-1.2875,-1.2875,-1.2165,-1.1543,-1.1543,-1.1543,-1.1543,-1.1543,-1.1543,-1.1543,-1.1543,-1.1543,-1.1543,-1.1543,-1.1543,-1.1543,-1.1543,-1.1543,-1.1543,-1.1543,-1.1543,-1.1543,-1.1543,-1.1543,-1.1543,-1.1543,-1.134,-1.127,-1.127,-1.102,-1.0878,-1.0878,-1.0786,-1.0737,-1.0737,-1.0835,-1.0829,-1.0737,-1.0835,-1.0829,-2.2935,-2.314,-2.3074,-2.252,-2.243,-2.212,-2.0332,-1.9349,-1.8689,-1.8689,-1.7229,-1.5925,-1.5671,-1.4038,-1.265,-1.2401,-1.2235,-1.1986,-1.1819,-1.1736,-1.157,-1.1153,-1.107,-1.0987,-1.0737,-1.0737,-1.0737,-1.0737,-1.0737,-1.0737,-1.0737,-1.0904,-1.132,-1.1736,-1.2152,-1.265,-1.3065,-1.3321,-1.3403,-1.3403,-1.3403,-1.3403,-1.341,-1.3709,-1.3926,-1.4082,-1.4231,-1.4299,-1.4299,-1.4299,-1.4299,-1.4299,-1.4299,-1.4299,-1.4299,-1.4299,-1.4299,-1.4299,-1.4299,-1.4299,-1.4299,-1.4299,-1.4299,-1.4299,-1.4299,-1.4299,-1.4299,-1.4299,-1.4299,-1.421,-1.4033,-1.3413,-1.2875,-1.2609,-1.1988,-1.1543,-1.1543,-1.1543,-1.1543,-1.1543,-1.1543,-1.1543,-1.1543,-1.1543,-1.1543,-1.1543,-1.1543,-1.1543,-1.1543,-1.1543,-1.1543,-1.1543,-1.1543,-1.1543,-1.1543,-1.1543,-1.1543,-1.1543,-1.1395,-1.1357,-1.1357,-1.1183,-1.1036,-1.0922,-1.0916,-1.0884,-1.0824,-1.0889,-1.0889,-1.0824,-1.0829,-1.0797,-2.314,-2.2979,-2.2432,-2.1435,-2.0969,-2.0322,-1.8535,-1.6983,-1.5761,-1.5514,-1.5432,-1.535,-1.493,-1.3549,-1.2401,-1.2069,-1.1902,-1.1736,-1.132,-1.132,-1.1153,-1.0737,-1.0737,-1.0737,-1.0737,-1.0737,-1.0737,-1.0737,-1.0737,-1.0737,-1.0737,-1.0737,-1.0904,-1.1403,-1.1819,-1.2318,-1.2733,-1.3148,-1.3403,-1.3403,-1.3403,-1.3403,-1.341,-1.3682,-1.3885,-1.4041,-1.4197,-1.4278,-1.4299,-1.4299,-1.4299,-1.4299,-1.4299,-1.4299,-1.4299,-1.4299,-1.4299,-1.4299,-1.4299,-1.4299,-1.4299,-1.4299,-1.4299,-1.4299,-1.4299,-1.4299,-1.4299,-1.4299,-1.4299,-1.421,-1.3679,-1.323,-1.2787,-1.2343,-1.181,-1.1543,-1.1543,-1.1543,-1.1543,-1.1543,-1.1543,-1.1543,-1.1543,-1.1543,-1.1543,-1.1543,-1.1543,-1.1543,-1.1543,-1.1543,-1.1543,-1.1543,-1.1543,-1.1543,-1.1543,-1.1543,-1.1543,-1.1543,-1.1543,-1.1543,-1.1543,-1.1357,-1.1199,-1.0987,-1.1063,-1.1031,-1.0889,-1.0933,-1.0927,-1.0884,-1.0808,-1.0759,-2.2806,-2.1958,-2.1126,-2.1157,-2.0079,-1.8454,-1.6738,-1.5835,-1.493,-1.3473,-1.3141,-1.3141,-1.3058,-1.2229,-1.157,-1.1486,-1.1153,-1.0904,-1.082,-1.082,-1.0737,-1.0737,-1.0737,-1.0737,-1.0737,-1.0737,-1.0737,-1.0737,-1.0737,-1.0737,-1.0737,-1.0737,-1.0904,-1.1403,-1.1819,-1.2318,-1.2733,-1.3148,-1.3403,-1.3403,-1.3403,-1.3403,-1.3403,-1.358,-1.3736,-1.3878,-1.4034,-1.4177,-1.4299,-1.4299,-1.4299,-1.4299,-1.4299,-1.4299,-1.4299,-1.4299,-1.4299,-1.4299,-1.4299,-1.4299,-1.4299,-1.4299,-1.4299,-1.4299,-1.4299,-1.4299,-1.4299,-1.4299,-1.4299,-1.421,-1.3679,-1.323,-1.2787,-1.2343,-1.181,-1.1543,-1.1543,-1.1543,-1.1543,-1.1543,-1.1543,-1.1543,-1.1543,-1.1543,-1.1543,-1.1543,-1.1543,-1.1543,-1.1543,-1.1543,-1.1543,-1.1543,-1.1543,-1.1543,-1.1543,-1.1543,-1.1543,-1.1543,-1.1543,-1.1543,-1.1543,-1.1438,-1.1368,-1.1226,-1.1145,-1.0992,-1.0764,-1.0976,-1.0971,-1.0764,-1.0851,-1.084,-2.2866,-2.1882,-2.0602,-1.9947,-1.8454,-1.6664,-1.4953,-1.421,-1.3631,-1.2829,-1.2324,-1.1986,-1.1986,-1.1653,-1.132,-1.107,-1.082,-1.0737,-1.0737,-1.0737,-1.0737,-1.0737,-1.0737,-1.0737,-1.0737,-1.0737,-1.0737,-1.0737,-1.0737,-1.0737,-1.0737,-1.0737,-1.082,-1.0987,-1.1486,-1.1902,-1.2318,-1.2816,-1.3148,-1.3403,-1.3403,-1.3403,-1.3403,-1.3471,-1.358,-1.3729,-1.3878,-1.4027,-1.417,-1.417,-1.4224,-1.4299,-1.4299,-1.4299,-1.4299,-1.4299,-1.4299,-1.4299,-1.4299,-1.4299,-1.4299,-1.4299,-1.4299,-1.4299,-1.4299,-1.4299,-1.4299,-1.4299,-1.4299,-1.4122,-1.3413,-1.3053,-1.2698,-1.1988,-1.1632,-1.1543,-1.1543,-1.1543,-1.1543,-1.1543,-1.1543,-1.1543,-1.1543,-1.1543,-1.1543,-1.1543,-1.1543,-1.1543,-1.1543,-1.1543,-1.1543,-1.1543,-1.1543,-1.1543,-1.1543,-1.1543,-1.1543,-1.1543,-1.1543,-1.1543,-1.1543,-1.1389,-1.1297,-1.1177,-1.1188,-1.1112,-1.0944,-1.0982,-1.0944,-1.084,-1.0824,-1.0791,-2.2737,-2.1825,-2.0285,-1.8888,-1.7141,-1.5272,-1.3624,-1.281,-1.2395,-1.2337,-1.1742,-1.1237,-1.1237,-1.1237,-1.107,-1.0737,-1.0737,-1.0737,-1.0737,-1.0737,-1.0737,-1.0737,-1.0737,-1.0737,-1.0737,-1.0737,-1.0737,-1.0737,-1.0737,-1.0737,-1.0737,-1.0737,-1.0737,-1.0737,-1.1153,-1.1653,-1.2069,-1.265,-1.3065,-1.3403,-1.3403,-1.3403,-1.3403,-1.3403,-1.3464,-1.358,-1.3722,-1.3899,-1.4068,-1.4027,-1.4122,-1.4299,-1.4258,-1.4265,-1.4299,-1.4299,-1.4299,-1.4299,-1.4299,-1.4299,-1.4299,-1.4299,-1.4299,-1.4299,-1.4299,-1.4299,-1.4299,-1.4299,-1.421,-1.3945,-1.3141,-1.2787,-1.252,-1.1721,-1.1543,-1.1543,-1.1543,-1.1543,-1.1543,-1.1543,-1.1543,-1.1543,-1.1543,-1.1543,-1.1543,-1.1543,-1.1543,-1.1543,-1.1543,-1.1543,-1.1543,-1.1543,-1.1543,-1.1543,-1.1543,-1.1543,-1.1543,-1.1543,-1.1543,-1.1543,-1.1543,-1.1368,-1.1264,-1.115,-1.1199,-1.1156,-1.1009,-1.0949,-1.0905,-1.0873,-1.078,-1.0737,-2.2205,-2.1437,-1.9776,-1.8548,-1.6567,-1.4554,-1.3081,-1.2121,-1.1452,-1.1469,-1.1065,-1.0737,-1.0737,-1.0737,-1.0737,-1.0737,-1.0737,-1.0737,-1.0737,-1.0737,-1.0737,-1.0737,-1.0737,-1.0737,-1.0737,-1.0737,-1.0737,-1.0737,-1.0737,-1.0737,-1.0737,-1.0737,-1.0737,-1.0737,-1.1153,-1.1653,-1.2069,-1.2899,-1.3403,-1.3403,-1.3403,-1.3403,-1.3403,-1.3403,-1.3403,-1.3424,-1.3573,-1.3804,-1.4061,-1.3912,-1.4027,-1.4285,-1.4143,-1.417,-1.4299,-1.4299,-1.4299,-1.4299,-1.4299,-1.4299,-1.4299,-1.4299,-1.4299,-1.4299,-1.4299,-1.4299,-1.4299,-1.4299,-1.3945,-1.3502,-1.3053,-1.2609,-1.2077,-1.1632,-1.1543,-1.1543,-1.1543,-1.1543,-1.1543,-1.1543,-1.1543,-1.1543,-1.1543,-1.1543,-1.1543,-1.1543,-1.1543,-1.1543,-1.1543,-1.1543,-1.1543,-1.1543,-1.1543,-1.1543,-1.1543,-1.1543,-1.1543,-1.1543,-1.1543,-1.1543,-1.1543,-1.1449,-1.1389,-1.1264,-1.1161,-1.0992,-1.0759,-1.0867,-1.0862,-1.0748,-1.0737,-1.0737,-2.0717,-2.0527,-1.9966,-1.9679,-1.7235,-1.4789,-1.4271,-1.2727,-1.1386,-1.1403,-1.0987,-1.0737,-1.0737,-1.0737,-1.0737,-1.0737,-1.0737,-1.0737,-1.0737,-1.0737,-1.0737,-1.0737,-1.0737,-1.0737,-1.0737,-1.0737,-1.0737,-1.0737,-1.0737,-1.0737,-1.0737,-1.0737,-1.0737,-1.0737,-1.082,-1.132,-1.2069,-1.265,-1.3065,-1.3403,-1.3403,-1.3403,-1.3403,-1.3403,-1.3403,-1.341,-1.3559,-1.3688,-1.379,-1.3824,-1.3966,-1.4156,-1.4204,-1.4251,-1.4299,-1.4299,-1.4299,-1.4299,-1.4299,-1.4299,-1.4299,-1.4299,-1.4299,-1.4299,-1.4299,-1.4299,-1.421,-1.3945,-1.3768,-1.3413,-1.2609,-1.2343,-1.2077,-1.1632,-1.1543,-1.1543,-1.1543,-1.1543,-1.1543,-1.1543,-1.1543,-1.1543,-1.1543,-1.1543,-1.1543,-1.1543,-1.1543,-1.1543,-1.1543,-1.1543,-1.1543,-1.1543,-1.1543,-1.1543,-1.1543,-1.1543,-1.1543,-1.1543,-1.1543,-1.1543,-1.1543,-1.1308,-1.121,-1.1166,-1.0971,-1.0862,-1.0851,-1.0819,-1.078,-1.0737,-1.0737,-1.0737,-1.8787,-1.936,-1.969,-1.9372,-1.7654,-1.5835,-1.4818,-1.3251,-1.1825,-1.1248,-1.0909,-1.0737,-1.0737,-1.0737,-1.0737,-1.0737,-1.0737,-1.0737,-1.0737,-1.0737,-1.0737,-1.0737,-1.0737,-1.0737,-1.0737,-1.0737,-1.0737,-1.0737,-1.0737,-1.0737,-1.0737,-1.0737,-1.0737,-1.0737,-1.082,-1.1237,-1.1819,-1.2318,-1.265,-1.2982,-1.3065,-1.3148,-1.3148,-1.3321,-1.3403,-1.3403,-1.3505,-1.358,-1.3634,-1.3729,-1.3892,-1.4075,-1.4129,-1.4211,-1.4299,-1.4299,-1.4299,-1.4299,-1.4299,-1.4299,-1.4299,-1.4299,-1.4299,-1.4299,-1.4299,-1.421,-1.4033,-1.3679,-1.3407,-1.2964,-1.2343,-1.2077,-1.1899,-1.1543,-1.1543,-1.1543,-1.1543,-1.1543,-1.1543,-1.1543,-1.1543,-1.1543,-1.1543,-1.1543,-1.1543,-1.1543,-1.1543,-1.1543,-1.1543,-1.1543,-1.1543,-1.1543,-1.1543,-1.1543,-1.1543,-1.1543,-1.1543,-1.1543,-1.1417,-1.1395,-1.1395,-1.1204,-1.1085,-1.1041,-1.0884,-1.0819,-1.0857,-1.0775,-1.0737,-1.0737,-1.0737,-1.0737,0.0,0.0,0.0,-1.735,-1.7747,-1.7635,-1.4571,-1.3493,-1.2701,-1.1076,-1.0737,-1.0737,-1.0737,-1.0737,-1.0737,-1.0737,-1.0737,-1.0737,-1.0737,-1.0737,-1.0737,-1.0737,-1.0737,-1.0737,-1.0737,-1.0737,-1.0737,-1.0737,-1.0737,-1.0737,-1.0737,-1.0737,-1.0737,-1.0737,-1.1153,-1.1403,-1.1403,-1.1819,-1.2069,-1.2069,-1.2484,-1.265,-1.2733,-1.3155,-1.3397,-1.3403,-1.3403,-1.3492,-1.362,-1.3627,-1.3797,-1.4041,-1.3899,-1.4021,-1.4285,-1.4292,-1.4292,-1.4292,-1.4299,-1.4299,-1.4299,-1.4299,-1.4299,-1.4299,-1.4299,-1.3945,-1.3591,-1.3591,-1.2875,-1.2165,-1.2165,-1.181,-1.1543,-1.1543,-1.1543,-1.1543,-1.1543,-1.1543,-1.1543,-1.1543,-1.1543,-1.1543,-1.1543,-1.1543,-1.1543,-1.1543,-1.1543,-1.1543,-1.1543,-1.1543,-1.1543,-1.1543,-1.1543,-1.1543,-1.1543,-1.1543,-1.1543,-1.1449,-1.134,-1.127,-1.127,-1.1156,-1.1041,-1.0922,-1.0916,-1.0857,-1.0737,-1.0737,-1.0737,-1.0737,-1.0737,-1.0737,-1.4868,0.0,0.0,0.0,0.0,0.0,-1.4221,-1.292,-1.1676,-1.1076,-1.0992,-1.0992,-1.0737,-1.0737,-1.0737,-1.0737,-1.0737,-1.0737,-1.0737,-1.0737,-1.0737,-1.0737,-1.0737,-1.0737,-1.0737,-1.0737,-1.0737,0.0,-1.0737,-1.0737,-1.0737,-1.0737,-1.0737,-1.0737,-1.082,-1.107,-1.1403,-1.157,-1.1736,-1.2069,-1.2235,-1.2235,-1.2235,-1.2401,-1.265,-1.2906,-1.3017,-1.3274,-1.3471,-1.3587,-1.3675,-1.3756,-1.3817,-1.3892,-1.398,-1.4095,-1.4136,-1.415,-1.4265,-1.4299,-1.4299,-1.4299,-1.4299,-1.421,-1.3856,-1.3679,-1.3502,-1.2787,-1.2432,-1.2077,-1.181,-1.1632,-1.1543,-1.1543,-1.1543,-1.1543,-1.1543,-1.1543,-1.1543,-1.1543,-1.1543,-1.1543,-1.1543,-1.1543,-1.1543,-1.1543,-1.1543,-1.1543,-1.1543,-1.1543,-1.1543,-1.1543,-1.1543,-1.1543,-1.1543,-1.1543,-1.1417,-1.133,-1.1291,-1.1237,-1.1156,-1.1036,-1.0954,-1.0922,-1.0835,-1.077,-1.0737,-1.0737,-1.0737,-1.0737,-1.0737,-1.0737,-1.3176,-1.4374,-1.564,-1.5651,0.0,0.0,-1.3965,-1.2916,-1.1956,-1.0947,-1.0837,-1.082,-1.0654,-1.0565,-1.057,-1.0654,-1.0654,-1.0654,-1.0737,-1.0737,-1.0737,-1.0737,-1.0737,-1.0737,-1.0737,-1.0737,-1.0737,-1.0737,-1.0737,-1.0737,-1.0737,-1.0737,-1.0737,-1.0737,-1.0737,-1.082,-1.107,-1.107,-1.1237,-1.1486,-1.1736,-1.1819,-1.1819,-1.2152,-1.2484,-1.274,-1.2823,-1.2984,-1.3072,-1.2997,-1.3237,-1.3641,-1.3722,-1.379,-1.3858,-1.4014,-1.4075,-1.4095,-1.4245,-1.4299,-1.4299,-1.4299,-1.421,-1.3945,-1.3679,-1.3325,-1.2875,-1.2343,-1.2077,-1.181,-1.1543,-1.1543,-1.1543,-1.1543,-1.1543,-1.1543,-1.1543,-1.1543,-1.1543,-1.1543,-1.1543,-1.1543,-1.1543,-1.1543,-1.1543,-1.1543,-1.1543,-1.1543,-1.1543,-1.1543,-1.1543,-1.1543,-1.1543,-1.1543,-1.1543,-1.1411,-1.1346,-1.1275,-1.1177,-1.1096,-1.1031,-1.0911,-1.0846,-1.0846,-1.0775,-1.0737,-1.0737,-1.0737,-1.0737,-1.0737,-1.0737,-1.0737,-1.1619,-1.2589,-1.3634,-1.3634,-1.461,0.0,-1.3482,-1.3138,-1.2656,-1.0856,-1.0479,-1.049,-1.049,-1.049,-1.0479,-1.0623,-1.0583,-1.0549,-1.0648,-1.0737,-1.0737,-1.0737,-1.0737,-1.0737,-1.0737,-1.0737,-1.0737,-1.0737,-1.0737,-1.0737,-1.0737,-1.0737,-1.0737,-1.0737,-1.0737,-1.0737,-1.0737,-1.0737,-1.0737,-1.0737,-1.1153,-1.132,-1.132,-1.2152,-1.2484,-1.2567,-1.2567,-1.2567,-1.2567,-1.2235,-1.2643,-1.3432,-1.3432,-1.3519,-1.3666,-1.3814,-1.3968,-1.4008,-1.4156,-1.421,-1.421,-1.421,-1.3856,-1.3502,-1.3502,-1.2875,-1.2165,-1.2165,-1.181,-1.1543,-1.1543,-1.1543,-1.1543,-1.1543,-1.1543,-1.1543,-1.1543,-1.1533,-1.1522,-1.1522,-1.1533,-1.1543,-1.1543,-1.1543,-1.1543,-1.1543,-1.1543,-1.1543,-1.1543,-1.1543,-1.1543,-1.1543,-1.1543,-1.1449,-1.1522,-1.1335,-1.1259,-1.1232,-1.1036,-1.0916,-1.09,-1.0797,-1.0737,-1.0737,-1.0737,-1.0737,-1.0737,-1.0737,-1.0737,-1.0737,-1.0737,-1.0737,-1.1653,-1.1842,-1.2065,-1.2065,-1.2287,0.0,-1.1993,-1.2042,-1.1884,-1.1302,-1.129,-1.1288,-1.1045,-1.0803,-1.0655,-1.1063,-1.0645,-1.0338,-1.0632,-1.0737,-1.0737,-1.0737,-1.0737,-1.0737,-1.0737,-1.0737,-1.0737,-1.0737,-1.0737,-1.0737,-1.0737,-1.0737,-1.0737,-1.0737,-1.0737,-1.0737,-1.0737,-1.0737,-1.0737,-1.0737,-1.082,-1.082,-1.082,-1.0987,-1.132,-1.1653,-1.1653,-1.1902,-1.2235,-1.2152,-1.2253,-1.2362,-1.2362,-1.2443,-1.258,-1.2717,-1.3095,-1.3565,-1.3716,-1.3768,-1.3768,-1.3768,-1.3413,-1.2964,-1.2609,-1.2343,-1.2077,-1.1721,-1.1543,-1.1543,-1.1543,-1.1543,-1.1543,-1.1543,-1.1543,-1.1543,-1.1543,-1.1378,-1.1308,-1.1308,-1.1389,-1.1543,-1.1543,-1.1543,-1.1543,-1.1543,-1.1543,-1.1543,-1.1543,-1.1543,-1.1543,-1.1543,-1.1543,-1.1505,-1.1313,-1.1286,-1.1188,-1.0998,-1.0944,-1.0878,-1.0775,-1.0748,-1.0737,-1.0737,-1.0737,-1.0737,-1.0737,-1.0737,-1.0737,-1.0737,-1.0737,-1.0737,-1.166,-1.1619,-1.1619,-1.1619,-1.1619,0.0,0.0,-1.1444,-1.1403,-1.1177,-1.115,-1.117,-1.1021,-1.0865,-1.0757,-1.1042,-1.0672,-1.0465,-1.0598,-1.0618,-1.0666,-1.0732,-1.0737,-1.0737,-1.0737,-1.0737,-1.0737,-1.0737,-1.0737,-1.0737,-1.0737,-1.0737,-1.0737,-1.0737,-1.0737,-1.0737,-1.0737,-1.0737,-1.0737,-1.0737,-1.0737,-1.0737,-1.0737,-1.0904,-1.1153,-1.1403,-1.1403,-1.157,-1.1736,-1.1486,-1.1403,-1.1486,-1.1902,-1.2322,-1.2542,-1.2502,-1.2724,-1.3041,-1.3186,-1.323,-1.323,-1.323,-1.2964,-1.252,-1.2254,-1.2077,-1.181,-1.1543,-1.1411,-1.1362,-1.1362,-1.1319,-1.1281,-1.1281,-1.1281,-1.1281,-1.1281,-1.1232,-1.1188,-1.1188,-1.1237,-1.1281,-1.1281,-1.133,-1.1362,-1.1362,-1.1505,-1.1543,-1.1543,-1.1543,-1.1543,-1.1543,-1.14,-1.134,-1.1275,-1.1161,-1.1047,-1.0927,-1.0862,-1.0802,-1.0737,-1.0737,-1.0737,-1.0737,-1.0737,-1.0737,-1.0737,-1.0737,-1.0737,-1.0737,-1.0737,-1.0737,-1.1667,-1.1619,-1.1619,-1.1619,-1.1619,-1.1548,0.0,0.0,0.0,-1.1025,0.0,0.0,0.0,0.0,0.0,0.0,0.0,0.0,0.0,-1.064,0.0,-1.0585,-1.0683,-1.0721,-1.0672,-1.0688,-1.071,-1.0737,-1.0715,-1.071,-1.0737,-1.0737,-1.0737,-1.0737,-1.0737,-1.0737,-1.0737,-1.0737,-1.0737,-1.0737,-1.0737,-1.0737,-1.0737,-1.107,-1.1237,-1.1237,-1.1237,-1.1237,-1.1237,-1.082,-1.0737,-1.0904,-1.157,-1.2166,-1.2495,-1.2344,-1.2483,-1.2729,-1.275,-1.2787,-1.2875,-1.2787,-1.2414,-1.2042,-1.2042,-1.176,-1.1389,-1.1389,-1.1313,-1.1237,-1.1237,-1.1172,-1.1101,-1.1101,-1.1101,-1.1101,-1.1101,-1.1085,-1.1069,-1.1069,-1.1047,-1.1047,-1.1096,-1.1177,-1.1248,-1.127,-1.1357,-1.1427,-1.1543,-1.1543,-1.1543,-1.1543,-1.1346,-1.1264,-1.1243,-1.1041,-1.0911,-1.0884,-1.0791,-1.0737,-1.0737,-1.0737,-1.0737,-1.0737,-1.0737,-1.0737,-1.0737,-1.0737,-1.0737,-1.0737,-1.0737,-1.0737,-1.1694,-1.1619,-1.1619,-1.1619,-1.1619,-1.1619,-1.1548,0.0,-1.1548,-1.1548,0.0,-1.1548,0.0,0.0,0.0,0.0,0.0,0.0,-1.0908,-1.0673,-1.0357,-1.009,-1.0476,-1.0655,-1.0449,-1.052,-1.0623,-1.0726,-1.0634,-1.0623,-1.0732,-1.0737,-1.0737,-1.0737,-1.0737,-1.0737,-1.0737,-1.0737,-1.0737,-1.0737,-1.0737,-1.0737,-1.0737,-1.0737,-1.082,-1.082,-1.082,-1.082,-1.082,-1.0737,-1.0987,-1.132,-1.0987,-1.1047,-1.1343,-1.1268,-1.194,-1.2857,-1.2426,-1.252,-1.2787,-1.2432,-1.1914,-1.1379,-1.1379,-1.1308,-1.1145,-1.1145,-1.1134,-1.1123,-1.1123,-1.1112,-1.1101,-1.1101,-1.1101,-1.1101,-1.1101,-1.1014,-1.0938,-1.0938,-1.0851,-1.0846,-1.1063,-1.1112,-1.1156,-1.1259,-1.1281,-1.1335,-1.1438,-1.1543,-1.1543,-1.1543,-1.1346,-1.1232,-1.1128,-1.0998,-1.0873,-1.0764,-1.0742,-1.0737,-1.0737,-1.0737,-1.0737,-1.0737,-1.0737,-1.0737,-1.0737,-1.0737,-1.0737,-1.0737,-1.0737,-1.0737,-1.1681,-1.1681,-1.1721,-1.164,-1.1681,-1.1721,-1.164,-1.1619,-1.1619,-1.1619,0.0,0.0,0.0,0.0,0.0,0.0,-1.125,0.0,0.0,0.0,-1.0579,0.0,0.0,0.0,-1.0384,-1.0552,-1.0683,-1.0732,-1.0688,-1.0683,-1.0732,-1.0737,-1.0737,-1.0737,-1.0737,-1.0737,-1.0737,-1.0737,-1.0737,-1.0737,-1.0737,-1.0737,-1.0737,-1.0737,-1.0737,-1.0737,-1.0737,-1.0737,-1.0737,-1.0737,-1.082,-1.0987,-1.082,-1.1009,-1.1339,-1.1083,-1.1404,-1.1956,-1.1625,-1.173,-1.1956,-1.162,-1.1389,-1.1172,-1.1172,-1.1139,-1.1101,-1.1101,-1.1052,-1.0998,-1.0998,-1.0944,-1.0889,-1.0889,-1.0889,-1.0889,-1.0889,-1.0851,-1.0813,-1.0813,-1.077,-1.077,-1.0873,-1.0949,-1.1014,-1.1063,-1.1128,-1.1194,-1.1243,-1.1308,-1.1324,-1.1259,-1.1204,-1.1123,-1.1009,-1.0884,-1.0791,-1.0737,-1.0737,-1.0737,-1.0737,-1.0737,-1.0737,-1.0737,-1.0737,-1.0737,-1.0737,-1.0737,-1.0737,-1.0737,-1.0737,-1.0737,-1.1735,-1.1755,-1.1796,-1.1653,-1.1694,-1.1748,-1.164,-1.1619,-1.1619,-1.1619,-1.1619,0.0,0.0,0.0,-1.1633,-1.1674,0.0,-1.1285,0.0,-1.1038,0.0,0.0,0.0,0.0,0.0,-1.0471,-1.0606,-1.0639,-1.0672,-1.0704,-1.0737,-1.0737,-1.0737,-1.0737,-1.0737,-1.0737,-1.0737,-1.0737,-1.0737,-1.0737,-1.0737,-1.0737,-1.0737,-1.0737,-1.0737,-1.0737,-1.0737,-1.0737,-1.0737,-1.0737,-1.0737,-1.0737,-1.0737,-1.0959,-1.1295,-1.099,-1.1133,-1.1389,-1.122,-1.1156,-1.121,-1.1128,-1.1079,-1.1052,-1.1052,-1.1031,-1.1003,-1.1003,-1.0938,-1.0867,-1.0867,-1.0802,-1.0737,-1.0737,-1.0737,-1.0737,-1.0737,-1.0737,-1.0737,-1.0737,-1.0737,-1.0737,-1.0737,-1.0808,-1.0878,-1.0916,-1.0998,-1.1063,-1.1101,-1.1172,-1.1194,-1.1112,-1.1074,-1.1014,-1.0927,-1.0808,-1.0737,-1.0737,-1.0737,-1.0737,-1.0737,-1.0737,-1.0737,-1.0737,-1.0737,-1.0737,-1.0737,-1.0737,-1.0737,-1.0737,-1.0737,-1.0737,-1.1891,-1.183,-1.1796,-1.1653,-1.1619,-1.1626,-1.1619,-1.1619,-1.1619,-1.1619,-1.1619,-1.1619,-1.1619,-1.1619,-1.166,-1.1803,-1.1714,0.0,0.0,0.0,-1.0847,-1.0552,-1.0349,0.0,0.0,-1.0144,-1.0269,0.0,-1.0498,-1.0612,-1.0732,-1.0737,-1.0737,-1.0737,-1.0737,-1.0737,-1.0737,-1.0737,-1.0737,-1.0737,-1.0737,-1.0737,-1.0737,-1.0737,-1.0737,-1.0737,-1.0737,-1.0737,-1.0737,-1.0737,-1.0737,-1.0737,-1.0737,-1.0737,-1.0759,-1.0878,-1.1254,-1.171,-1.1279,-1.1107,-1.1107,-1.1107,-1.102,-1.0927,-1.0927,-1.084,-1.0748,-1.0748,-1.0742,-1.0742,-1.0742,-1.0737,-1.0737,-1.0737,-1.0737,-1.0737,-1.0737,-1.0737,-1.0737,-1.0737,-1.0737,-1.0737,-1.0737,-1.0737,-1.078,-1.09,-1.0922,-1.0971,-1.1085,-1.1107,-1.1107,-1.1101,-1.0998,-1.0922,-1.0922,-1.0808,-1.0737,-1.0737,-1.0737,-1.0737,-1.0737,-1.0737,-1.0737,-1.0737,-1.0737,-1.0737,-1.0737,-1.0737,-1.0737,-1.0737,-1.0737,-1.0737,-1.23,-1.2293,-1.2366,-1.2121,-1.206,-1.2013,-1.1809,-1.1687,-1.1619,-1.1619,-1.1619,-1.1619,-1.1619,-1.1619,-1.1633,-1.1681,-1.1653,-1.1561,0.0,-1.1437,-1.126,-1.0894,-1.07,-1.0451,0.0,0.0,0.0,0.0,-1.0568,-1.0693,-1.0732,-1.0737,-1.0737,-1.0737,-1.0737,-1.0737,-1.0737,-1.0737,-1.0737,-1.0737,-1.0737,-1.0737,-1.0737,-1.0737,-1.0737,-1.0737,-1.0737,-1.0737,-1.0737,-1.0737,-1.0737,-1.0737,-1.0737,-1.0737,-1.0742,-1.078,-1.0963,-1.1152,-1.0982,-1.0927,-1.0862,-1.0862,-1.0835,-1.0797,-1.0797,-1.077,-1.0737,-1.0737,-1.0737,-1.0737,-1.0737,-1.0737,-1.0737,-1.0737,-1.0737,-1.0737,-1.0737,-1.0737,-1.0737,-1.0737,-1.0737,-1.0737,-1.0737,-1.0737,-1.0753,-1.0791,-1.0797,-1.0813,-1.0857,-1.0933,-1.0949,-1.0867,-1.0971,-1.1009,-1.0927,-1.0884,-1.0857,-1.0857,-1.0857,-1.0857,-1.0857,-1.0857,-1.0895,-1.0976,-1.09,-1.0857,-1.0857,-1.0857,-1.0813,-1.0737,-1.0737,-1.0737,-1.2601,-1.2594,-1.2671,-1.2427,-1.2366,-1.2298,-1.2054,-1.1925,-1.1857,-1.1857,-1.1769,-1.1742,-1.1904,-1.1762,-1.1653,-1.1762,-1.1687,-1.1619,0.0,-1.1619,-1.1476,-1.126,-1.0986,-1.0687,-1.0254,0.0,-1.0594,-1.0453,-1.0525,-1.065,0.0,-1.0737,-1.0737,-1.0737,-1.0737,-1.0737,-1.0737,-1.0737,-1.0737,-1.0737,-1.0737,-1.0737,-1.0737,-1.0737,-1.0737,-1.0737,-1.0737,-1.0737,-1.0737,-1.0737,-1.0737,-1.0737,-1.0737,-1.0737,-1.0737,-1.0737,-1.0786,-1.0857,-1.0857,-1.0802,-1.0737,-1.0737,-1.0737,-1.0737,-1.0737,-1.0737,-1.0737,-1.0737,-1.0737,-1.0737,-1.0737,-1.0737,-1.0737,-1.0737,-1.0737,-1.0737,-1.0737,-1.0737,-1.0737,-1.0737,-1.0737,-1.0737,-1.0737,-1.0737,-1.0737,-1.0737,-1.0737,-1.0737,-1.0737,-1.0846,-1.0889,-1.0808,-1.0982,-1.1069,-1.0992,-1.0987,-1.0987,-1.0987,-1.0987,-1.0987,-1.0987,-1.0987,-1.1041,-1.1161,-1.1003,-1.0938,-1.0987,-1.0895,-1.0813,-1.0737,-1.0737,-1.0737]}]]